[[{"header":{"parameterUnit":"m.s-1","parameterCategory":1,"la1":31.0,"la2":29.5877,"lo1":-88.7671,"lo2":-86.6584,"dy":0.0162,"dx":0.0185,"nx":115,"ny":88,"refTime":"2023-08-14T06:00:00:Z","depth":0,"parameterNumber":2,"parameterNumberName":"U-component_of_WINDS"},"data":[0.0,0.0,0.0,0.0,0.0,0.0,0.0,0.0,0.0,0.0,0.0,0.0,0.0,0.0,0.0,0.0,0.0,0.0,0.0,0.0,0.0,0.0,0.0,0.0,0.0,0.0,0.0,0.0,0.0,0.0,0.0,0.0,0.0,0.0,0.0,0.0,0.0,0.0,0.0,0.0,0.0,0.0,0.0,0.0,0.0,0.0,0.0,0.0,0.0,0.0,0.0,0.0,0.0,0.0,0.0,0.0,0.0,0.0,0.0,0.0,0.0,0.0,0.0,0.0,0.0,0.0,0.0,0.0,0.0,0.0,0.0,0.0,0.0,0.0,0.0,0.0,0.0,0.0,0.0,0.0,0.0,0.0,0.0,0.0,0.0,0.0,0.0,0.0,0.0,0.0,0.0,0.0,0.0,0.0,0.0,0.0,0.0,0.0,0.0,0.0,0.0,0.0,0.0,0.0,0.0,0.0,0.0,0.0,0.0,0.0,0.0,0.0,0.0,0.0,0.0,0.0,0.0,0.0,0.0,0.0,0.0,0.0,0.0,0.0,0.0,0.0,0.0,0.0,0.0,0.0,0.0,0.0,0.0,0.0,0.0,0.0,0.0,0.0,0.0,0.0,0.0,0.0,0.0,0.0,0.0,0.0,0.0,0.0,0.0,0.0,0.0,0.0,0.0,0.0,0.0,0.0,0.0,0.0,0.0,0.0,0.0,0.0,0.0,0.0,0.0,0.0,0.0,0.0,0.0,0.0,0.0,0.0,0.0,0.0,0.0,0.0,0.0,0.0,0.0,0.0,0.0,0.0,0.0,0.0,0.0,0.0,0.0,0.0,0.0,0.0,0.0,0.0,0.0,0.0,0.0,0.0,0.0,0.0,0.0,0.0,0.0,0.0,0.0,0.0,0.0,0.0,0.0,0.0,0.0,0.0,0.0,0.0,0.0,0.0,0.0,0.0,0.0,0.0,0.0,0.0,0.0,0.0,0.0,0.0,0.0,0.0,0.0,0.0,0.0,0.0,0.0,0.0,0.0,0.0,0.0,0.0,0.0,0.0,0.0,0.0,0.0,0.0,0.0,0.0,0.0,0.0,0.0,0.0,0.0,0.0,0.0,0.0,0.0,0.0,0.0,0.0,0.0,0.0,0.0,0.0,0.0,0.0,0.0,0.0,0.0,0.0,0.0,0.0,0.0,0.0,0.0,0.0,0.0,0.0,0.0,0.0,0.0,0.0,0.0,0.0,0.0,0.0,0.0,0.0,0.0,0.0,0.0,0.0,0.0,0.0,0.0,0.0,0.0,0.0,0.0,0.0,0.0,0.0,0.0,0.0,0.0,0.0,0.0,0.0,0.0,0.0,0.0,0.0,0.0,0.0,0.0,0.0,0.0,0.0,0.0,0.0,0.0,0.0,0.0,0.0,0.0,0.0,0.0,0.0,0.0,0.0,0.0,0.0,0.0,0.0,0.0,0.0,0.0,0.0,0.0,0.0,0.0,0.0,0.0,0.0,0.0,0.0,0.0,0.0,0.0,0.0,0.0,0.0,0.0,0.0,0.0,0.0,0.0,0.0,0.0,0.0,0.0,0.0,0.0,0.0,0.0,0.0,0.0,0.0,0.0,0.0,0.0,0.0,0.0,0.0,0.0,0.0,0.0,0.0,0.0,0.0,0.0,0.0,0.0,0.0,0.0,0.0,0.0,0.0,0.0,0.0,0.0,0.0,0.0,0.0,0.0,0.0,0.0,0.0,0.0,0.0,0.0,0.0,0.0,0.0,0.0,0.0,0.0,0.0,0.0,0.0,0.0,0.0,0.0,0.0,0.0,0.0,0.0,0.0,0.0,0.0,0.0,0.0,0.0,0.0,0.0,0.0,0.0,0.0,0.0,0.0,0.0,0.0,0.0,0.0,0.0,0.0,0.0,0.0,0.0,0.0,0.0,0.0,0.0,0.0,0.0,0.0,0.0,0.0,0.0,0.0,0.0,0.0,0.0,0.0,0.0,0.0,0.0,0.0,0.0,0.0,0.0,0.0,0.0,0.0,0.0,0.0,0.0,0.0,0.0,0.0,0.0,0.0,0.0,0.0,0.0,0.0,0.0,0.0,0.0,0.0,0.0,0.0,0.0,0.0,0.0,0.0,0.0,0.0,0.0,0.0,0.0,0.0,0.0,0.0,0.0,0.0,0.0,0.0,0.0,0.0,0.0,0.0,0.0,0.0,0.0,0.0,0.0,0.0,0.0,0.0,0.0,0.0,0.0,0.0,0.0,0.0,0.0,0.0,0.0,0.0,0.0,0.0,0.0,0.0,0.0,0.0,0.0,0.0,0.0,0.0,0.0,0.0,0.0,0.0,0.0,0.0,0.0,0.0,0.0,0.0,0.0,0.0,0.0,0.0,0.0,0.0,0.0,0.0,0.0,0.0,0.0,0.0,0.0,0.0,0.0,0.0,0.0,0.0,0.0,0.0,0.0,0.0,0.0,0.0,0.0,0.0,0.0,0.0,0.0,0.0,0.0,0.0,0.0,0.0,0.0,0.0,0.0,0.0,0.0,0.0,0.0,0.0,0.0,0.0,0.0,0.0,0.0,0.0,0.0,0.0,0.0,0.0,0.0,0.0,0.0,0.0,0.0,0.0,0.0,0.0,0.0,0.0,0.0,0.0,0.0,0.0,0.0,0.0,0.0,0.0,0.0,0.0,0.0,0.0,0.0,0.0,0.0,0.0,0.0,0.0,0.0,0.0,0.0,0.0,0.0,0.0,0.0,0.0,0.0,0.0,0.0,0.0,0.0,0.0,0.0,0.0,0.0,0.0,0.0,0.0,0.0,0.0,0.0,0.0,0.0,0.0,0.0,0.0,0.0,0.0,0.0,0.0,0.0,0.0,0.0,0.0,0.0,0.0,0.0,0.0,0.0,0.0,0.0,0.0,0.0,0.0,0.0,0.0,0.0,0.0,0.0,0.0,0.0,0.0,0.0,0.0,0.0,0.0,0.0,0.0,0.0,0.0,0.0,0.0,0.0,0.0,0.0,0.0,0.0,0.0,0.0,0.0,0.0,0.0,0.0,0.0,0.0,0.0,0.0,0.0,0.0,0.0,0.0,0.0,0.0,0.0,0.0,0.0,0.0,0.0,0.0,0.0,0.0,0.0,0.0,0.0,0.0,0.0,0.0,0.0,0.0,0.0,0.0,0.0,0.0,0.0,0.0,0.0,0.0,0.0,0.0,0.0,0.0,0.0,0.0,0.0,0.0,0.0,0.0,0.0,0.0,0.0,0.0,0.0,0.0,0.0,0.0,0.0,0.0,0.0,0.0,0.0,0.0,0.0,0.0,0.0,0.0,0.0,0.0,0.0,0.0,0.0,0.0,0.0,0.0,0.0,0.0,0.0,0.0,0.0,0.0,0.0,0.0,0.0,0.0,0.0,0.0,0.0,0.0,0.0,0.0,0.0,0.0,0.0,0.0,0.0,0.0,0.0,0.0,0.0,0.0,0.0,0.0,0.0,0.0,0.0,0.0,0.0,0.0,0.0,0.0,0.0,0.0,0.0,0.0,0.0,0.0,0.0,0.0,0.0,0.0,0.0,0.0,0.0,0.0,0.0,0.0,0.0,0.0,0.0,0.0,0.0,0.0,0.0,0.0,0.0,0.0,0.0,0.0,0.0,0.0,0.0,0.0,0.0,0.0,0.0,0.0,0.0,0.0,0.0,0.0,0.0,0.0,0.0,0.0,0.0,0.0,0.0,0.0,0.0,0.0,0.0,0.0,0.0,0.0,0.0,0.0,0.0,0.0,0.0,0.0,0.0,0.0,0.0,0.0,0.0,0.0,0.0,0.0,0.0,0.0,0.0,0.0,0.0,0.0,0.0,0.0,0.0,0.0,0.0,0.0,0.0,0.0,0.0,0.0,0.0,0.0,0.0,0.0,0.0,0.0,0.0,0.0,0.0,0.0,0.0,0.0,0.0,0.0,0.0,0.0,0.0,0.0,0.0,0.0,0.0,0.0,0.0,0.0,0.0,0.0,0.0,0.0,0.0,0.0,0.0,0.0,0.0,0.0,0.0,0.0,0.0,0.0,0.0,0.0,0.0,0.0,0.0,0.0,0.0,0.0,0.0,0.0,0.0,0.0,0.0,0.0,0.0,0.0,0.0,0.0,0.0,0.0,0.0,0.0,0.0,0.0,0.0,0.0,0.0,0.0,0.0,0.0,0.0,0.0,0.0,0.0,0.0,0.0,0.0,0.0,0.0,0.0,0.0,0.0,0.0,0.0,0.0,0.0,0.0,1.4714,0.0,0.0,0.0,0.0,0.0,0.0,0.0,0.0,0.0,0.0,0.0,0.0,0.0,0.0,0.0,0.0,0.0,0.0,0.0,0.0,0.0,0.0,0.0,0.0,0.0,0.0,0.0,0.0,0.0,0.0,0.0,0.0,0.0,0.0,0.0,0.0,0.0,0.0,0.0,0.0,0.0,0.0,0.0,0.0,0.0,0.0,0.0,0.0,0.0,0.0,0.0,0.0,0.0,0.0,0.0,0.0,0.0,0.0,0.0,0.0,0.0,0.0,0.0,0.0,0.0,0.0,0.0,0.0,0.0,0.0,0.0,0.0,0.0,0.0,0.0,0.0,0.0,0.0,0.0,0.0,0.0,0.0,0.0,0.0,0.0,0.0,0.0,0.0,0.0,0.0,0.0,0.0,0.0,0.0,0.0,0.0,0.0,0.0,0.0,0.0,0.0,0.0,0.0,0.0,0.0,0.0,0.0,0.0,0.0,0.0,1.4921,1.4859,1.4766,1.4736,1.4712,0.0,0.0,0.0,0.0,0.0,0.0,0.0,0.0,0.0,0.0,0.0,0.0,0.0,0.0,0.0,0.0,0.0,0.0,0.0,0.0,0.0,0.0,0.0,0.0,0.0,0.0,0.0,0.0,0.0,0.0,0.0,0.0,0.0,0.0,0.0,0.0,0.0,0.0,0.0,0.0,0.0,0.0,0.0,0.0,0.0,0.0,0.0,0.0,0.0,0.0,0.0,0.0,0.0,0.0,0.0,0.0,0.0,0.0,0.0,0.0,0.0,0.0,0.0,0.0,0.0,0.0,0.0,0.0,0.0,0.0,0.0,0.0,0.0,0.0,0.0,0.0,0.0,0.0,0.0,0.0,0.0,0.0,0.0,0.0,0.0,0.0,0.0,0.0,0.0,0.0,0.0,0.0,0.0,0.0,0.0,0.0,0.0,0.0,0.0,0.0,0.0,0.0,0.0,0.0,0.0,0.0,0.0,0.0,0.0,0.0,0.0,0.0,1.4727,1.4685,1.4651,0.0,0.0,0.0,0.0,0.0,0.0,0.0,0.0,0.0,0.0,0.0,0.0,0.0,0.0,0.0,0.0,0.0,0.0,0.0,0.0,0.0,0.0,0.0,0.0,0.0,0.0,0.0,0.0,0.0,0.0,0.0,0.0,0.0,0.0,0.0,0.0,0.0,0.0,0.0,0.0,0.0,0.0,0.0,0.0,0.0,0.0,0.0,0.0,0.0,0.0,0.0,0.0,0.0,0.0,0.0,0.0,0.0,0.0,0.0,0.0,0.0,0.0,0.0,0.0,0.0,0.0,0.0,0.0,0.0,0.0,0.0,0.0,0.0,0.0,0.0,0.0,0.0,0.0,0.0,0.0,0.0,0.0,0.0,0.0,0.0,0.0,0.0,0.0,0.0,0.0,0.0,0.0,0.0,0.0,0.0,0.0,0.0,0.0,0.0,0.0,0.0,0.0,0.0,0.0,0.0,0.0,0.0,0.0,0.0,0.0,1.4794,1.4794,1.4734,0.0,1.4522,0.0,0.0,0.0,0.0,0.0,0.0,0.0,0.0,0.0,0.0,0.0,0.0,0.0,0.0,0.0,0.0,0.0,0.0,0.0,0.0,0.0,0.0,0.0,0.0,0.0,0.0,0.0,0.0,0.0,0.0,0.0,0.0,0.0,0.0,0.0,0.0,0.0,0.0,0.0,0.0,0.0,0.0,0.0,0.0,0.0,0.0,0.0,0.0,0.0,0.0,0.0,0.0,0.0,0.0,0.0,0.0,0.0,0.0,0.0,0.0,0.0,0.0,0.0,0.0,0.0,0.0,0.0,0.0,0.0,0.0,0.0,0.0,0.0,0.0,0.0,0.0,0.0,0.0,0.0,0.0,0.0,0.0,0.0,0.0,0.0,0.0,0.0,0.0,0.0,0.0,0.0,0.0,0.0,0.0,0.0,0.0,0.0,0.0,0.0,0.0,0.0,0.0,0.0,0.0,0.0,0.0,0.0,0.0,0.0,0.0,1.4766,1.4697,1.4622,1.4533,0.0,0.0,0.0,0.0,0.0,0.0,0.0,0.0,0.0,0.0,0.0,0.0,0.0,0.0,0.0,0.0,0.0,0.0,0.0,0.0,0.0,0.0,0.0,0.0,0.0,0.0,0.0,0.0,0.0,0.0,0.0,0.0,0.0,0.0,0.0,0.0,0.0,0.0,0.0,0.0,0.0,0.0,0.0,0.0,0.0,0.0,0.0,0.0,0.0,0.0,0.0,0.0,0.0,0.0,0.0,0.0,0.0,0.0,0.0,0.0,0.0,0.0,0.0,0.0,0.0,0.0,0.0,0.0,0.0,0.0,0.0,0.0,0.0,0.0,0.0,0.0,0.0,0.0,0.0,0.0,0.0,0.0,0.0,0.0,0.0,0.0,0.0,0.0,0.0,0.0,0.0,0.0,0.0,0.0,0.0,0.0,0.0,0.0,0.0,0.0,0.0,0.0,0.0,0.0,0.0,0.0,0.0,0.0,0.0,0.0,1.4813,1.4707,1.4574,1.4533,1.4464,1.4362,0.0,0.0,0.0,0.0,0.0,0.0,0.0,0.0,0.0,0.0,0.0,0.0,0.0,0.0,0.0,0.0,0.0,0.0,0.0,0.0,0.0,0.0,0.0,0.0,0.0,0.0,0.0,0.0,0.0,0.0,0.0,0.0,0.0,0.0,0.0,0.0,0.0,0.0,0.0,0.0,0.0,0.0,0.0,0.0,0.0,0.0,0.0,0.0,0.0,0.0,0.0,0.0,0.0,0.0,0.0,0.0,0.0,0.0,0.0,0.0,0.0,0.0,0.0,0.0,0.0,0.0,0.0,0.0,0.0,0.0,0.0,0.0,0.0,0.0,0.0,0.0,0.0,0.0,0.0,0.0,0.0,0.0,0.0,0.0,0.0,0.0,0.0,0.0,0.0,0.0,0.0,0.0,0.0,0.0,0.0,0.0,0.0,0.0,0.0,0.0,0.0,0.0,0.0,0.0,0.0,0.0,0.0,0.0,1.4887,1.4761,1.464,1.4511,1.4499,1.4429,0.0,0.0,0.0,0.0,0.0,0.0,0.0,0.0,0.0,0.0,0.0,0.0,0.0,0.0,0.0,0.0,0.0,0.0,0.0,0.0,0.0,0.0,0.0,0.0,0.0,0.0,0.0,0.0,0.0,0.0,0.0,0.0,0.0,0.0,0.0,0.0,0.0,0.0,0.0,0.0,0.0,0.0,0.0,0.0,0.0,0.0,0.0,0.0,0.0,0.0,0.0,0.0,0.0,0.0,0.0,0.0,0.0,0.0,0.0,0.0,0.0,0.0,0.0,0.0,0.0,0.0,0.0,0.0,0.0,0.0,0.0,0.0,0.0,0.0,0.0,0.0,0.0,0.0,0.0,0.0,0.0,0.0,0.0,0.0,0.0,0.0,0.0,0.0,0.0,0.0,0.0,0.0,0.0,0.0,0.0,0.0,0.0,0.0,0.0,0.0,0.0,0.0,0.0,0.0,0.0,0.0,0.0,0.0,0.0,1.4825,1.4618,1.4504,1.4494,1.4405,1.4344,0.0,0.0,0.0,0.0,0.0,0.0,0.0,0.0,0.0,0.0,0.0,0.0,0.0,0.0,0.0,0.0,0.0,0.0,0.0,0.0,0.0,0.0,0.0,0.0,0.0,0.0,0.0,0.0,0.0,0.0,0.0,0.0,0.0,0.0,0.0,0.0,0.0,0.0,0.0,0.0,0.0,0.0,0.0,0.0,0.0,0.0,0.0,0.0,0.0,0.0,0.0,0.0,0.0,0.0,0.0,0.0,0.0,0.0,0.0,0.0,0.0,0.0,0.0,0.0,0.0,0.0,0.0,0.0,0.0,0.0,0.0,0.0,0.0,0.0,0.0,0.0,0.0,0.0,0.0,0.0,0.0,0.0,0.0,0.0,0.0,0.0,0.0,0.0,0.0,0.0,0.0,0.0,0.0,0.0,0.0,0.0,0.0,0.0,0.0,0.0,0.0,0.0,0.0,0.0,0.0,0.0,0.0,0.0,0.0,1.5039,0.0,1.5062,1.4824,1.473,1.4552,0.0,0.0,0.0,0.0,0.0,0.0,0.0,0.0,0.0,0.0,0.0,0.0,0.0,0.0,0.0,0.0,0.0,0.0,0.0,0.0,0.0,0.0,0.0,0.0,0.0,0.0,0.0,0.0,0.0,0.0,0.0,0.0,0.0,0.0,0.0,0.0,0.0,0.0,0.0,0.0,0.0,0.0,0.0,0.0,0.0,0.0,0.0,0.0,0.0,0.0,0.0,0.0,0.0,0.0,0.0,0.0,0.0,0.0,0.0,0.0,0.0,0.0,0.0,0.0,0.0,0.0,0.0,0.0,0.0,0.0,0.0,0.0,0.0,0.0,0.0,0.0,0.0,0.0,0.0,0.0,0.0,0.0,0.0,0.0,0.0,0.0,0.0,0.0,0.0,0.0,0.0,0.0,0.0,0.0,0.0,0.0,0.0,0.0,0.0,0.0,0.0,0.0,0.0,0.0,0.0,0.0,0.0,0.0,1.4968,1.5592,1.6303,1.6269,1.5574,1.5488,1.5085,0.0,0.0,0.0,0.0,0.0,0.0,0.0,0.0,0.0,0.0,0.0,0.0,0.0,0.0,0.0,0.0,0.0,0.0,0.0,0.0,0.0,0.0,0.0,0.0,0.0,0.0,0.0,0.0,0.0,0.0,0.0,0.0,0.0,0.0,0.0,0.0,0.0,0.0,0.0,0.0,0.0,0.0,0.0,0.0,0.0,0.0,0.0,0.0,0.0,0.0,0.0,0.0,0.0,0.0,0.0,0.0,0.0,0.0,0.0,0.0,0.0,0.0,0.0,0.0,0.0,0.0,0.0,0.0,0.0,0.0,0.0,0.0,0.0,0.0,0.0,0.0,0.0,0.0,0.0,0.0,0.0,0.0,0.0,0.0,0.0,0.0,0.0,0.0,0.0,0.0,0.0,0.0,0.0,0.0,0.0,0.0,0.0,0.0,0.0,0.0,0.0,0.0,0.0,0.0,0.0,0.0,0.0,0.0,0.0,1.6298,1.678,1.6965,1.6793,1.5854,1.5307,0.0,0.0,0.0,0.0,0.0,0.0,0.0,0.0,0.0,0.0,0.0,0.0,0.0,0.0,0.0,0.0,0.0,0.0,0.0,0.0,0.0,0.0,0.0,0.0,0.0,0.0,0.0,0.0,0.0,0.0,0.0,0.0,0.0,0.0,0.0,0.0,0.0,0.0,0.0,0.0,0.0,0.0,0.0,0.0,0.0,0.0,0.0,0.0,0.0,0.0,0.0,0.0,0.0,0.0,0.0,0.0,0.0,0.0,0.0,0.0,0.0,0.0,0.0,0.0,0.0,0.0,0.0,0.0,0.0,0.0,0.0,0.0,0.0,0.0,0.0,0.0,0.0,0.0,0.0,0.0,0.0,0.0,0.0,0.0,0.0,0.0,0.0,0.0,0.0,0.0,0.0,0.0,0.0,0.0,0.0,0.0,0.0,0.0,0.0,0.0,0.0,0.0,0.0,0.0,0.0,0.0,0.0,0.0,0.0,1.7291,1.7568,1.7651,1.7489,1.6604,1.5946,1.5467,0.0,0.0,0.0,0.0,0.0,0.0,0.0,0.0,0.0,0.0,0.0,0.0,0.0,0.0,0.0,0.0,0.0,0.0,0.0,0.0,0.0,0.0,0.0,0.0,0.0,0.0,0.0,0.0,0.0,0.0,0.0,0.0,0.0,0.0,0.0,0.0,0.0,0.0,0.0,0.0,0.0,0.0,0.0,0.0,0.0,0.0,0.0,0.0,0.0,0.0,0.0,0.0,0.0,0.0,0.0,0.0,0.0,0.0,0.0,0.0,0.0,0.0,0.0,0.0,0.0,0.0,0.0,0.0,0.0,0.0,0.0,0.0,0.0,0.0,0.0,0.0,0.0,0.0,0.0,0.0,0.0,0.0,0.0,0.0,0.0,0.0,0.0,0.0,0.0,0.0,0.0,0.0,0.0,0.0,0.0,0.0,0.0,0.0,0.0,0.0,0.0,0.0,0.0,0.0,0.0,0.0,0.0,0.0,1.8365,1.85,1.827,1.7682,1.7593,1.6863,0.0,0.0,0.0,0.0,0.0,0.0,0.0,0.0,0.0,0.0,0.0,0.0,0.0,0.0,0.0,0.0,0.0,0.0,0.0,0.0,0.0,0.0,0.0,0.0,0.0,0.0,0.0,0.0,0.0,0.0,0.0,0.0,0.0,0.0,0.0,0.0,0.0,0.0,0.0,0.0,0.0,0.0,0.0,0.0,0.0,0.0,0.0,0.0,0.0,0.0,0.0,0.0,0.0,0.0,0.0,0.0,0.0,0.0,0.0,0.0,0.0,0.0,0.0,0.0,0.0,0.0,0.0,0.0,0.0,0.0,0.0,0.0,0.0,0.0,0.0,0.0,0.0,0.0,0.0,0.0,0.0,0.0,0.0,0.0,0.0,0.0,0.0,0.0,0.0,0.0,0.0,0.0,0.0,0.0,0.0,0.0,0.0,0.0,0.0,0.0,0.0,0.0,0.0,0.0,0.0,0.0,0.0,0.0,0.0,1.8078,1.8166,1.8226,1.8301,1.7772,1.7223,0.0,0.0,0.0,0.0,0.0,0.0,0.0,0.0,0.0,0.0,0.0,0.0,0.0,0.0,0.0,0.0,0.0,0.0,0.0,0.0,0.0,0.0,0.0,0.0,0.0,0.0,0.0,0.0,0.0,0.0,0.0,0.0,0.0,0.0,0.0,0.0,0.0,0.0,0.0,0.0,0.0,0.0,0.0,0.0,0.0,0.0,0.0,0.0,0.0,0.0,0.0,0.0,0.0,0.0,0.0,0.0,0.0,0.0,0.0,0.0,0.0,0.0,0.0,0.0,0.0,0.0,0.0,0.0,0.0,0.0,0.0,0.0,0.0,0.0,0.0,0.0,0.0,0.0,0.0,0.0,0.0,0.0,0.0,0.0,0.0,0.0,0.0,0.0,0.0,0.0,0.0,0.0,0.0,0.0,0.0,0.0,0.0,0.0,0.0,0.0,0.0,0.0,0.0,0.0,0.0,0.0,0.0,0.0,1.7327,1.8198,1.7895,1.7922,1.826,1.7949,1.7605,0.0,0.0,0.0,0.0,0.0,0.0,0.0,0.0,0.0,0.0,0.0,0.0,0.0,0.0,0.0,0.0,0.0,0.0,0.0,0.0,0.0,0.0,0.0,0.0,0.0,0.0,0.0,0.0,0.0,0.0,0.0,0.0,0.0,0.0,0.0,0.0,0.0,0.0,0.0,0.0,0.0,0.0,0.0,0.0,0.0,0.0,0.0,0.0,0.0,0.0,0.0,0.0,0.0,0.0,0.0,0.0,0.0,0.0,0.0,0.0,0.0,0.0,0.0,0.0,0.0,0.0,0.0,0.0,0.0,0.0,0.0,0.0,0.0,0.0,0.0,0.0,0.0,0.0,0.0,0.0,0.0,0.0,0.0,0.0,0.0,0.0,0.0,0.0,0.0,0.0,0.0,0.0,0.0,0.0,0.0,0.0,0.0,0.0,0.0,0.0,0.0,0.0,0.0,0.0,0.0,0.0,0.0,0.0,1.7527,1.8251,1.7683,1.7455,1.7721,1.8061,1.7916,0.0,0.0,0.0,0.0,0.0,0.0,0.0,0.0,0.0,0.0,0.0,0.0,0.0,0.0,0.0,0.0,0.0,0.0,0.0,0.0,0.0,0.0,0.0,0.0,0.0,0.0,0.0,0.0,0.0,0.0,0.0,0.0,0.0,0.0,0.0,0.0,0.0,0.0,0.0,0.0,0.0,0.0,0.0,0.0,0.0,0.0,0.0,0.0,0.0,0.0,0.0,0.0,0.0,0.0,0.0,0.0,0.0,0.0,0.0,0.0,0.0,0.0,0.0,0.0,0.0,0.0,0.0,0.0,0.0,0.0,0.0,0.0,0.0,0.0,0.0,0.0,0.0,0.0,0.0,0.0,0.0,0.0,0.0,0.0,0.0,0.0,0.0,0.0,0.0,0.0,0.0,0.0,0.0,0.0,0.0,0.0,0.0,0.0,0.0,0.0,0.0,0.0,0.0,0.0,0.0,0.0,0.0,0.0,1.6785,1.7059,1.6981,1.6993,1.7167,1.771,1.7924,0.0,0.0,0.0,0.0,0.0,0.0,0.0,0.0,0.0,0.0,0.0,0.0,0.0,0.0,0.0,0.0,0.0,0.0,0.0,0.0,0.0,0.0,0.0,0.0,0.0,0.0,0.0,0.0,0.0,0.0,0.0,0.0,0.0,0.0,0.0,0.0,0.0,0.0,0.0,0.0,0.0,0.0,0.0,0.0,0.0,0.0,0.0,0.0,0.7487,0.0,0.0,0.0,0.0,0.0,0.0,0.0,0.0,0.0,0.0,0.0,0.0,0.0,0.0,0.0,0.0,0.0,0.0,0.0,0.0,0.0,0.0,0.0,0.0,0.0,0.0,0.0,0.0,0.0,0.0,0.0,0.0,0.0,0.0,0.0,0.0,0.0,0.0,0.0,0.0,0.0,0.0,0.0,0.0,0.0,0.0,0.0,0.0,0.0,0.0,0.0,0.0,0.0,0.0,0.0,0.0,0.0,0.0,0.0,1.6719,1.7184,1.6962,1.7019,1.7401,1.7304,1.7368,0.0,0.0,0.0,0.0,0.0,0.0,0.0,0.0,0.0,0.0,0.0,0.0,0.0,0.0,0.0,0.0,0.0,0.0,0.0,0.0,0.0,0.0,0.0,0.0,0.0,0.0,0.0,0.0,0.0,0.0,0.0,0.0,0.0,0.0,0.0,0.0,0.0,0.0,0.0,0.0,0.0,0.0,0.0,0.0,0.0,0.0,0.0,0.0,0.0,0.0,0.0,0.0,0.0,0.0,0.0,0.0,0.0,0.0,0.0,0.0,0.0,0.0,0.0,0.0,0.0,0.0,0.0,0.0,0.0,0.0,0.0,0.0,0.0,0.0,0.0,0.0,0.0,0.0,0.0,0.0,0.0,0.0,0.0,0.0,0.0,0.0,0.0,0.0,0.0,0.0,0.0,0.0,0.0,0.0,0.0,0.0,0.0,0.0,0.0,0.0,0.0,0.0,0.0,0.0,0.0,0.0,0.0,1.6398,1.6802,1.756,1.7146,1.7152,1.7706,1.6977,1.6723,1.7028,0.0,0.0,0.0,0.0,0.0,0.0,0.0,0.0,0.0,0.0,0.0,0.0,0.0,0.0,0.0,0.0,0.0,0.0,0.0,0.0,0.0,0.0,0.0,0.0,0.0,0.0,0.0,0.0,0.0,0.0,0.0,0.0,0.0,0.0,0.0,0.0,0.0,0.0,0.7825,0.7833,0.0,0.0,0.0,0.0,0.0,0.0,0.0,0.0,0.7291,0.0,0.0,0.0,0.0,0.0,0.0,0.0,0.0,0.0,0.0,0.0,0.0,0.0,0.0,0.0,0.0,0.0,0.0,0.0,0.0,0.0,0.0,0.0,0.0,0.0,0.0,0.0,0.0,0.0,0.0,0.0,0.0,0.0,0.0,0.0,0.0,0.0,0.0,0.0,0.0,0.0,0.0,0.0,0.0,0.0,0.0,0.0,0.0,0.0,0.0,0.0,0.0,0.0,0.0,0.0,0.0,1.5318,1.5827,1.6292,1.6787,1.6832,1.6884,1.7073,1.6961,1.6622,1.5973,0.0,0.0,0.0,0.0,0.0,0.0,0.0,0.0,0.0,0.0,0.0,0.0,0.0,0.0,0.0,0.0,0.0,0.0,0.0,0.0,0.0,0.0,0.0,0.0,0.0,0.0,0.0,0.0,0.0,0.0,0.0,0.0,0.0,0.0,0.0,0.0,0.0,0.0,0.0,0.7931,0.7938,0.0,0.0,0.0,0.0,0.0,0.0,0.0,0.0,0.6519,0.0,0.0,0.0,0.0,0.0,0.0,0.0,0.0,0.0,0.0,0.0,0.0,0.0,0.0,0.0,0.0,0.0,0.0,0.0,0.0,0.0,0.0,0.0,0.0,0.0,0.0,0.0,0.0,0.0,0.0,0.0,0.0,0.0,0.0,0.0,0.0,0.0,0.0,0.0,0.0,0.0,0.0,0.0,0.0,0.0,0.0,0.0,0.0,0.0,0.0,0.0,0.0,0.0,0.0,0.0,1.443,1.5184,1.5878,1.642,1.6596,1.6976,1.7679,1.6752,1.6182,0.0,0.0,0.0,0.0,0.0,0.0,0.0,0.0,0.0,0.0,0.0,0.0,0.0,0.0,0.0,0.0,0.0,0.0,0.0,0.0,0.0,0.0,0.0,0.0,0.0,0.0,0.0,0.0,0.0,0.0,0.0,0.0,0.0,0.0,0.0,0.0,0.0,0.0,0.0,0.0,0.7853,0.7695,0.7478,0.0,0.0,0.0,0.0,0.0,0.0,0.6088,0.6064,0.0,0.0,0.0,0.0,0.0,0.0,0.0,0.0,0.0,0.0,0.0,0.0,0.0,0.0,0.0,0.0,0.0,0.0,0.0,0.0,0.0,0.0,0.0,0.0,0.0,0.0,0.0,0.0,0.0,0.0,0.0,0.0,0.0,0.0,0.0,0.0,0.0,0.0,0.0,0.0,0.0,0.0,0.0,0.0,0.0,0.0,0.0,0.0,0.0,0.0,0.0,0.0,0.0,0.0,0.0,1.3701,1.4611,1.5424,1.6107,1.6334,1.7009,1.8142,1.6545,1.5662,0.0,0.0,0.0,0.0,0.0,0.0,0.0,0.0,0.0,0.0,0.0,0.0,0.0,0.0,0.0,0.0,0.0,0.0,0.0,0.0,0.0,0.0,0.0,0.0,0.0,0.0,0.0,0.0,0.0,0.0,0.0,0.0,0.0,0.0,0.0,0.0,0.0,0.0,0.0,0.0,0.0,0.73,0.6935,0.6732,0.0,0.0,0.0,0.0,0.5494,0.5626,0.0,0.0,0.0,0.0,0.0,0.0,0.0,0.0,0.0,0.0,0.0,0.0,0.0,0.0,0.0,0.0,0.0,0.0,0.0,0.0,0.0,0.0,0.0,0.0,0.0,0.0,0.0,0.0,0.0,0.0,0.0,0.0,0.0,0.0,0.0,0.0,0.0,0.0,0.0,0.0,0.0,0.0,0.0,0.0,0.0,0.0,0.0,0.0,0.0,0.0,0.0,0.0,0.0,0.0,0.0,0.0,1.3367,1.4222,1.4981,1.5632,1.596,1.6557,1.7303,1.6573,1.5324,0.0,0.0,0.0,0.0,0.0,0.0,0.0,0.0,0.0,0.0,0.0,0.0,0.0,0.0,0.0,0.0,0.0,0.0,0.0,0.0,0.0,0.0,0.0,0.0,0.0,0.0,0.0,0.0,0.0,0.0,0.0,0.0,0.0,0.0,0.0,0.0,0.0,0.0,0.0,0.0,0.0,0.6807,0.6492,0.6171,0.5987,0.0,0.0,0.5343,0.5309,0.5328,0.0,0.0,0.0,0.0,0.0,0.0,0.0,0.0,0.0,0.0,0.0,0.0,0.0,0.0,0.0,0.0,0.0,0.0,0.0,0.0,0.0,0.0,0.0,0.0,0.0,0.0,0.0,0.0,0.0,0.0,0.0,0.0,0.0,0.0,0.0,0.0,0.0,0.0,0.0,0.0,0.0,0.0,0.0,0.0,0.0,0.0,0.0,0.0,0.0,0.0,0.0,0.0,0.0,0.0,0.0,1.2013,1.2531,1.3379,1.4105,1.4755,1.5084,1.5644,1.6374,1.5652,1.4284,0.0,0.0,0.0,0.0,0.0,0.0,0.0,0.0,0.0,0.0,0.0,0.0,0.0,0.0,0.0,0.0,0.0,0.0,0.0,0.0,0.0,0.0,0.0,0.0,0.0,0.0,0.0,0.0,0.0,0.0,0.0,0.0,0.0,0.0,0.0,0.0,0.0,0.0,0.0,0.0,0.0,0.0,0.6192,0.5926,0.0,0.0,0.0,0.4985,0.4944,0.0,0.0,0.0,0.0,0.0,0.0,0.0,0.0,0.0,0.0,0.0,0.0,0.0,0.0,0.0,0.0,0.0,0.0,0.0,0.0,0.0,0.0,0.0,0.0,0.0,0.0,0.0,0.0,0.0,0.0,0.0,0.0,0.0,0.0,0.0,0.0,0.0,0.0,0.0,0.0,0.0,0.0,0.0,0.0,0.0,0.0,0.0,0.0,0.0,0.0,0.0,0.0,0.0,0.0,0.0,0.0,0.0,1.1787,1.2473,1.319,1.3826,1.4107,1.4649,1.5429,1.4516,0.0,0.0,0.0,0.0,0.0,0.0,0.0,0.0,0.0,0.0,0.0,0.0,0.0,0.0,0.0,0.0,0.0,0.0,0.0,0.0,0.0,0.0,0.0,0.0,0.0,0.0,0.0,0.4959,0.0,0.0,0.0,0.0,0.0,0.0,0.0,0.0,0.0,0.0,0.0,0.0,0.0,0.0,0.6116,0.5846,0.5618,0.5344,0.0,0.0,0.4684,0.4577,0.4684,0.4682,0.0,0.0,0.0,0.0,0.0,0.0,0.0,0.0,0.0,0.0,0.0,0.0,0.0,0.0,0.0,0.0,0.0,0.0,0.0,0.0,0.0,0.0,0.0,0.0,0.0,0.0,0.0,0.0,0.0,0.0,0.0,0.0,0.0,0.0,0.0,0.0,0.0,0.0,0.0,0.0,0.0,0.0,0.0,0.0,0.0,0.0,0.0,0.0,0.0,0.0,0.0,0.0,0.0,0.0,0.0,1.1397,1.1752,1.2328,1.3143,1.3152,1.3549,1.4425,1.3351,1.2198,0.0,0.0,0.0,0.0,0.0,0.0,0.0,0.0,0.0,0.0,0.0,0.0,0.0,0.0,0.0,0.0,0.0,0.0,0.0,0.0,0.0,0.0,0.0,0.0,0.0,0.0,0.0,0.0,0.0,0.0,0.0,0.0,0.0,0.0,0.0,0.0,0.0,0.0,0.0,0.0,0.0,0.5706,0.5378,0.5128,0.4901,0.0,0.0,0.4249,0.4249,0.4249,0.42,0.4055,0.0,0.0,0.0,0.0,0.0,0.0,0.0,0.0,0.0,0.0,0.0,0.0,0.0,0.0,0.0,0.0,0.0,0.0,0.0,0.0,0.0,0.0,0.0,0.0,0.0,0.0,0.0,0.0,0.0,0.0,0.0,0.0,0.0,0.0,0.0,0.0,0.0,0.0,0.0,0.0,0.0,0.0,0.0,0.0,0.0,0.0,0.0,0.0,0.0,0.0,0.0,0.0,0.0,0.9752,1.0494,1.0908,1.1478,1.2081,1.2058,1.2469,1.3441,1.2512,1.1497,0.0,0.0,0.0,0.0,0.0,0.0,0.0,0.0,0.0,0.0,0.0,0.0,0.0,0.0,0.0,0.0,0.0,0.0,0.0,0.0,0.0,0.0,0.0,0.0,0.0,0.0,0.0,0.0,0.4602,0.4704,0.468,0.0,0.0,0.0,0.0,0.0,0.0,0.0,0.0,0.0,0.0,0.5307,0.4995,0.4794,0.0,0.0,0.4193,0.4079,0.4079,0.4021,0.3922,0.3952,0.3875,0.0,0.0,0.0,0.0,0.0,0.0,0.0,0.0,0.0,0.0,0.0,0.0,0.0,0.0,0.0,0.0,0.0,0.0,0.0,0.0,0.0,0.0,0.0,0.0,0.0,0.0,0.0,0.0,0.0,0.0,0.0,0.0,0.0,0.0,0.0,0.0,0.0,0.0,0.0,0.0,0.0,0.0,0.0,0.0,0.0,0.0,0.0,0.0,0.0,0.0,0.0,0.0,0.9197,0.9677,1.0167,1.0565,1.0904,1.0897,1.1116,1.1624,1.1217,1.0507,0.0,0.0,0.0,0.0,0.0,0.0,0.0,0.0,0.0,0.0,0.0,0.0,0.0,0.0,0.0,0.0,0.0,0.0,0.0,0.0,0.0,0.0,0.0,0.0,0.0,0.0,0.0,0.0,0.4249,0.4274,0.4318,0.0,0.0,0.0,0.0,0.0,0.0,0.0,0.0,0.0,0.0,0.4903,0.4629,0.4475,0.4291,0.4086,0.3913,0.3855,0.3802,0.366,0.3599,0.3624,0.0,0.0,0.0,0.0,0.0,0.0,0.0,0.0,0.0,0.0,0.0,0.0,0.0,0.0,0.0,0.0,0.0,0.0,0.0,0.0,0.0,0.0,0.0,0.0,0.0,0.0,0.0,0.0,0.0,0.0,0.2747,0.0,0.0,0.0,0.0,0.0,0.0,0.0,0.0,0.0,0.0,0.0,0.0,0.0,0.0,0.0,0.0,0.0,0.0,0.0,0.0,0.0,0.0,0.8616,0.9197,0.9354,0.9517,0.9614,0.9614,0.9422,0.8944,0.937,0.9183,0.8297,0.0,0.0,0.0,0.0,0.0,0.0,0.0,0.0,0.0,0.0,0.0,0.0,0.0,0.0,0.0,0.0,0.0,0.0,0.0,0.0,0.0,0.0,0.0,0.0,0.0,0.0,0.3757,0.3808,0.3811,0.0,0.0,0.0,0.0,0.0,0.0,0.0,0.0,0.0,0.0,0.4702,0.4564,0.4445,0.4158,0.3946,0.3825,0.3583,0.3416,0.3421,0.3163,0.2991,0.0,0.0,0.0,0.0,0.0,0.0,0.0,0.0,0.0,0.0,0.0,0.0,0.0,0.0,0.0,0.0,0.0,0.0,0.0,0.0,0.0,0.0,0.0,0.0,0.0,0.0,0.0,0.1937,0.203,0.0,0.0,0.0,0.0,0.0,0.0,0.0,0.0,0.0,0.0,0.0,0.2754,0.2756,0.0,0.0,0.0,0.0,0.0,0.0,0.0,0.0,0.0,0.0,0.0,0.0,0.7717,0.8283,0.8408,0.8508,0.8666,0.8784,0.8429,0.767,0.8252,0.8502,0.8342,0.0,0.0,0.0,0.0,0.0,0.0,0.0,0.0,0.0,0.0,0.0,0.0,0.0,0.0,0.0,0.0,0.0,0.0,0.0,0.0,0.0,0.0,0.0,0.0,0.0,0.3156,0.0,0.0,0.0,0.0,0.0,0.0,0.0,0.0,0.0,0.0,0.0,0.4258,0.4321,0.4273,0.412,0.3816,0.3696,0.35,0.0,0.0,0.0,0.0,0.0,0.0,0.0,0.0,0.0,0.0,0.0,0.0,0.0,0.0,0.3426,0.3273,0.3313,0.3368,0.3274,0.0,0.0,0.0,0.0,0.0,0.0,0.0,0.0,0.0,0.0,0.0,0.0,0.0,0.0,0.1211,0.0,0.1452,0.0,0.0,0.0,0.0,0.0,0.0,0.0,0.0,0.1842,0.1931,0.2143,0.2089,0.2261,0.0,0.2546,0.2934,0.0,0.0,0.0,0.0,0.0,0.0,0.0,0.0,0.7031,0.7467,0.7594,0.766,0.7744,0.7858,0.7578,0.6961,0.7433,0.7913,0.8208,0.6546,0.4938,0.0,0.0,0.0,0.0,0.0,0.0,0.0,0.0,0.0,0.0,0.0,0.0,0.0,0.0,0.0,0.0,0.0,0.0,0.0,0.0,0.0,0.0,0.0,0.2775,0.0,0.0,0.0,0.0,0.0,0.0,0.0,0.0,0.0,0.3581,0.3621,0.3658,0.3789,0.375,0.3564,0.3252,0.0,0.0,0.0,0.0,0.0,0.0,0.0,0.2081,0.2314,0.2241,0.2042,0.193,0.1968,0.2061,0.2041,0.0,0.0,0.2819,0.2925,0.2971,0.2833,0.267,0.2513,0.2461,0.2355,0.2249,0.0,0.0,0.0,0.0,0.0,0.0,0.0,0.0,-0.0055,0.0172,0.0,0.0607,0.0,0.0,0.0,0.0,0.0,0.1606,0.0,0.0,0.1276,0.1295,0.1415,0.1417,0.1542,0.1848,0.1906,0.209,0.2444,0.3248,0.0,0.0,0.0,0.0,0.0,0.0,0.6518,0.669,0.6992,0.7086,0.6892,0.6882,0.6773,0.6618,0.6856,0.7291,0.7724,0.5345,0.3798,0.3533,0.338,0.0,0.0,0.0,0.0,0.0,0.0,0.0,0.0,0.0,0.0,0.0,0.0,0.0,0.0,0.0,0.0,0.0,0.0,0.0,0.0,0.2499,0.0,0.0,0.0,0.0,0.0,0.0,0.0,0.0,0.0,0.0,0.3008,0.3084,0.3117,0.3211,0.0,0.0,0.0,0.0,0.2488,0.2113,0.1978,0.1918,0.1918,0.1773,0.1743,0.1937,0.0,0.0,0.1426,0.1357,0.1347,0.1372,0.1613,0.1897,0.2604,0.2755,0.2729,0.2544,0.2303,0.2189,0.2191,0.2133,0.2133,-0.2575,0.0,0.0,0.0,0.0,-0.1785,-0.167,-0.1422,-0.1076,-0.0904,-0.085,-0.0538,0.0,0.0,0.0,0.0,0.0,0.0,0.0731,0.067,0.0923,0.1112,0.111,0.1112,0.1235,0.1482,0.1543,0.1665,0.1907,0.2376,0.3031,0.3729,0.0,0.0,0.0,0.0,0.5767,0.5992,0.6237,0.6387,0.6401,0.6397,0.6366,0.6294,0.5958,0.6084,0.6653,0.4365,0.2817,0.2327,0.2469,0.0,0.0,0.0,0.0,0.0,0.0,0.0,0.0,0.0,0.0,0.0,0.0,0.0,0.0,0.0,0.0,0.0,0.0,0.0,0.1655,0.185,0.1961,0.0,0.0,0.0,0.0,0.0,0.0,0.0,0.0,0.0,0.1631,0.2023,0.2381,0.0,0.0,0.2593,0.2394,0.2326,0.2186,0.1775,0.0,0.0,0.0,0.1455,0.1265,0.1332,0.0871,0.0671,0.1133,0.1197,0.1194,0.1182,0.1445,0.169,0.1831,0.2034,0.2123,0.2045,0.198,0.186,0.186,0.1741,0.1621,-0.4205,-0.3692,-0.3373,-0.3203,-0.3079,-0.2929,-0.2678,-0.2403,-0.1971,-0.1798,-0.1691,-0.1363,-0.1055,-0.0879,-0.0314,0.0,0.0,0.0,0.0191,0.0126,0.0446,0.064,0.0768,0.0768,0.096,0.1215,0.1279,0.1406,0.1596,0.1851,0.2297,0.2929,0.0,0.0,0.4556,0.4872,0.5154,0.5461,0.5649,0.5744,0.5736,0.5613,0.5472,0.5321,0.5085,0.4928,0.4779,0.3209,0.2198,0.1824,0.1968,0.1873,0.0,0.0,0.0,0.0,0.0,0.0,0.0,0.0,0.0,0.0,0.0,0.1535,0.0,0.0,0.0,0.0,0.1483,0.1413,0.1385,0.16,0.0,0.0,0.0,0.0,0.0,0.0,0.0,0.169,0.1595,0.1425,0.1048,0.1378,0.1717,0.1947,0.2085,0.2085,0.1816,0.0,0.1615,0.1211,0.1144,0.1145,0.1144,0.101,0.0945,0.108,0.0472,0.0135,0.0539,0.0741,0.0942,0.1076,0.1279,0.1406,0.1316,0.1487,0.1583,0.1674,0.1603,0.1603,0.1603,0.1543,0.1482,-0.5512,-0.5446,-0.4758,-0.4226,-0.3912,-0.3824,-0.3558,-0.3226,-0.2855,-0.2523,-0.2194,-0.1884,-0.1702,-0.1486,-0.0775,0.0,-0.0187,-0.0132,-0.0266,-0.0454,-0.02,0.0067,0.0337,0.0404,0.0674,0.1009,0.1008,0.1143,0.1344,0.1479,0.1614,0.188,0.2806,0.352,0.3998,0.4385,0.4699,0.5017,0.5223,0.5222,0.5024,0.4706,0.4329,0.3886,0.42,0.3886,0.2703,0.2096,0.1712,0.165,0.1666,0.1395,0.0811,0.0,0.0,0.0,0.0,0.0,0.0,0.0,0.0,0.0,0.0,0.0,0.0,0.0,0.0,0.0,0.1315,0.0,0.148,0.1519,0.0,0.0,0.0,0.1236,0.124,0.1302,0.1318,0.1358,0.0,0.0,0.0941,0.0,0.1078,0.1413,0.148,0.148,0.1143,0.1076,0.0875,0.0539,0.0472,0.0472,0.0472,0.0472,0.054,0.0877,0.0472,-0.0,-0.0,0.027,0.0607,0.0877,0.1012,0.1079,0.1079,0.1076,0.1128,0.1323,0.131,0.1372,0.1376,0.1438,0.1503,-0.6411,-0.6399,-0.607,-0.5577,-0.4997,-0.4698,-0.4501,-0.4341,-0.375,-0.3436,-0.3387,-0.2706,-0.2314,-0.1998,-0.1598,-0.1326,-0.1122,-0.1204,-0.114,-0.0933,-0.0872,-0.0673,-0.027,-0.0,0.0135,0.0269,0.0539,0.0809,0.1146,0.1211,0.1277,0.1344,0.1791,0.2444,0.3257,0.372,0.4066,0.4228,0.4489,0.4478,0.4251,0.3891,0.3644,0.3378,0.3439,0.3153,0.2344,0.1651,0.0975,0.0366,0.0364,0.0241,-0.006,-0.0399,0.0,0.0,0.0,0.0,0.0,0.0,0.0,0.0,0.0,0.0555,0.0484,0.0,0.0898,0.0,0.0848,0.1039,0.11,0.0861,0.0,0.0,0.0617,0.0623,0.0637,0.0639,0.0776,0.1132,0.0601,-0.0,-0.0539,-0.0337,-0.0067,-0.0,0.0741,0.1213,0.1078,0.0606,0.0202,0.0135,0.0135,0.0135,0.0135,0.0135,0.0135,0.027,0.0135,-0.0,-0.0,0.0067,0.0135,0.027,0.0472,0.0607,0.0607,0.0674,0.0672,0.0729,0.0925,0.119,0.1189,0.1189,0.1123,-0.742,-0.7342,-0.7241,-0.6992,-0.6571,-0.5681,-0.5292,-0.5226,-0.4558,-0.4225,-0.4225,-0.3491,-0.2956,-0.2555,-0.2285,-0.2084,-0.1883,-0.1748,-0.1614,-0.1479,-0.1277,-0.1076,-0.074,-0.0606,-0.0404,-0.0202,-0.0,0.027,0.0607,0.074,0.0808,0.0808,0.1009,0.1344,0.188,0.2885,0.3424,0.3558,0.3623,0.3623,0.3424,0.3153,0.2932,0.2759,0.2758,0.2608,0.2183,0.0886,-0.0251,-0.0945,-0.0745,-0.074,-0.1295,-0.1552,-0.1875,0.0,0.0,0.0,0.0,0.0,0.0,0.0,0.0,0.0,0.0,0.0,-0.0,-0.0,0.0313,0.0504,0.0504,0.0319,0.0193,-0.0,-0.0,-0.0,-0.0,-0.0,0.0066,0.0336,-0.0,-0.0472,-0.1012,-0.0945,-0.0742,-0.0742,-0.027,0.0202,0.0337,-0.0,-0.0202,-0.0202,-0.0202,-0.0202,-0.0202,-0.0202,-0.0202,-0.0202,-0.0202,-0.0202,-0.0202,-0.0202,-0.0202,-0.0202,-0.0067,0.0067,0.0067,0.0067,0.0067,0.0067,0.0202,0.0405,0.054,0.0607,0.054,-0.8543,-0.8401,-0.8377,-0.8367,-0.8202,-0.6819,-0.6219,-0.6085,-0.5349,-0.4937,-0.4788,-0.4233,-0.3625,-0.3157,-0.2887,-0.269,-0.249,-0.2153,-0.2018,-0.1951,-0.1681,-0.1412,-0.121,-0.1143,-0.0942,-0.0607,-0.0539,-0.0404,-0.0135,0.0135,0.0337,0.0404,0.0337,0.0403,0.047,0.188,0.2686,0.2958,0.2889,0.2822,0.2619,0.2417,0.2217,0.2153,0.2154,0.2153,0.2017,-0.0131,-0.1685,-0.2274,-0.1707,-0.1682,-0.2433,-0.2737,-0.2853,0.0,-0.2709,0.0,0.0,0.0,0.0,0.0,0.0,0.0,0.0,-0.0881,-0.091,-0.0499,-0.0256,-0.013,-0.0195,-0.0199,-0.027,-0.054,-0.054,-0.0607,-0.0607,-0.054,-0.0607,-0.0607,-0.0607,-0.0741,-0.1079,-0.1146,-0.1146,-0.1146,-0.1146,-0.0944,-0.0741,-0.0607,-0.0607,-0.0607,-0.0607,-0.0607,-0.0607,-0.054,-0.054,-0.0607,-0.0607,-0.0607,-0.0607,-0.054,-0.054,-0.054,-0.054,-0.054,-0.054,-0.0607,-0.0607,-0.0607,-0.0674,-0.0539,-0.0202,-0.0135,-0.0135,-0.9486,-0.9325,-0.9145,-0.9001,-0.8785,-0.8354,-0.7827,-0.7193,-0.6495,-0.572,-0.5049,-0.4739,-0.4295,-0.3825,-0.3623,-0.3355,-0.3025,-0.2891,-0.2622,-0.2288,-0.2153,-0.1951,-0.1748,-0.1479,-0.1211,-0.1009,-0.1009,-0.0942,-0.0876,-0.054,-0.0337,-0.0337,-0.0337,-0.0269,-0.0202,0.0,0.0,0.0,0.2424,0.2356,0.2288,0.195,0.1748,0.1748,0.2018,0.0,0.1277,-0.1338,-0.2876,-0.3009,-0.2856,0.0,0.0,0.0,0.0,0.0,0.0,0.0,0.0,0.0,0.0,0.0,-0.198,-0.1385,-0.0729,-0.0958,-0.1056,-0.0995,-0.0933,-0.087,-0.0937,-0.0874,-0.0945,-0.1012,-0.1012,-0.1012,-0.0945,-0.1012,-0.1012,-0.1012,-0.1145,-0.1279,-0.1345,-0.1412,-0.1481,-0.1481,-0.1481,-0.1481,-0.1413,-0.1145,-0.1012,-0.1012,-0.1012,-0.1012,-0.1012,-0.0944,-0.1012,-0.1012,-0.1012,-0.1012,-0.0944,-0.1012,-0.0944,-0.1012,-0.1012,-0.1012,-0.1012,-0.1212,-0.1345,-0.1413,-0.1481,-0.1413,-0.1011,-0.0877,-0.0944,-1.0539,0.0,-1.0193,-1.0069,0.0,-0.9707,-0.927,-0.8665,-0.752,-0.6537,-0.5755,-0.5682,-0.5303,-0.4607,-0.4607,-0.4261,-0.3774,-0.3637,-0.3358,-0.2938,-0.28,-0.2591,-0.2311,-0.2029,-0.175,-0.1611,-0.1471,-0.1401,-0.1333,-0.1123,-0.1052,-0.1123,-0.0982,-0.0836,-0.0756,-0.0203,0.0605,0.1614,0.1412,0.1277,0.1277,0.0941,0.0739,0.0605,0.0,0.0,0.0,0.0,0.0,0.0,0.0,0.0,0.0,0.0,0.0,-0.3813,-0.3893,-0.3837,-0.3721,-0.3523,-0.3312,-0.2897,-0.2373,-0.1766,-0.1199,-0.1248,-0.1347,-0.1347,-0.1347,-0.1347,-0.1347,-0.1347,-0.1347,-0.1347,-0.1347,-0.1347,-0.1347,-0.1347,-0.1347,-0.1347,-0.1413,-0.1479,-0.1479,-0.1547,-0.1614,-0.1614,-0.1614,-0.1614,-0.1614,-0.1482,-0.1348,-0.1347,-0.1414,-0.1415,-0.1347,-0.1348,-0.1347,-0.1347,-0.1347,-0.1347,-0.1348,-0.1348,-0.1347,-0.1347,-0.1347,-0.1346,-0.1347,-0.1481,-0.1614,-0.1614,-0.1681,-0.1615,-0.1414,-0.1347,-0.1414,-1.1484,-1.1335,-1.126,-1.1186,-1.0962,-1.0743,-1.0438,-0.989,0.0,0.0,0.0,-0.6606,-0.6162,-0.5516,-0.5444,-0.5084,-0.4576,-0.4364,-0.4073,-0.3634,-0.3495,-0.3205,-0.2838,-0.2693,-0.2404,-0.2188,-0.2042,-0.1896,-0.1677,-0.1677,-0.175,-0.175,-0.1458,-0.1299,-0.1129,-0.0829,-0.0342,0.0205,0.0203,0.0134,-0.0,-0.0202,-0.0403,-0.0605,-0.0202,-0.0403,-0.1277,-0.2356,-0.3165,-0.377,-0.3498,-0.3493,-0.3828,-0.3961,-0.4164,-0.4303,-0.4303,-0.4191,-0.396,-0.3952,-0.3656,-0.3132,-0.269,-0.2274,-0.1818,-0.1726,-0.1681,-0.1681,-0.1681,-0.1681,-0.1614,-0.1614,-0.1614,-0.1614,-0.1614,-0.1614,-0.1614,-0.1614,-0.1614,-0.1681,-0.1681,-0.1748,-0.1748,-0.1816,-0.1816,-0.1814,-0.1882,-0.1816,-0.1748,-0.1749,-0.1749,-0.1749,-0.1817,-0.1817,-0.1681,-0.1614,-0.1614,-0.1547,-0.1547,-0.1614,-0.1614,-0.1614,-0.1614,-0.1614,-0.1681,-0.1681,-0.1681,-0.1748,-0.1748,-0.1748,-0.1748,-0.1816,-0.1816,-0.1816,-0.1816,-1.2305,-1.2083,-1.1929,-1.1781,-1.1558,-1.1335,-1.0968,-1.0346,-0.8896,-0.8061,-0.7686,-0.7161,-0.6666,-0.6309,-0.5875,-0.5516,-0.5156,-0.5009,-0.4648,0.0,-0.4147,-0.3858,-0.3419,-0.3276,-0.2987,-0.2622,-0.2551,-0.2405,-0.2042,-0.2044,-0.1968,-0.1824,-0.175,-0.1674,-0.1523,-0.1446,-0.1514,-0.1586,-0.0895,-0.0806,-0.1344,-0.1344,-0.1412,-0.1412,-0.1681,-0.1884,-0.2018,-0.3096,-0.3701,-0.377,-0.3897,-0.3964,-0.4233,-0.4233,-0.43,-0.4303,-0.4303,-0.4292,-0.4276,-0.4071,-0.3865,-0.3526,-0.3203,-0.2874,-0.2409,-0.2216,-0.2153,-0.2085,-0.1951,-0.1816,-0.1883,-0.1748,-0.1614,-0.1614,-0.1614,-0.1614,-0.1614,-0.1614,-0.1682,-0.1887,-0.2018,-0.2157,-0.2231,-0.243,-0.2498,-0.2557,-0.2507,-0.2559,-0.2499,-0.2285,-0.2153,-0.2085,-0.2153,-0.2085,-0.195,-0.1748,-0.1681,-0.1614,-0.1614,-0.1681,-0.168,-0.1681,-0.1748,-0.1816,-0.1883,-0.1951,-0.2085,-0.2221,-0.2221,-0.2288,-0.2354,-0.2485,-0.2485,-0.2485,-0.2418,-1.3212,-1.3049,-1.2742,-1.2452,-1.2157,-1.1706,-1.126,-1.0726,-0.9947,-0.9234,-0.8637,-0.8166,-0.7681,-0.7315,-0.6943,-0.6488,-0.6119,-0.5823,-0.5445,-0.5064,-0.4769,-0.4468,-0.4166,-0.3869,-0.3567,-0.3338,-0.3109,-0.2958,-0.2658,-0.2658,-0.2582,-0.2504,-0.2398,-0.2232,-0.2081,-0.2054,-0.2113,-0.2184,-0.1708,-0.1537,-0.179,-0.1788,-0.1914,-0.202,-0.1951,-0.2084,-0.2487,-0.3297,-0.3902,-0.4102,-0.403,-0.4161,-0.4431,-0.4498,-0.4498,-0.4564,-0.4564,-0.4564,-0.4495,-0.4161,-0.3961,-0.383,-0.3629,-0.3426,-0.3226,-0.2755,-0.2487,-0.2487,-0.242,-0.2351,-0.2351,-0.2218,-0.2217,-0.2217,-0.2217,-0.215,-0.215,-0.215,-0.2231,-0.233,-0.2475,-0.2559,-0.2737,-0.281,-0.2881,-0.2881,-0.2949,-0.3089,-0.3293,-0.3188,-0.2868,-0.2562,-0.2487,-0.242,-0.2353,-0.2284,-0.2217,-0.2218,-0.2217,-0.2218,-0.2217,-0.222,-0.2221,-0.2285,-0.2353,-0.2353,-0.2487,-0.2487,-0.2555,-0.2555,-0.2757,-0.2822,-0.2889,-0.3023,-0.3025,-1.4214,-1.4048,-1.3732,-1.329,-1.2776,-1.2249,-1.1764,-1.1335,-1.0956,-1.0368,-0.9695,-0.9084,-0.8627,-0.8178,-0.7795,-0.7403,-0.7096,-0.6718,-0.6254,-0.5854,-0.547,-0.5162,-0.4851,-0.4467,-0.4231,-0.3997,-0.3761,-0.3526,-0.3374,-0.3297,-0.3297,-0.329,-0.3081,-0.2974,-0.2819,-0.2767,-0.2739,-0.2666,-0.2521,-0.2338,-0.2195,-0.2263,-0.2381,-0.2543,-0.2124,-0.2121,-0.2666,-0.3472,-0.4074,-0.4338,-0.4244,-0.4292,-0.4628,-0.4625,-0.4691,-0.4761,-0.4761,-0.4761,-0.4625,-0.4361,-0.4161,-0.4159,-0.3959,-0.3894,-0.3825,-0.3288,-0.2954,-0.2954,-0.2956,-0.2889,-0.2822,-0.2753,-0.2753,-0.2686,-0.2686,-0.2629,-0.2504,-0.2644,-0.2809,-0.2879,-0.2965,-0.3132,-0.3186,-0.3277,-0.327,-0.3338,-0.3352,-0.364,-0.3849,-0.3857,-0.357,-0.3164,-0.2914,-0.2891,-0.2889,-0.2753,-0.2753,-0.2753,-0.2686,-0.2686,-0.2688,-0.2758,-0.2827,-0.2822,-0.2887,-0.2887,-0.2952,-0.2954,-0.2954,-0.3021,-0.3155,-0.3224,-0.3293,-0.3426,-0.3496,-1.5234,-1.5158,-1.4804,-1.4263,-1.3568,-1.3168,-1.2716,-1.219,-1.1787,-1.1341,-1.0842,-0.9765,-0.9099,-0.8627,-0.825,-0.7944,-0.7706,-0.7334,-0.7022,-0.6707,-0.6331,-0.5944,-0.5544,-0.5079,-0.4849,-0.4621,-0.4387,-0.4231,-0.4001,-0.4001,-0.3921,-0.3763,-0.3754,-0.3671,-0.3669,-0.3661,-0.3659,-0.3661,-0.3661,-0.3273,-0.2693,-0.2976,-0.3192,-0.3186,-0.2815,-0.2594,-0.28,-0.3672,-0.4391,-0.4729,-0.4625,-0.4631,-0.4764,-0.4761,-0.4827,-0.4827,-0.4827,-0.4761,-0.4761,-0.4764,-0.4628,-0.4561,-0.4364,-0.4164,-0.4028,-0.3825,-0.3692,-0.3692,-0.356,-0.3362,-0.3159,-0.3092,-0.2958,-0.2833,-0.2762,-0.2644,-0.2635,-0.286,-0.317,-0.3397,-0.3625,-0.3851,-0.3876,-0.3958,-0.3949,-0.3962,-0.3969,-0.4042,-0.4111,-0.4085,-0.4058,-0.3942,-0.3691,-0.345,-0.3372,-0.3159,-0.3023,-0.3023,-0.2822,-0.2887,-0.3023,-0.3023,-0.3025,-0.3293,-0.3424,-0.3422,-0.3558,-0.3692,-0.3625,-0.3625,-0.3625,-0.3761,-0.3894,-0.3961,-0.3897,-1.6218,-1.603,-1.5529,-1.4988,-1.433,-1.4007,-1.3635,-1.3223,-1.2749,-1.2357,-1.1887,-1.1204,-1.0341,-0.9387,-0.9018,-0.8637,-0.8318,-0.7944,-0.7565,-0.7249,-0.6868,-0.6405,-0.6022,-0.5705,-0.5395,-0.5087,-0.4929,-0.4776,-0.4467,-0.4309,-0.4231,-0.4153,-0.4153,-0.4151,-0.4151,-0.4153,-0.4151,-0.4151,-0.4153,-0.4035,-0.3884,-0.3751,-0.3698,-0.3721,-0.3632,-0.3555,-0.3625,-0.4528,-0.508,-0.5068,-0.4948,-0.4944,-0.5083,-0.5004,-0.5027,-0.5163,-0.5027,-0.4957,-0.4957,-0.4897,-0.4761,-0.4691,-0.4631,-0.4564,-0.4495,-0.4359,-0.4292,-0.4225,-0.3894,-0.3627,-0.356,-0.3491,-0.3446,-0.3425,-0.3438,-0.3338,-0.3283,-0.3509,-0.3837,-0.4075,-0.4098,-0.4194,-0.4244,-0.4263,-0.4339,-0.4412,-0.4488,-0.4478,-0.4561,-0.4587,-0.454,-0.452,-0.4326,-0.4069,-0.3799,-0.3592,-0.3502,-0.3426,-0.3422,-0.3422,-0.3424,-0.3491,-0.3558,-0.3694,-0.3692,-0.3756,-0.3758,-0.3825,-0.3825,-0.3894,-0.4161,-0.4295,-0.4431,-0.4498,-0.4498,-1.7146,-1.6858,-1.6307,-1.5756,-1.5202,-1.496,-1.4594,-1.4059,-1.3731,-1.3252,-1.2784,-1.2479,-1.1715,-1.0599,-0.9898,-0.9301,-0.8937,-0.8479,-0.8097,-0.7787,-0.7322,-0.6945,-0.6644,-0.6328,-0.6015,-0.5705,-0.5553,-0.5243,-0.4935,-0.4776,-0.4774,-0.4696,-0.4696,-0.4696,-0.4698,-0.4696,-0.4696,-0.4698,-0.4698,-0.4776,-0.4841,-0.4543,-0.4387,-0.439,-0.4451,-0.4449,-0.4522,-0.5231,-0.558,-0.5577,-0.5367,-0.5291,-0.5427,-0.5307,-0.5279,-0.5365,-0.5289,-0.5156,-0.5156,-0.5027,-0.496,-0.4897,-0.4894,-0.4894,-0.4827,-0.4691,-0.4709,-0.4681,-0.4406,-0.4141,-0.3936,-0.3939,-0.3917,-0.3944,-0.3961,-0.393,-0.3955,-0.4118,-0.4309,-0.4639,-0.4586,-0.4533,-0.4598,-0.4693,-0.4763,-0.4921,-0.5002,-0.5012,-0.5087,-0.5089,-0.5036,-0.5031,-0.4927,-0.4729,-0.4189,-0.4052,-0.3981,-0.3871,-0.3808,-0.3799,-0.3837,-0.3828,-0.3959,-0.4028,-0.4025,-0.4092,-0.4228,-0.4161,-0.4095,-0.4228,-0.4495,-0.4761,-0.4897,-0.4964,-0.5093,-1.7925,-1.7836,-1.7253,-1.671,-1.6198,-1.5936,-1.5362,-1.4587,-1.4465,-1.3981,-1.3299,-1.3213,-1.2784,-1.2105,-1.092,-1.0065,-0.9575,-0.9042,-0.8746,-0.8588,-0.8038,-0.7642,-0.7407,-0.7019,-0.6721,-0.6504,-0.6116,-0.5796,-0.5559,-0.5559,-0.5562,-0.5556,-0.5479,-0.5482,-0.5482,-0.5482,-0.5482,-0.5482,-0.5482,-0.5482,-0.5559,-0.5473,-0.5381,-0.5283,-0.5297,-0.5363,-0.5437,-0.5566,-0.58,-0.625,-0.5808,-0.5581,-0.5786,-0.5691,-0.5549,-0.5463,-0.5365,-0.5362,-0.5359,-0.5359,-0.5292,-0.5153,-0.509,-0.5027,-0.4916,-0.4849,-0.4898,-0.5074,-0.5017,-0.474,-0.4341,-0.4268,-0.424,-0.4195,-0.4143,-0.4267,-0.4368,-0.4525,-0.4728,-0.4892,-0.4991,-0.4993,-0.524,-0.5243,-0.5323,-0.5401,-0.5482,-0.5482,-0.5482,-0.5547,-0.5535,-0.5514,-0.5427,-0.5303,-0.4748,-0.452,-0.4409,-0.4297,-0.4248,-0.4018,-0.4014,-0.4028,-0.4231,-0.4361,-0.4425,-0.4492,-0.4697,-0.4764,-0.4697,-0.4827,-0.4957,-0.516,-0.5296,-0.5488,-0.5617,-1.829,-1.7959,-1.7789,-1.739,-1.696,-1.6547,-1.6218,-1.5867,-1.5456,-1.505,-1.4643,-1.4316,-1.3811,-1.3137,-1.2382,-1.1547,-1.0774,-1.0216,-0.982,-0.9577,-0.9021,-0.8622,-0.8302,-0.7901,-0.7517,-0.7194,-0.6785,-0.6499,-0.6183,-0.5944,-0.5789,-0.5789,-0.5637,-0.5562,-0.5562,-0.5562,-0.5562,-0.5562,-0.5562,-0.5637,-0.5786,-0.5948,-0.6099,-0.6163,-0.586,-0.5631,-0.5628,-0.5886,-0.6246,-0.6703,-0.6403,-0.6247,-0.6291,-0.609,-0.5928,-0.5709,-0.561,-0.5488,-0.5428,-0.5428,-0.5359,-0.5292,-0.5292,-0.5276,-0.528,-0.5235,-0.5221,-0.5335,-0.5296,-0.5114,-0.5107,-0.4928,-0.4925,-0.4961,-0.4993,-0.4966,-0.5146,-0.518,-0.5277,-0.5392,-0.5404,-0.5404,-0.5479,-0.5476,-0.5553,-0.5556,-0.5553,-0.5631,-0.5559,-0.5562,-0.5637,-0.5556,-0.5597,-0.5472,-0.5357,-0.5099,-0.4991,-0.4968,-0.4862,-0.4751,-0.4755,-0.4625,-0.4797,-0.4681,-0.4733,-0.4843,-0.4916,-0.5096,-0.5096,-0.5229,-0.5359,-0.5557,-0.569,-0.5885,-0.6017,-1.8788,-1.8447,-1.8253,-1.7968,-1.7554,-1.7221,-1.6976,-1.6812,-1.6229,-1.5906,-1.5567,-1.5151,-1.4615,-1.4118,-1.3602,-1.3004,-1.2237,-1.1358,-1.0713,-1.0308,-0.9892,-0.949,-0.8996,-0.8673,-0.8281,-0.7849,-0.7592,-0.7266,-0.6887,-0.6478,-0.6295,-0.6251,-0.6096,-0.6022,-0.6018,-0.6018,-0.6022,-0.6022,-0.6022,-0.6018,-0.6093,-0.6331,-0.656,-0.6707,-0.6398,-0.6089,-0.5851,-0.624,-0.6633,-0.7007,-0.6916,-0.678,-0.66,-0.6447,-0.6216,-0.6036,-0.5874,-0.5698,-0.5557,-0.5519,-0.5446,-0.543,-0.5504,-0.5498,-0.5637,-0.5514,-0.5516,-0.562,-0.5586,-0.5571,-0.567,-0.5638,-0.5625,-0.556,-0.55,-0.5536,-0.5622,-0.5559,-0.5559,-0.5559,-0.5562,-0.5637,-0.5715,-0.5709,-0.5709,-0.5792,-0.5864,-0.5864,-0.5789,-0.5792,-0.5792,-0.587,-0.587,-0.5857,-0.5832,-0.5701,-0.543,-0.5322,-0.5295,-0.5318,-0.5306,-0.5224,-0.5213,-0.508,-0.5058,-0.5087,-0.5192,-0.5372,-0.5495,-0.5561,-0.5756,-0.602,-0.6152,-0.6284,-0.6482,-1.9506,-1.9224,-1.8878,-1.8521,-1.8091,-1.801,-1.7644,-1.7139,-1.6812,-1.6492,-1.6079,-1.5658,-1.5304,-1.497,-1.4357,-1.4048,-1.3587,-1.2273,-1.1358,-1.0871,-1.0524,-1.0116,-0.9548,-0.9398,-0.9128,-0.8595,-0.8258,-0.7918,-0.7517,-0.7266,-0.704,-0.6902,-0.6891,-0.681,-0.6865,-0.6788,-0.6865,-0.6791,-0.6788,-0.6784,-0.6703,-0.6861,-0.7022,-0.7099,-0.7022,-0.6703,-0.6381,-0.6546,-0.6942,-0.7342,-0.7253,-0.6938,-0.674,-0.66,-0.6508,-0.6404,-0.628,-0.6084,-0.5917,-0.573,-0.5674,-0.5628,-0.5589,-0.5654,-0.5776,-0.5806,-0.5791,-0.5925,-0.5962,-0.6091,-0.621,-0.6224,-0.6066,-0.5712,-0.5693,-0.5696,-0.5634,-0.564,-0.5637,-0.5637,-0.5715,-0.5712,-0.5864,-0.5941,-0.6022,-0.618,-0.6183,-0.618,-0.618,-0.6183,-0.6261,-0.6257,-0.618,-0.6106,-0.6183,-0.6244,-0.5927,-0.5701,-0.5595,-0.5551,-0.5533,-0.5548,-0.557,-0.5557,-0.5564,-0.5655,-0.5659,-0.5833,-0.5855,-0.5981,-0.6234,-0.642,-0.6548,-0.6679,-0.6942,-2.0254,-1.9919,-1.9802,-1.9413,-1.8854,-1.8581,-1.8116,-1.7725,-1.7302,-1.6902,-1.6574,-1.6402,-1.5899,-1.5401,-1.5075,-1.4664,-1.4068,-1.3458,-1.2798,-1.2027,-1.1354,-1.0921,-1.0673,-1.0259,-0.9677,-0.9113,-0.8739,-0.8487,-0.8273,-0.8093,-0.7918,-0.7778,-0.7592,-0.7371,-0.7192,-0.7103,-0.7103,-0.7103,-0.7103,-0.7173,-0.7238,-0.7395,-0.7638,-0.7876,-0.7795,-0.7553,-0.7153,-0.6934,-0.7019,-0.7492,-0.7407,-0.7326,-0.7218,-0.7088,-0.699,-0.6803,-0.6633,-0.6451,-0.6294,-0.6183,-0.6095,-0.6015,-0.5955,-0.5957,-0.5932,-0.5959,-0.6023,-0.6159,-0.619,-0.6217,-0.6247,-0.6261,-0.6183,-0.6103,-0.6106,-0.6025,-0.6028,-0.6028,-0.6106,-0.6106,-0.6106,-0.6106,-0.618,-0.6177,-0.618,-0.6261,-0.6338,-0.6338,-0.6338,-0.6335,-0.6261,-0.6261,-0.6261,-0.6335,-0.6412,-0.649,-0.6367,-0.6162,-0.6069,-0.5977,-0.5966,-0.5902,-0.6002,-0.6009,-0.6086,-0.6131,-0.6199,-0.6256,-0.636,-0.641,-0.6581,-0.6766,-0.6946,-0.7138,-0.7335,-2.1005,-2.0656,-2.051,-2.0141,-1.9656,-1.9314,-1.8924,-1.8551,-1.8211,-1.7813,-1.7367,-1.7012,-1.6593,-1.5914,-1.556,-1.5068,-1.458,-1.4257,-1.3743,-1.3137,-1.2272,-1.1752,-1.1413,-1.0814,-1.0317,-0.9843,-0.9452,-0.9187,-0.9041,-0.8852,-0.8595,-0.8367,-0.818,-0.8007,-0.768,-0.7659,-0.7643,-0.7581,-0.7565,-0.7642,-0.7783,-0.7863,-0.8021,-0.8183,-0.8106,-0.7863,-0.754,-0.7395,-0.7484,-0.7638,-0.7714,-0.7714,-0.7706,-0.761,-0.7472,-0.7289,-0.7094,-0.6909,-0.6683,-0.6546,-0.6417,-0.631,-0.6255,-0.625,-0.6225,-0.6187,-0.6246,-0.6314,-0.6254,-0.6261,-0.6261,-0.6261,-0.6261,-0.6261,-0.6261,-0.6261,-0.6261,-0.6261,-0.6261,-0.6261,-0.6261,-0.6261,-0.6261,-0.6261,-0.6335,-0.6412,-0.6412,-0.649,-0.649,-0.6563,-0.6486,-0.6486,-0.6563,-0.6563,-0.6563,-0.6637,-0.6714,-0.6623,-0.6535,-0.6521,-0.6474,-0.6432,-0.646,-0.6504,-0.6569,-0.6701,-0.6776,-0.6941,-0.7034,-0.7043,-0.6976,-0.7215,-0.7409,-0.7545,-0.7727,-2.1759,-2.153,-2.109,-2.0697,-2.0313,-2.0229,-1.9911,-1.9545,-1.9196,-1.8837,-1.8263,-1.7701,-1.7203,-1.6617,-1.6058,-1.5617,-1.5271,-1.4726,-1.4206,-1.3835,-1.3137,-1.2448,-1.1763,-1.1154,-1.088,-1.0692,-1.0336,-1.0081,-0.9757,-0.9569,-0.9215,-0.8877,-0.885,-0.8675,-0.8506,-0.8467,-0.8365,-0.8245,-0.8196,-0.8178,-0.8336,-0.8259,-0.8178,-0.8255,-0.8255,-0.8093,-0.7774,-0.8012,-0.8178,-0.8183,-0.8106,-0.8025,-0.8102,-0.8102,-0.7931,-0.777,-0.7622,-0.7401,-0.7126,-0.698,-0.673,-0.6622,-0.6645,-0.6625,-0.659,-0.6608,-0.6538,-0.6409,-0.6412,-0.6335,-0.6338,-0.6412,-0.6412,-0.6338,-0.6338,-0.6261,-0.6261,-0.6261,-0.6338,-0.6338,-0.6338,-0.6335,-0.6335,-0.6412,-0.6486,-0.6563,-0.6637,-0.6714,-0.6791,-0.6788,-0.6865,-0.6868,-0.6791,-0.6791,-0.6714,-0.6872,-0.6949,-0.6949,-0.6945,-0.6945,-0.6945,-0.6912,-0.7042,-0.7084,-0.7142,-0.7196,-0.7334,-0.749,-0.7531,-0.7518,-0.755,-0.7745,-0.7868,-0.8002,-0.8122,-2.2368,-2.2174,-2.1905,-2.1506,-2.1151,-2.0798,-2.0377,-1.9956,-1.9606,-1.9316,-1.8939,-1.8598,-1.801,-1.7493,-1.7298,-1.6675,-1.5889,-1.5504,-1.4852,-1.4186,-1.3906,-1.3058,-1.2032,-1.1413,-1.1241,-1.1068,-1.0809,-1.0529,-1.0479,-1.0363,-1.0089,-0.9903,-0.9805,-0.9698,-0.9423,-0.919,-0.9159,-0.9077,-0.8846,-0.8865,-0.8946,-0.8946,-0.8941,-0.8856,-0.8937,-0.8699,-0.8452,-0.878,-0.8799,-0.8584,-0.8264,-0.8102,-0.8102,-0.8102,-0.8102,-0.8012,-0.7982,-0.7795,-0.7635,-0.7522,-0.737,-0.7102,-0.7019,-0.6981,-0.6857,-0.6788,-0.6791,-0.6714,-0.671,-0.6718,-0.6721,-0.6718,-0.6714,-0.6714,-0.6486,-0.6335,-0.6335,-0.6261,-0.6338,-0.649,-0.6486,-0.6563,-0.6637,-0.6714,-0.6714,-0.6791,-0.6791,-0.6868,-0.6942,-0.6942,-0.7019,-0.6942,-0.6868,-0.6865,-0.6942,-0.7026,-0.7103,-0.718,-0.7257,-0.7411,-0.7411,-0.7399,-0.754,-0.7732,-0.7752,-0.7816,-0.7881,-0.7956,-0.795,-0.8037,-0.8117,-0.8298,-0.8441,-0.8551,-0.856,-2.2803,-2.253,-2.2451,-2.2221,-2.182,-2.1471,-2.1167,-2.0811,-2.0428,-1.9974,-1.9609,-1.9323,-1.8874,-1.8221,-1.7937,-1.74,-1.6703,-1.6255,-1.5727,-1.5147,-1.4514,-1.3531,-1.249,-1.2015,-1.1757,-1.1596,-1.1343,-1.1165,-1.0977,-1.0982,-1.0737,-1.0479,-1.0454,-1.0253,-0.996,-0.9841,-0.9667,-0.9508,-0.9354,-0.9341,-0.9332,-0.9322,-0.9246,-0.916,-0.9241,-0.9079,-0.8832,-0.9241,-0.9342,-0.9032,-0.8718,-0.8637,-0.856,-0.8484,-0.8403,-0.8403,-0.8255,-0.8097,-0.7953,-0.7957,-0.7799,-0.7569,-0.7492,-0.7338,-0.7103,-0.7022,-0.7022,-0.6942,-0.6865,-0.6868,-0.6868,-0.6868,-0.6865,-0.6865,-0.6714,-0.6563,-0.6563,-0.6563,-0.6637,-0.6714,-0.6714,-0.6791,-0.6865,-0.6942,-0.6942,-0.7022,-0.7026,-0.7099,-0.7173,-0.7173,-0.7173,-0.7173,-0.7253,-0.7334,-0.733,-0.7488,-0.7565,-0.7642,-0.7642,-0.7795,-0.7876,-0.7795,-0.7868,-0.8093,-0.825,-0.8376,-0.8346,-0.8407,-0.8631,-0.8707,-0.875,-0.8784,-0.8926,-0.9025,-0.9019,-2.296,-2.2803,-2.2794,-2.2618,-2.2422,-2.2185,-2.1943,-2.1713,-2.14,-2.0971,-2.0289,-2.0052,-1.9553,-1.8944,-1.8457,-1.7978,-1.7739,-1.7037,-1.6551,-1.5979,-1.5189,-1.4089,-1.3151,-1.2637,-1.2369,-1.2123,-1.2037,-1.1688,-1.151,-1.1419,-1.1246,-1.1042,-1.088,-1.0711,-1.0616,-1.0554,-1.0254,-1.0056,-0.998,-0.9777,-0.9637,-0.958,-0.9539,-0.9382,-0.9377,-0.9221,-0.9145,-0.9549,-0.9803,-0.9478,-0.9322,-0.9246,-0.9246,-0.9099,-0.8941,-0.8784,-0.8632,-0.8403,-0.8178,-0.8178,-0.803,-0.788,-0.7804,-0.7723,-0.7415,-0.7334,-0.7257,-0.7096,-0.7015,-0.7019,-0.7019,-0.7019,-0.7019,-0.7019,-0.6942,-0.6942,-0.7019,-0.6942,-0.6865,-0.6942,-0.6942,-0.6942,-0.6942,-0.7015,-0.7096,-0.7411,-0.7411,-0.7484,-0.7561,-0.7561,-0.7561,-0.7561,-0.7642,-0.7804,-0.7876,-0.7949,-0.8025,-0.8097,-0.8097,-0.8255,-0.8331,-0.8331,-0.8255,-0.8331,-0.856,-0.8713,-0.8756,-0.8925,-0.925,-0.9385,-0.9336,-0.9341,-0.9364,-0.9411,-0.9495,-2.3057,-2.3057,-2.2882,-2.2803,-2.2706,-2.2441,-2.2185,-2.2008,-2.1741,-2.1418,-2.1087,-2.0703,-2.0283,-1.9937,-1.9347,-1.8831,-1.8297,-1.7737,-1.7265,-1.6279,-1.5609,-1.4865,-1.4076,-1.328,-1.2723,-1.246,-1.2123,-1.1952,-1.186,-1.186,-1.1774,-1.1688,-1.1602,-1.1671,-1.1594,-1.1337,-1.1377,-1.1187,-1.0811,-1.0601,-1.0407,-1.0247,-1.0073,-0.982,-0.9734,-0.9728,-0.9728,-1.0132,-1.0299,-1.0148,-0.97,-0.9397,-0.9322,-0.9322,-0.9246,-0.917,-0.8941,-0.8789,-0.8632,-0.8403,-0.825,-0.8106,-0.803,-0.8025,-0.7949,-0.7723,-0.765,-0.7565,-0.7488,-0.7407,-0.733,-0.7326,-0.7407,-0.7407,-0.733,-0.7407,-0.7488,-0.7176,-0.7022,-0.7103,-0.718,-0.7261,-0.7569,-0.7565,-0.7646,-0.7876,-0.7872,-0.7872,-0.7944,-0.7949,-0.7944,-0.7868,-0.8021,-0.8102,-0.8255,-0.8327,-0.8479,-0.8556,-0.8556,-0.8632,-0.8713,-0.8789,-0.8708,-0.8789,-0.9022,-0.9094,-0.9165,-0.9458,-0.9777,-0.9851,-0.9922,-0.9946,-0.9972,-0.9991,-0.9965,-2.3144,-2.3047,-2.2969,-2.2969,-2.2891,-2.2706,-2.253,-2.2362,-2.2008,-2.1741,-2.1472,-2.1114,-2.0843,-2.0473,-2.011,-1.953,-1.887,-1.8276,-1.7553,-1.6667,-1.6048,-1.5535,-1.494,-1.4187,-1.3597,-1.312,-1.2717,-1.246,-1.2375,-1.2203,-1.2118,-1.2043,-1.2043,-1.1952,-1.1957,-1.1895,-1.1775,-1.1626,-1.1409,-1.1164,-1.0924,-1.0787,-1.061,-1.038,-1.0351,-1.0438,-1.0513,-1.068,-1.0767,-1.0611,-1.0229,-0.9846,-0.9695,-0.962,-0.9549,-0.9397,-0.9246,-0.9094,-0.8937,-0.8861,-0.8708,-0.8403,-0.8403,-0.8255,-0.8178,-0.803,-0.7953,-0.7953,-0.7876,-0.7795,-0.7791,-0.7791,-0.7795,-0.7795,-0.7795,-0.7872,-0.7876,-0.7569,-0.7411,-0.7565,-0.7642,-0.7723,-0.7876,-0.7953,-0.7953,-0.8025,-0.8025,-0.8102,-0.8025,-0.8025,-0.8102,-0.8178,-0.8327,-0.8475,-0.8551,-0.8703,-0.8861,-0.8937,-0.8941,-0.9018,-0.9094,-0.9165,-0.9241,-0.9322,-0.9397,-0.9549,-0.962,-0.9997,-1.0143,-1.0237,-1.0302,-1.0419,-1.0521,-1.0503,-1.0463,-2.3144,-2.3144,-2.3144,-2.3144,-2.3047,-2.2882,-2.2803,-2.2715,-2.2362,-2.1998,-2.1731,-2.1472,-2.1122,-2.0835,-2.0382,-2.0027,-1.9379,-1.8711,-1.7865,-1.7143,-1.6747,-1.6196,-1.5611,-1.5129,-1.4648,-1.3728,-1.3335,-1.3053,-1.2808,-1.2619,-1.254,-1.2295,-1.2209,-1.2381,-1.2295,-1.2198,-1.2269,-1.2171,-1.2046,-1.177,-1.1423,-1.1282,-1.1065,-1.0859,-1.0893,-1.098,-1.098,-1.1141,-1.1154,-1.1154,-1.083,-1.0594,-1.0368,-1.0143,-0.9916,-0.9771,-0.9544,-0.9473,-0.9392,-0.9246,-0.9094,-0.8775,-0.878,-0.8632,-0.8408,-0.8255,-0.8255,-0.8178,-0.8102,-0.8025,-0.8102,-0.8025,-0.8025,-0.8025,-0.8102,-0.8102,-0.8178,-0.803,-0.8025,-0.7949,-0.7949,-0.803,-0.8102,-0.825,-0.8255,-0.8255,-0.8255,-0.8255,-0.8255,-0.8331,-0.8484,-0.856,-0.8708,-0.8784,-0.8861,-0.9084,-0.9241,-0.9392,-0.9397,-0.9468,-0.9544,-0.969,-0.9765,-0.962,-0.9695,-0.9846,-1.0067,-1.0293,-1.0438,-1.0588,-1.0703,-1.0905,-1.0955,-1.1009,-1.1049,-2.3144,-2.3144,-2.3144,-2.3144,-2.3144,-2.3057,-2.2969,-2.2803,-2.253,-2.2264,-2.2008,-2.1571,-2.1392,-2.1114,-2.0564,-1.9928,-1.9379,-1.8819,-1.8319,-1.7872,-1.7394,-1.6856,-1.6288,-1.6043,-1.5562,-1.4905,-1.4232,-1.3671,-1.3376,-1.3222,-1.3052,-1.3137,-1.3058,-1.3058,-1.3052,-1.3137,-1.3033,-1.2837,-1.2785,-1.2587,-1.2407,-1.2048,-1.1732,-1.139,-1.1273,-1.1162,-1.1236,-1.1403,-1.1639,-1.1571,-1.1558,-1.126,-1.0962,-1.0588,-1.0443,-1.0218,-0.9997,-0.9771,-0.9771,-0.9468,-0.9322,-0.9246,-0.917,-0.917,-0.9013,-0.8784,-0.8632,-0.8556,-0.8327,-0.8178,-0.8102,-0.8178,-0.8106,-0.8102,-0.8178,-0.8331,-0.8475,-0.8551,-0.8408,-0.8331,-0.8255,-0.8255,-0.8479,-0.8632,-0.8632,-0.8789,-0.8865,-0.8865,-0.8865,-0.8941,-0.9094,-0.917,-0.9165,-0.917,-0.9246,-0.9468,-0.962,-0.9765,-0.9916,-1.0067,-1.0143,-1.0288,-1.0288,-1.0143,-1.0143,-1.0293,-1.0513,-1.0663,-1.0812,-1.0956,-1.1174,-1.1316,-1.1384,-1.1443,-1.1458,-2.3144,-2.3144,-2.3144,-2.3144,-2.3144,-2.3144,-2.3047,-2.2882,-2.2706,-2.2441,-2.2185,-2.1919,-2.166,-2.1293,-2.0925,-2.0283,-1.9554,-1.9004,-1.8735,-1.8365,-1.7971,-1.7461,-1.6921,-1.6722,-1.6352,-1.5847,-1.519,-1.4526,-1.3885,-1.354,-1.3502,-1.3398,-1.3398,-1.3398,-1.3398,-1.3398,-1.3398,-1.3353,-1.3258,-1.3112,-1.2946,-1.2529,-1.2094,-1.1872,-1.1614,-1.1459,-1.1459,-1.1793,-1.2035,-1.1961,-1.1793,-1.1639,-1.1409,-1.1186,-1.0887,-1.0594,-1.0293,-1.0218,-1.0218,-0.9992,-0.9846,-0.962,-0.962,-0.9473,-0.9322,-0.9094,-0.9013,-0.8937,-0.8937,-0.8708,-0.8784,-0.8713,-0.8713,-0.8713,-0.8713,-0.8789,-0.8937,-0.9013,-0.8937,-0.8789,-0.8865,-0.8941,-0.8941,-0.9013,-0.9089,-0.9246,-0.9397,-0.9473,-0.9468,-0.9544,-0.962,-0.9695,-0.9695,-0.9771,-0.9771,-0.9922,-1.0073,-1.0218,-1.0363,-1.0513,-1.0588,-1.0738,-1.0738,-1.0663,-1.0738,-1.0738,-1.0812,-1.0962,-1.118,-1.1329,-1.1471,-1.162,-1.1774,-1.1816,-1.1892,-2.3144,-2.3144,-2.3144,-2.3144,-2.3144,-2.3144,-2.3144,-2.3057,-2.2882,-2.2706,-2.2441,-2.2185,-2.1839,-2.1472,-2.1096,-2.0637,-1.9928,-1.9288,-1.9012,-1.8735,-1.8458,-1.7978,-1.7606,-1.7311,-1.7001,-1.6522,-1.6162,-1.5632,-1.4543,-1.4038,-1.3724,-1.3659,-1.3568,-1.3568,-1.3574,-1.3659,-1.3568,-1.3561,-1.3555,-1.3497,-1.3173,-1.2889,-1.255,-1.2382,-1.2048,-1.1832,-1.1842,-1.2244,-1.2338,-1.2257,-1.2016,-1.1855,-1.1774,-1.1774,-1.1409,-1.0893,-1.0663,-1.0588,-1.0594,-1.0443,-1.0293,-1.0067,-0.9992,-0.9846,-0.9695,-0.962,-0.9473,-0.9473,-0.9392,-0.9392,-0.9397,-0.9397,-0.9397,-0.9397,-0.9397,-0.9397,-0.9473,-0.9544,-0.962,-0.9544,-0.9544,-0.9549,-0.9554,-0.9544,-0.962,-0.9771,-0.9922,-0.9916,-0.9916,-0.9992,-1.0067,-1.0218,-1.0293,-1.0368,-1.0368,-1.0443,-1.0519,-1.0594,-1.0812,-1.0956,-1.1037,-1.1037,-1.1111,-1.1111,-1.1111,-1.1111,-1.126,-1.1335,-1.1477,-1.1626,-1.17,-1.1848,-1.2003,-1.2077,-1.2111,-2.3144,-2.3144,-2.3144,-2.3144,-2.3144,-2.3144,-2.3144,-2.3047,-2.2882,-2.2803,-2.2706,-2.2274,-2.2097,-2.183,-2.1275,-2.0727,-2.0283,-1.9928,-1.9379,-1.9012,-1.8735,-1.8458,-1.7994,-1.7721,-1.7505,-1.7086,-1.6721,-1.5963,-1.5297,-1.485,-1.4473,-1.4318,-1.4095,-1.4004,-1.3997,-1.3997,-1.4004,-1.4082,-1.4153,-1.4178,-1.4097,-1.3939,-1.3622,-1.3215,-1.2645,-1.2185,-1.2257,-1.2633,-1.2693,-1.2445,-1.2452,-1.2305,-1.2083,-1.2003,-1.1855,-1.1558,-1.1254,-1.1031,-1.0962,-1.0812,-1.0588,-1.0519,-1.0438,-1.0363,-1.0212,-1.0067,-0.9997,-0.9846,-0.9841,-0.9841,-0.9846,-0.9846,-0.9846,-0.9846,-0.9846,-0.9922,-0.9997,-0.9997,-1.0143,-1.0293,-1.0293,-1.024,-1.0257,-1.024,-1.0148,-1.0293,-1.0374,-1.0374,-1.0438,-1.0513,-1.0513,-1.0663,-1.0738,-1.0812,-1.0887,-1.0962,-1.098,-1.1049,-1.1192,-1.1409,-1.1409,-1.1409,-1.1484,-1.1558,-1.1564,-1.1564,-1.1706,-1.1781,-1.1781,-1.1855,-1.2003,-1.2077,-1.2231,-1.2224,-1.2298,-2.3144,-2.3144,-2.3144,-2.3144,-2.3144,-2.3144,-2.3144,-2.3057,-2.296,-2.2882,-2.2794,-2.2441,-2.2097,-2.175,-2.1293,-2.1015,-2.0564,-2.0292,-1.9928,-1.9379,-1.9196,-1.8827,-1.855,-1.828,-1.8001,-1.7762,-1.7457,-1.7135,-1.6291,-1.5538,-1.4933,-1.4829,-1.4578,-1.4412,-1.4412,-1.4405,-1.4405,-1.4489,-1.4482,-1.4587,-1.4531,-1.4363,-1.4153,-1.3952,-1.311,-1.279,-1.273,-1.3043,-1.3169,-1.2921,-1.2914,-1.2746,-1.2526,-1.2526,-1.2445,-1.2378,-1.2003,-1.1706,-1.1484,-1.126,-1.1111,-1.0962,-1.0887,-1.0738,-1.0669,-1.0519,-1.0368,-1.0218,-1.0218,-1.0218,-1.0288,-1.0218,-1.0218,-1.0223,-1.0332,-1.0419,-1.0564,-1.0519,-1.0588,-1.0812,-1.0992,-1.1087,-1.1059,-1.0948,-1.086,-1.0773,-1.0912,-1.1045,-1.1079,-1.1105,-1.118,-1.126,-1.1254,-1.1174,-1.1329,-1.1409,-1.1453,-1.1534,-1.1521,-1.1664,-1.1639,-1.1713,-1.2006,-1.2048,-1.209,-1.2083,-1.2164,-1.2077,-1.2003,-1.215,-1.2231,-1.2378,-1.2452,-1.2599,-1.2673,-2.3144,-2.3144,-2.3144,-2.3144,-2.3144,-2.3144,-2.3144,-2.3144,-2.3057,-2.3057,-2.2794,-2.253,-2.2097,-2.166,-2.1482,-2.1203,-2.0835,-2.0564,-2.0292,-1.9928,-1.9563,-1.9288,-1.8928,-1.8751,-1.8465,-1.8272,-1.8056,-1.7712,-1.7206,-1.6389,-1.5648,-1.5282,-1.4789,-1.4678,-1.4734,-1.465,-1.465,-1.4831,-1.4824,-1.4894,-1.492,-1.4757,-1.4703,-1.4467,-1.3995,-1.3474,-1.3209,-1.3561,-1.3763,-1.3382,-1.3134,-1.2973,-1.2826,-1.2826,-1.282,-1.2753,-1.2526,-1.2305,-1.2009,-1.1781,-1.1632,-1.1477,-1.1329,-1.1186,-1.0968,-1.0818,-1.0812,-1.0812,-1.0812,-1.0812,-1.0812,-1.0818,-1.0958,-1.0988,-1.1023,-1.1111,-1.1223,-1.1347,-1.1401,-1.1621,-1.1883,-1.203,-1.1972,-1.1802,-1.1606,-1.1347,-1.1468,-1.1677,-1.174,-1.1803,-1.1784,-1.1923,-1.2177,-1.2094,-1.1986,-1.2024,-1.2067,-1.2097,-1.2091,-1.2211,-1.2434,-1.251,-1.2694,-1.2764,-1.2655,-1.2716,-1.2777,-1.2533,-1.2224,-1.2452,-1.2599,-1.2599,-1.2746,-1.2826,-1.2973,-2.3319,-2.3144,-2.3144,-2.3144,-2.3144,-2.3144,-2.3144,-2.3144,-2.3144,-2.3047,-2.2969,-2.2608,-2.2264,-2.2008,-2.166,-2.1401,-2.1302,-2.0835,-2.0564,-2.0292,-2.0019,-1.9745,-1.9479,-1.9112,-1.8827,-1.8735,-1.855,-1.8249,-1.7873,-1.7278,-1.6359,-1.5648,-1.5254,-1.4867,-1.4817,-1.4985,-1.4992,-1.5166,-1.5173,-1.5333,-1.5492,-1.5486,-1.5465,-1.5499,-1.5427,-1.5053,-1.3669,-1.4126,-1.4119,-1.3645,-1.336,-1.3193,-1.3193,-1.3119,-1.3119,-1.3112,-1.2973,-1.2826,-1.2673,-1.2231,-1.1781,-1.17,-1.17,-1.1626,-1.1558,-1.1558,-1.1558,-1.1484,-1.1403,-1.1509,-1.1502,-1.1589,-1.1652,-1.1884,-1.1972,-1.2029,-1.2169,-1.2336,-1.24,-1.2561,-1.2627,-1.2798,-1.2936,-1.2785,-1.2518,-1.2331,-1.2331,-1.2544,-1.2525,-1.2538,-1.2524,-1.2661,-1.31,-1.31,-1.2844,-1.2857,-1.2963,-1.3013,-1.302,-1.3249,-1.35,-1.355,-1.3306,-1.3397,-1.3321,-1.3395,-1.3372,-1.3205,-1.304,-1.2861,-1.2893,-1.29,-1.2973,-1.3127,-1.32,-2.3319,-2.3144,-2.3144,-2.3144,-2.3144,-2.3144,-2.3144,-2.3144,-2.3144,-2.3057,-2.2882,-2.2706,-2.2451,-2.2097,-2.1928,-2.167,-2.1401,-2.1212,-2.0925,-2.0645,-2.0374,-2.011,-1.9845,-1.9571,-1.9296,-1.9212,-1.902,-1.892,-1.874,-1.7958,-1.7381,-1.6601,-1.5933,-1.5641,-1.5575,-1.5499,-1.5582,-1.5665,-1.5673,-1.5839,-1.5839,-1.5914,-1.5936,-1.5919,-1.602,-1.5864,-1.5179,-1.4866,-1.4478,-1.4052,-1.3807,-1.3674,-1.3645,-1.3572,-1.355,-1.355,-1.3484,-1.3346,-1.3193,-1.2753,-1.2452,-1.2305,-1.2305,-1.2231,-1.2164,-1.209,-1.1935,-1.1855,-1.1887,-1.1964,-1.2181,-1.2214,-1.2311,-1.2687,-1.2903,-1.2962,-1.3134,-1.3227,-1.332,-1.3353,-1.3453,-1.3543,-1.3732,-1.3842,-1.3546,-1.3279,-1.3358,-1.3378,-1.3432,-1.338,-1.3413,-1.3513,-1.3867,-1.3912,-1.3712,-1.3743,-1.3852,-1.3952,-1.3973,-1.4094,-1.423,-1.387,-1.3787,-1.3888,-1.4073,-1.4072,-1.4088,-1.4021,-1.3784,-1.3336,-1.3169,-1.3119,-1.32,-1.3346,-1.3419,-2.3416,-2.3232,-2.3135,-2.3144,-2.3144,-2.3144,-2.3144,-2.3144,-2.3144,-2.3057,-2.2882,-2.2794,-2.2618,-2.2362,-2.2106,-2.1928,-2.166,-2.1482,-2.1293,-2.1015,-2.0736,-2.0555,-2.0382,-2.0119,-1.9754,-1.9762,-1.9579,-1.9387,-1.9271,-1.8483,-1.8089,-1.762,-1.7054,-1.6604,-1.6004,-1.6095,-1.617,-1.6162,-1.6162,-1.6335,-1.6327,-1.6409,-1.6492,-1.6542,-1.6629,-1.6437,-1.6134,-1.5785,-1.5355,-1.4886,-1.4587,-1.4329,-1.426,-1.4206,-1.4145,-1.4072,-1.4008,-1.387,-1.3637,-1.3193,-1.2907,-1.276,-1.2673,-1.2686,-1.2707,-1.2533,-1.2553,-1.2478,-1.2443,-1.2494,-1.2866,-1.2963,-1.3169,-1.3478,-1.3552,-1.37,-1.3925,-1.4028,-1.4156,-1.4223,-1.4356,-1.4553,-1.4676,-1.4806,-1.4586,-1.4332,-1.4198,-1.4272,-1.4346,-1.4353,-1.4398,-1.4493,-1.4655,-1.4597,-1.4525,-1.4678,-1.4831,-1.4933,-1.4933,-1.4882,-1.4809,-1.4458,-1.4479,-1.4882,-1.4976,-1.4857,-1.4751,-1.4689,-1.423,-1.363,-1.3616,-1.3594,-1.3622,-1.3702,-1.3775,-2.3667,-2.3503,-2.3232,-2.3144,-2.3144,-2.3144,-2.3144,-2.3144,-2.3144,-2.3057,-2.3047,-2.2882,-2.2803,-2.2627,-2.2372,-2.2106,-2.1928,-2.166,-2.1383,-2.1293,-2.1105,-2.1006,-2.0817,-2.0555,-2.0292,-2.0209,-2.0027,-1.9853,-1.9671,-1.9125,-1.8803,-1.8329,-1.7818,-1.7143,-1.6193,-1.617,-1.6245,-1.6394,-1.6394,-1.6722,-1.6894,-1.6976,-1.7057,-1.7131,-1.718,-1.6927,-1.6708,-1.6537,-1.6293,-1.6166,-1.5348,-1.5032,-1.4993,-1.461,-1.4429,-1.4333,-1.4309,-1.4206,-1.4103,-1.336,-1.3184,-1.325,-1.3162,-1.3212,-1.3167,-1.3227,-1.3348,-1.3355,-1.353,-1.3705,-1.3881,-1.3916,-1.4085,-1.4247,-1.4405,-1.4462,-1.4693,-1.4846,-1.4967,-1.502,-1.533,-1.5613,-1.5688,-1.5786,-1.5606,-1.5343,-1.5137,-1.5108,-1.5255,-1.5204,-1.5138,-1.5212,-1.5286,-1.5286,-1.5272,-1.5666,-1.5921,-1.5936,-1.5793,-1.5598,-1.5591,-1.5539,-1.5569,-1.586,-1.5805,-1.5599,-1.5446,-1.5372,-1.495,-1.4682,-1.4132,-1.4076,-1.4095,-1.4129,-1.4137,-2.3667,-2.3493,-2.3232,-2.3144,-2.3144,-2.3144,-2.3144,-2.3144,-2.3144,-2.3144,-2.3047,-2.3057,-2.2882,-2.2803,-2.2627,-2.2362,-2.2106,-2.2008,-2.183,-2.1562,-2.1374,-2.1293,-2.1105,-2.0916,-2.0727,-2.0736,-2.0555,-2.0464,-2.0546,-1.9851,-1.938,-1.8879,-1.8179,-1.7376,-1.7098,-1.6992,-1.7066,-1.7066,-1.7057,-1.7139,-1.7302,-1.7302,-1.7383,-1.7473,-1.7383,-1.7293,-1.7224,-1.7179,-1.7282,-1.72,-1.636,-1.5902,-1.5794,-1.5509,-1.5501,-1.5517,-1.5525,-1.5391,-1.5249,-1.4766,-1.4261,-1.4029,-1.3918,-1.3948,-1.4067,-1.4258,-1.4307,-1.4296,-1.4358,-1.451,-1.4699,-1.4837,-1.4999,-1.5405,-1.5502,-1.5502,-1.5584,-1.5681,-1.5756,-1.5831,-1.6004,-1.6154,-1.6229,-1.6327,-1.6252,-1.6162,-1.5989,-1.5831,-1.5838,-1.5846,-1.5816,-1.5823,-1.5838,-1.5876,-1.6004,-1.6252,-1.6335,-1.6304,-1.6131,-1.5944,-1.6064,-1.626,-1.6237,-1.625,-1.6343,-1.6338,-1.6292,-1.6206,-1.606,-1.5799,-1.5209,-1.4751,-1.4704,-1.4621,-1.4497,-2.3754,-2.359,-2.3232,-2.3144,-2.3144,-2.3144,-2.3144,-2.3144,-2.3144,-2.3144,-2.3144,-2.3144,-2.3057,-2.2882,-2.2794,-2.2706,-2.2362,-2.2274,-2.2097,-2.183,-2.1741,-2.1562,-2.1472,-2.1293,-2.1105,-2.1096,-2.0997,-2.0997,-2.0907,-2.0491,-1.9913,-1.9281,-1.8351,-1.8062,-1.7806,-1.7635,-1.7473,-1.7473,-1.7554,-1.7716,-1.7797,-1.7878,-1.7878,-1.7887,-1.787,-1.7755,-1.7713,-1.7789,-1.8013,-1.7891,-1.7484,-1.6792,-1.669,-1.6521,-1.6471,-1.6362,-1.6277,-1.6109,-1.5855,-1.5771,-1.5288,-1.5051,-1.4878,-1.4804,-1.4805,-1.4902,-1.5038,-1.5035,-1.508,-1.5245,-1.5514,-1.5567,-1.5812,-1.6229,-1.6237,-1.6229,-1.6131,-1.6229,-1.6319,-1.6417,-1.659,-1.6656,-1.673,-1.6836,-1.6934,-1.6828,-1.6812,-1.6656,-1.65,-1.6492,-1.6409,-1.6409,-1.6492,-1.6574,-1.6574,-1.6656,-1.6664,-1.6582,-1.65,-1.6417,-1.6582,-1.6828,-1.6738,-1.673,-1.683,-1.6952,-1.7041,-1.7047,-1.6809,-1.6509,-1.6134,-1.5755,-1.5479,-1.5306,-1.5203,-2.381,-2.3734,-2.3309,-2.3144,-2.3144,-2.3144,-2.3144,-2.3144,-2.3144,-2.3144,-2.3144,-2.3144,-2.3047,-2.3047,-2.2882,-2.2794,-2.2715,-2.253,-2.2264,-2.2176,-2.1998,-2.1909,-2.1741,-2.1562,-2.1472,-2.1383,-2.1284,-2.1186,-2.1078,-2.0696,-2.0236,-1.9697,-1.8874,-1.8539,-1.829,-1.8049,-1.7797,-1.7959,-1.804,-1.821,-1.8282,-1.8531,-1.846,-1.846,-1.846,-1.8256,-1.8238,-1.8381,-1.8576,-1.8461,-1.8153,-1.7778,-1.745,-1.7073,-1.6707,-1.6505,-1.6546,-1.6588,-1.6536,-1.6561,-1.6451,-1.6174,-1.566,-1.5358,-1.5335,-1.5622,-1.5864,-1.5901,-1.5978,-1.6052,-1.6198,-1.6265,-1.6413,-1.6566,-1.6656,-1.664,-1.6535,-1.6617,-1.6788,-1.696,-1.7221,-1.7302,-1.7392,-1.749,-1.7588,-1.7571,-1.7546,-1.7546,-1.7383,-1.7066,-1.7066,-1.7066,-1.7147,-1.7229,-1.7229,-1.7147,-1.7066,-1.6984,-1.7066,-1.7066,-1.7229,-1.731,-1.7229,-1.7229,-1.7392,-1.7538,-1.7683,-1.7683,-1.7479,-1.7183,-1.7021,-1.6718,-1.6393,-1.6195,-1.6072,-2.3378,-2.3323,-2.3181,-2.3144,-2.3144,-2.3135,-2.3144,-2.3144,-2.3144,-2.3144,-2.3144,-2.3144,-2.3144,-2.3057,-2.3047,-2.2891,-2.2803,-2.2715,-2.2539,-2.2441,-2.2353,-2.2255,-2.2176,-2.2008,-2.1928,-2.1839,-2.1651,-2.1544,-2.1309,-2.095,-2.0098,-1.9383,-1.903,-1.8834,-1.87,-1.846,-1.8451,-1.8451,-1.8523,-1.8523,-1.8603,-1.8692,-1.878,-1.8798,-1.8789,-1.8594,-1.8683,-1.8887,-1.9083,-1.902,-1.878,-1.8541,-1.8338,-1.8171,-1.804,-1.804,-1.8048,-1.7969,-1.7785,-1.7618,-1.7417,-1.7296,-1.6844,-1.6651,-1.6571,-1.6565,-1.6782,-1.6758,-1.6782,-1.678,-1.6902,-1.6984,-1.7057,-1.7139,-1.7229,-1.7221,-1.7204,-1.7286,-1.7375,-1.7546,-1.7725,-1.7878,-1.7968,-1.8138,-1.8146,-1.8299,-1.8282,-1.8201,-1.8121,-1.7797,-1.7635,-1.7635,-1.7635,-1.7716,-1.7554,-1.7392,-1.7392,-1.7392,-1.7473,-1.7554,-1.7481,-1.7563,-1.7554,-1.7716,-1.7878,-1.8129,-1.8371,-1.829,-1.8049,-1.821,-1.8082,-1.7708,-1.7415,-1.7141,-1.6979,-2.2925,-2.2882,-2.2699,-2.2734,-2.291,-2.3066,-2.3144,-2.3144,-2.3144,-2.3144,-2.3144,-2.3144,-2.3144,-2.3144,-2.3057,-2.3057,-2.2969,-2.2882,-2.2803,-2.2627,-2.253,-2.2441,-2.2353,-2.2264,-2.2185,-2.2185,-2.2097,-2.1989,-2.1669,-2.1029,-2.0161,-1.9697,-1.9281,-1.9136,-1.9091,-1.9161,-1.917,-1.9082,-1.9002,-1.8834,-1.8834,-1.8913,-1.9011,-1.9029,-1.8931,-1.8931,-1.8931,-1.9225,-1.9234,-1.9314,-1.9118,-1.894,-1.8843,-1.8754,-1.8674,-1.8567,-1.8559,-1.8461,-1.8355,-1.8301,-1.8184,-1.8112,-1.7959,-1.7831,-1.7523,-1.7396,-1.7317,-1.7286,-1.7367,-1.7465,-1.7554,-1.7635,-1.7716,-1.7789,-1.7878,-1.7968,-1.7968,-1.7968,-1.7976,-1.8066,-1.8227,-1.8371,-1.846,-1.8647,-1.8718,-1.862,-1.8531,-1.8523,-1.8442,-1.829,-1.821,-1.8129,-1.8049,-1.8049,-1.7887,-1.7806,-1.7887,-1.7968,-1.804,-1.8049,-1.7887,-1.7968,-1.8129,-1.829,-1.8442,-1.8612,-1.87,-1.862,-1.854,-1.8709,-1.878,-1.8444,-1.8127,-1.8057,-1.7908,-2.2473,-2.2401,-2.203,-2.2148,-2.249,-2.2832,-2.2988,-2.296,-2.2959,-2.3076,-2.3115,-2.3144,-2.3144,-2.3144,-2.3144,-2.3144,-2.3057,-2.3057,-2.2969,-2.2803,-2.2794,-2.2706,-2.2618,-2.2441,-2.2441,-2.2441,-2.2306,-2.2142,-2.1976,-2.1221,-2.0503,-2.0195,-1.9761,-1.9566,-1.9557,-1.9636,-1.9636,-1.9627,-1.939,-1.9152,-1.9301,-1.9301,-1.9381,-1.939,-1.9301,-1.9283,-1.9283,-1.9292,-1.9301,-1.9301,-1.9311,-1.9231,-1.9082,-1.8931,-1.886,-1.878,-1.8851,-1.8851,-1.8772,-1.8692,-1.8692,-1.8692,-1.8692,-1.8505,-1.8247,-1.7989,-1.787,-1.7797,-1.7878,-1.7951,-1.804,-1.8129,-1.821,-1.8201,-1.829,-1.829,-1.829,-1.844,-1.8652,-1.8696,-1.8901,-1.9046,-1.9163,-1.938,-1.9416,-1.9111,-1.9066,-1.9084,-1.9066,-1.8913,-1.8717,-1.87,-1.8477,-1.8397,-1.8379,-1.8379,-1.846,-1.862,-1.8612,-1.854,-1.8308,-1.846,-1.87,-1.8772,-1.8772,-1.8772,-1.886,-1.886,-1.8851,-1.8931,-1.8931,-1.8931,-1.8798,-1.8717,-1.8655,-2.209,-2.197,-2.1912,-2.1953,-2.2041,-2.2139,-2.2207,-2.2187,-2.2187,-2.2559,-2.3047,-2.3125,-2.3115,-2.3086,-2.3125,-2.3144,-2.3144,-2.3144,-2.3057,-2.3057,-2.2969,-2.2969,-2.2872,-2.2706,-2.2706,-2.2618,-2.2454,-2.2082,-2.1532,-2.0993,-2.0457,-2.0071,-1.9872,-1.9872,-1.9872,-1.9942,-1.9942,-1.9942,-1.9863,-1.9618,-1.9678,-1.9784,-1.9794,-1.9784,-1.9696,-1.9395,-1.9307,-1.9386,-1.9502,-1.9687,-1.9784,-1.9636,-1.9487,-1.9408,-1.9329,-1.924,-1.9152,-1.9152,-1.9161,-1.9082,-1.9011,-1.8931,-1.8851,-1.878,-1.862,-1.8451,-1.8371,-1.8371,-1.8371,-1.8371,-1.8451,-1.8531,-1.87,-1.8692,-1.8736,-1.8736,-1.8736,-1.9012,-1.9281,-1.9497,-1.965,-1.9787,-1.998,-2.0016,-2.007,-2.008,-2.0089,-2.008,-2.0016,-1.997,-1.9444,-1.9273,-1.8798,-1.8754,-1.8834,-1.8843,-1.895,-1.8887,-1.8772,-1.878,-1.8798,-1.8931,-1.9073,-1.9011,-1.902,-1.9091,-1.9161,-1.9152,-1.9152,-1.9161,-1.924,-1.932,-1.9399,-1.9335,-1.9274,-2.1713,-2.1539,-2.1578,-2.1602,-2.1631,-2.1797,-2.1894,-2.1894,-2.1894,-2.2139,-2.2588,-2.2764,-2.2861,-2.293,-2.3037,-2.3096,-2.3096,-2.3144,-2.3057,-2.3144,-2.3076,-2.3057,-2.3047,-2.2911,-2.2969,-2.2862,-2.2524,-2.2101,-2.1269,-2.0881,-2.0547,-2.0165,-2.0098,-2.0098,-2.0098,-2.0098,-2.0177,-2.0245,-2.0167,-2.0157,-1.9991,-2.002,-2.0048,-1.996,-1.9854,-1.9552,-1.9659,-1.9747,-1.997,-2.0058,-1.9979,-1.9872,-1.9715,-1.9715,-1.9636,-1.9627,-1.9548,-1.9539,-1.9539,-1.9469,-1.932,-1.932,-1.932,-1.9329,-1.9329,-1.9161,-1.8843,-1.8851,-1.8772,-1.8772,-1.8772,-1.886,-1.9002,-1.8993,-1.9326,-1.9489,-1.9716,-2.0008,-2.0264,-2.0393,-2.0578,-2.0597,-2.0689,-2.0689,-2.0736,-2.0736,-2.0829,-2.082,-2.082,-2.0846,-2.0403,-1.9989,-1.9688,-1.9381,-1.9345,-1.9389,-1.9245,-1.9155,-1.9056,-1.917,-1.9338,-1.939,-1.945,-1.939,-1.9399,-1.9548,-1.9539,-1.9539,-1.9539,-1.9548,-1.9627,-1.9706,-1.9784,-1.9863,-1.9706,-2.1446,-2.1198,-2.1155,-2.1152,-2.1201,-2.1533,-2.1689,-2.1689,-2.1699,-2.168,-2.1768,-2.2148,-2.2344,-2.2559,-2.2773,-2.29,-2.292,-2.2764,-2.2861,-2.2881,-2.2881,-2.2773,-2.2793,-2.2814,-2.2746,-2.259,-2.2347,-2.186,-2.1247,-2.0944,-2.0632,-2.0381,-2.0342,-2.0342,-2.042,-2.0489,-2.0566,-2.0489,-2.0489,-2.0566,-2.0411,-2.0255,-2.0205,-2.0127,-2.0117,-2.002,-2.0127,-2.0332,-2.0546,-2.0439,-2.0224,-2.0117,-2.0029,-1.9951,-1.9872,-1.9863,-1.9784,-1.9784,-1.9863,-1.9784,-1.9794,-1.9872,-1.9872,-1.9882,-1.9891,-1.9743,-1.9436,-1.9277,-1.9197,-1.9188,-1.9197,-1.9359,-1.9421,-1.9565,-1.9896,-2.0182,-2.0569,-2.0969,-2.11,-2.1277,-2.1333,-2.1352,-2.1362,-2.1352,-2.1333,-2.1315,-2.1315,-2.1333,-2.1428,-2.1466,-2.1324,-2.1127,-2.0893,-2.055,-2.0191,-2.0044,-1.9979,-1.974,-1.9719,-1.9818,-1.9794,-1.9696,-1.9687,-1.9775,-1.9854,-1.9863,-1.9863,-1.9784,-1.9863,-1.9863,-1.9942,-1.9942,-2.002,-2.0029,-2.002,-2.1512,-2.1138,-2.083,-2.0703,-2.0723,-2.0801,-2.082,-2.082,-2.085,-2.082,-2.0986,-2.1299,-2.1641,-2.1992,-2.206,-2.2187,-2.2334,-2.2275,-2.2168,-2.2119,-2.2295,-2.2217,-2.2217,-2.2383,-2.2178,-2.2012,-2.1816,-2.1426,-2.1094,-2.084,-2.0596,-2.0498,-2.0489,-2.0498,-2.0576,-2.0576,-2.0576,-2.0576,-2.0576,-2.0576,-2.0576,-2.0489,-2.0489,-2.0489,-2.0489,-2.0479,-2.0489,-2.0576,-2.0586,-2.0586,-2.0508,-2.0342,-2.0255,-2.0177,-2.0098,-2.002,-2.002,-2.002,-2.002,-2.002,-2.002,-2.0125,-2.0134,-2.0144,-2.0084,-2.0103,-1.9944,-1.9944,-1.9865,-1.9837,-1.9883,-2.0145,-2.0301,-2.0451,-2.0705,-2.0902,-2.1193,-2.1448,-2.1703,-2.1807,-2.2016,-2.2064,-2.214,-2.213,-2.2121,-2.2102,-2.2083,-2.2102,-2.2054,-2.2149,-2.211,-2.2072,-2.1947,-2.1598,-2.1053,-2.0921,-2.0716,-2.0498,-2.0287,-2.0197,-2.0055,-1.9872,-1.9932,-2.001,-2.002,-1.9942,-1.9942,-2.002,-2.002,-2.002,-2.0177,-2.0264,-2.0264,-2.0264,-2.0255]},{"header":{"parameterUnit":"m.s-1","parameterCategory":1,"la1":31.0,"la2":29.5877,"lo1":-88.7671,"lo2":-86.6584,"dy":0.0162,"dx":0.0185,"nx":115,"ny":88,"refTime":"2023-08-14T06:00:00:Z","depth":0,"parameterNumber":3,"parameterNumberName":"V-component_of_WINDS"},"data":[0.0,0.0,0.0,0.0,0.0,0.0,0.0,0.0,0.0,0.0,0.0,0.0,0.0,0.0,0.0,0.0,0.0,0.0,0.0,0.0,0.0,0.0,0.0,0.0,0.0,0.0,0.0,0.0,0.0,0.0,0.0,0.0,0.0,0.0,0.0,0.0,0.0,0.0,0.0,0.0,0.0,0.0,0.0,0.0,0.0,0.0,0.0,0.0,0.0,0.0,0.0,0.0,0.0,0.0,0.0,0.0,0.0,0.0,0.0,0.0,0.0,0.0,0.0,0.0,0.0,0.0,0.0,0.0,0.0,0.0,0.0,0.0,0.0,0.0,0.0,0.0,0.0,0.0,0.0,0.0,0.0,0.0,0.0,0.0,0.0,0.0,0.0,0.0,0.0,0.0,0.0,0.0,0.0,0.0,0.0,0.0,0.0,0.0,0.0,0.0,0.0,0.0,0.0,0.0,0.0,0.0,0.0,0.0,0.0,0.0,0.0,0.0,0.0,0.0,0.0,0.0,0.0,0.0,0.0,0.0,0.0,0.0,0.0,0.0,0.0,0.0,0.0,0.0,0.0,0.0,0.0,0.0,0.0,0.0,0.0,0.0,0.0,0.0,0.0,0.0,0.0,0.0,0.0,0.0,0.0,0.0,0.0,0.0,0.0,0.0,0.0,0.0,0.0,0.0,0.0,0.0,0.0,0.0,0.0,0.0,0.0,0.0,0.0,0.0,0.0,0.0,0.0,0.0,0.0,0.0,0.0,0.0,0.0,0.0,0.0,0.0,0.0,0.0,0.0,0.0,0.0,0.0,0.0,0.0,0.0,0.0,0.0,0.0,0.0,0.0,0.0,0.0,0.0,0.0,0.0,0.0,0.0,0.0,0.0,0.0,0.0,0.0,0.0,0.0,0.0,0.0,0.0,0.0,0.0,0.0,0.0,0.0,0.0,0.0,0.0,0.0,0.0,0.0,0.0,0.0,0.0,0.0,0.0,0.0,0.0,0.0,0.0,0.0,0.0,0.0,0.0,0.0,0.0,0.0,0.0,0.0,0.0,0.0,0.0,0.0,0.0,0.0,0.0,0.0,0.0,0.0,0.0,0.0,0.0,0.0,0.0,0.0,0.0,0.0,0.0,0.0,0.0,0.0,0.0,0.0,0.0,0.0,0.0,0.0,0.0,0.0,0.0,0.0,0.0,0.0,0.0,0.0,0.0,0.0,0.0,0.0,0.0,0.0,0.0,0.0,0.0,0.0,0.0,0.0,0.0,0.0,0.0,0.0,0.0,0.0,0.0,0.0,0.0,0.0,0.0,0.0,0.0,0.0,0.0,0.0,0.0,0.0,0.0,0.0,0.0,0.0,0.0,0.0,0.0,0.0,0.0,0.0,0.0,0.0,0.0,0.0,0.0,0.0,0.0,0.0,0.0,0.0,0.0,0.0,0.0,0.0,0.0,0.0,0.0,0.0,0.0,0.0,0.0,0.0,0.0,0.0,0.0,0.0,0.0,0.0,0.0,0.0,0.0,0.0,0.0,0.0,0.0,0.0,0.0,0.0,0.0,0.0,0.0,0.0,0.0,0.0,0.0,0.0,0.0,0.0,0.0,0.0,0.0,0.0,0.0,0.0,0.0,0.0,0.0,0.0,0.0,0.0,0.0,0.0,0.0,0.0,0.0,0.0,0.0,0.0,0.0,0.0,0.0,0.0,0.0,0.0,0.0,0.0,0.0,0.0,0.0,0.0,0.0,0.0,0.0,0.0,0.0,0.0,0.0,0.0,0.0,0.0,0.0,0.0,0.0,0.0,0.0,0.0,0.0,0.0,0.0,0.0,0.0,0.0,0.0,0.0,0.0,0.0,0.0,0.0,0.0,0.0,0.0,0.0,0.0,0.0,0.0,0.0,0.0,0.0,0.0,0.0,0.0,0.0,0.0,0.0,0.0,0.0,0.0,0.0,0.0,0.0,0.0,0.0,0.0,0.0,0.0,0.0,0.0,0.0,0.0,0.0,0.0,0.0,0.0,0.0,0.0,0.0,0.0,0.0,0.0,0.0,0.0,0.0,0.0,0.0,0.0,0.0,0.0,0.0,0.0,0.0,0.0,0.0,0.0,0.0,0.0,0.0,0.0,0.0,0.0,0.0,0.0,0.0,0.0,0.0,0.0,0.0,0.0,0.0,0.0,0.0,0.0,0.0,0.0,0.0,0.0,0.0,0.0,0.0,0.0,0.0,0.0,0.0,0.0,0.0,0.0,0.0,0.0,0.0,0.0,0.0,0.0,0.0,0.0,0.0,0.0,0.0,0.0,0.0,0.0,0.0,0.0,0.0,0.0,0.0,0.0,0.0,0.0,0.0,0.0,0.0,0.0,0.0,0.0,0.0,0.0,0.0,0.0,0.0,0.0,0.0,0.0,0.0,0.0,0.0,0.0,0.0,0.0,0.0,0.0,0.0,0.0,0.0,0.0,0.0,0.0,0.0,0.0,0.0,0.0,0.0,0.0,0.0,0.0,0.0,0.0,0.0,0.0,0.0,0.0,0.0,0.0,0.0,0.0,0.0,0.0,0.0,0.0,0.0,0.0,0.0,0.0,0.0,0.0,0.0,0.0,0.0,0.0,0.0,0.0,0.0,0.0,0.0,0.0,0.0,0.0,0.0,0.0,0.0,0.0,0.0,0.0,0.0,0.0,0.0,0.0,0.0,0.0,0.0,0.0,0.0,0.0,0.0,0.0,0.0,0.0,0.0,0.0,0.0,0.0,0.0,0.0,0.0,0.0,0.0,0.0,0.0,0.0,0.0,0.0,0.0,0.0,0.0,0.0,0.0,0.0,0.0,0.0,0.0,0.0,0.0,0.0,0.0,0.0,0.0,0.0,0.0,0.0,0.0,0.0,0.0,0.0,0.0,0.0,0.0,0.0,0.0,0.0,0.0,0.0,0.0,0.0,0.0,0.0,0.0,0.0,0.0,0.0,0.0,0.0,0.0,0.0,0.0,0.0,0.0,0.0,0.0,0.0,0.0,0.0,0.0,0.0,0.0,0.0,0.0,0.0,0.0,0.0,0.0,0.0,0.0,0.0,0.0,0.0,0.0,0.0,0.0,0.0,0.0,0.0,0.0,0.0,0.0,0.0,0.0,0.0,0.0,0.0,0.0,0.0,0.0,0.0,0.0,0.0,0.0,0.0,0.0,0.0,0.0,0.0,0.0,0.0,0.0,0.0,0.0,0.0,0.0,0.0,0.0,0.0,0.0,0.0,0.0,0.0,0.0,0.0,0.0,0.0,0.0,0.0,0.0,0.0,0.0,0.0,0.0,0.0,0.0,0.0,0.0,0.0,0.0,0.0,0.0,0.0,0.0,0.0,0.0,0.0,0.0,0.0,0.0,0.0,0.0,0.0,0.0,0.0,0.0,0.0,0.0,0.0,0.0,0.0,0.0,0.0,0.0,0.0,0.0,0.0,0.0,0.0,0.0,0.0,0.0,0.0,0.0,0.0,0.0,0.0,0.0,0.0,0.0,0.0,0.0,0.0,0.0,0.0,0.0,0.0,0.0,0.0,0.0,0.0,0.0,0.0,0.0,0.0,0.0,0.0,0.0,0.0,0.0,0.0,0.0,0.0,0.0,0.0,0.0,0.0,0.0,0.0,0.0,0.0,0.0,0.0,0.0,0.0,0.0,0.0,0.0,0.0,0.0,0.0,0.0,0.0,0.0,0.0,0.0,0.0,0.0,0.0,0.0,0.0,0.0,0.0,0.0,0.0,0.0,0.0,0.0,0.0,0.0,0.0,0.0,0.0,0.0,0.0,0.0,0.0,0.0,0.0,0.0,0.0,0.0,0.0,0.0,0.0,0.0,0.0,0.0,0.0,0.0,0.0,0.0,0.0,0.0,0.0,0.0,0.0,0.0,0.0,0.0,0.0,0.0,0.0,0.0,0.0,0.0,0.0,0.0,0.0,0.0,0.0,0.0,0.0,0.0,0.0,0.0,0.0,0.0,0.0,0.0,0.0,0.0,0.0,0.0,0.0,0.0,0.0,0.0,0.0,0.0,0.0,0.0,0.0,0.0,0.0,0.0,0.0,0.0,0.0,0.0,0.0,0.0,0.0,0.0,0.0,0.0,0.0,0.0,0.0,0.0,0.0,0.0,0.0,0.0,0.0,0.0,0.0,0.0,0.0,0.0,0.0,0.0,0.0,0.0,0.0,0.0,0.0,0.0,0.0,0.0,0.0,0.0,0.0,0.0,0.0,0.0,0.0,0.0,0.0,0.0,0.0,0.0,0.0,0.0,-0.471,0.0,0.0,0.0,0.0,0.0,0.0,0.0,0.0,0.0,0.0,0.0,0.0,0.0,0.0,0.0,0.0,0.0,0.0,0.0,0.0,0.0,0.0,0.0,0.0,0.0,0.0,0.0,0.0,0.0,0.0,0.0,0.0,0.0,0.0,0.0,0.0,0.0,0.0,0.0,0.0,0.0,0.0,0.0,0.0,0.0,0.0,0.0,0.0,0.0,0.0,0.0,0.0,0.0,0.0,0.0,0.0,0.0,0.0,0.0,0.0,0.0,0.0,0.0,0.0,0.0,0.0,0.0,0.0,0.0,0.0,0.0,0.0,0.0,0.0,0.0,0.0,0.0,0.0,0.0,0.0,0.0,0.0,0.0,0.0,0.0,0.0,0.0,0.0,0.0,0.0,0.0,0.0,0.0,0.0,0.0,0.0,0.0,0.0,0.0,0.0,0.0,0.0,0.0,0.0,0.0,0.0,0.0,0.0,0.0,0.0,-0.3928,-0.4156,-0.4339,-0.4576,-0.478,0.0,0.0,0.0,0.0,0.0,0.0,0.0,0.0,0.0,0.0,0.0,0.0,0.0,0.0,0.0,0.0,0.0,0.0,0.0,0.0,0.0,0.0,0.0,0.0,0.0,0.0,0.0,0.0,0.0,0.0,0.0,0.0,0.0,0.0,0.0,0.0,0.0,0.0,0.0,0.0,0.0,0.0,0.0,0.0,0.0,0.0,0.0,0.0,0.0,0.0,0.0,0.0,0.0,0.0,0.0,0.0,0.0,0.0,0.0,0.0,0.0,0.0,0.0,0.0,0.0,0.0,0.0,0.0,0.0,0.0,0.0,0.0,0.0,0.0,0.0,0.0,0.0,0.0,0.0,0.0,0.0,0.0,0.0,0.0,0.0,0.0,0.0,0.0,0.0,0.0,0.0,0.0,0.0,0.0,0.0,0.0,0.0,0.0,0.0,0.0,0.0,0.0,0.0,0.0,0.0,0.0,0.0,0.0,0.0,0.0,0.0,0.0,-0.4538,-0.4736,-0.4902,0.0,0.0,0.0,0.0,0.0,0.0,0.0,0.0,0.0,0.0,0.0,0.0,0.0,0.0,0.0,0.0,0.0,0.0,0.0,0.0,0.0,0.0,0.0,0.0,0.0,0.0,0.0,0.0,0.0,0.0,0.0,0.0,0.0,0.0,0.0,0.0,0.0,0.0,0.0,0.0,0.0,0.0,0.0,0.0,0.0,0.0,0.0,0.0,0.0,0.0,0.0,0.0,0.0,0.0,0.0,0.0,0.0,0.0,0.0,0.0,0.0,0.0,0.0,0.0,0.0,0.0,0.0,0.0,0.0,0.0,0.0,0.0,0.0,0.0,0.0,0.0,0.0,0.0,0.0,0.0,0.0,0.0,0.0,0.0,0.0,0.0,0.0,0.0,0.0,0.0,0.0,0.0,0.0,0.0,0.0,0.0,0.0,0.0,0.0,0.0,0.0,0.0,0.0,0.0,0.0,0.0,0.0,0.0,0.0,0.0,-0.4312,-0.4382,-0.4646,0.0,-0.5214,0.0,0.0,0.0,0.0,0.0,0.0,0.0,0.0,0.0,0.0,0.0,0.0,0.0,0.0,0.0,0.0,0.0,0.0,0.0,0.0,0.0,0.0,0.0,0.0,0.0,0.0,0.0,0.0,0.0,0.0,0.0,0.0,0.0,0.0,0.0,0.0,0.0,0.0,0.0,0.0,0.0,0.0,0.0,0.0,0.0,0.0,0.0,0.0,0.0,0.0,0.0,0.0,0.0,0.0,0.0,0.0,0.0,0.0,0.0,0.0,0.0,0.0,0.0,0.0,0.0,0.0,0.0,0.0,0.0,0.0,0.0,0.0,0.0,0.0,0.0,0.0,0.0,0.0,0.0,0.0,0.0,0.0,0.0,0.0,0.0,0.0,0.0,0.0,0.0,0.0,0.0,0.0,0.0,0.0,0.0,0.0,0.0,0.0,0.0,0.0,0.0,0.0,0.0,0.0,0.0,0.0,0.0,0.0,0.0,0.0,-0.4409,-0.4634,-0.4928,-0.5182,0.0,0.0,0.0,0.0,0.0,0.0,0.0,0.0,0.0,0.0,0.0,0.0,0.0,0.0,0.0,0.0,0.0,0.0,0.0,0.0,0.0,0.0,0.0,0.0,0.0,0.0,0.0,0.0,0.0,0.0,0.0,0.0,0.0,0.0,0.0,0.0,0.0,0.0,0.0,0.0,0.0,0.0,0.0,0.0,0.0,0.0,0.0,0.0,0.0,0.0,0.0,0.0,0.0,0.0,0.0,0.0,0.0,0.0,0.0,0.0,0.0,0.0,0.0,0.0,0.0,0.0,0.0,0.0,0.0,0.0,0.0,0.0,0.0,0.0,0.0,0.0,0.0,0.0,0.0,0.0,0.0,0.0,0.0,0.0,0.0,0.0,0.0,0.0,0.0,0.0,0.0,0.0,0.0,0.0,0.0,0.0,0.0,0.0,0.0,0.0,0.0,0.0,0.0,0.0,0.0,0.0,0.0,0.0,0.0,0.0,-0.4388,-0.4602,-0.4947,-0.5182,-0.5372,-0.5585,0.0,0.0,0.0,0.0,0.0,0.0,0.0,0.0,0.0,0.0,0.0,0.0,0.0,0.0,0.0,0.0,0.0,0.0,0.0,0.0,0.0,0.0,0.0,0.0,0.0,0.0,0.0,0.0,0.0,0.0,0.0,0.0,0.0,0.0,0.0,0.0,0.0,0.0,0.0,0.0,0.0,0.0,0.0,0.0,0.0,0.0,0.0,0.0,0.0,0.0,0.0,0.0,0.0,0.0,0.0,0.0,0.0,0.0,0.0,0.0,0.0,0.0,0.0,0.0,0.0,0.0,0.0,0.0,0.0,0.0,0.0,0.0,0.0,0.0,0.0,0.0,0.0,0.0,0.0,0.0,0.0,0.0,0.0,0.0,0.0,0.0,0.0,0.0,0.0,0.0,0.0,0.0,0.0,0.0,0.0,0.0,0.0,0.0,0.0,0.0,0.0,0.0,0.0,0.0,0.0,0.0,0.0,0.0,-0.4481,-0.469,-0.4934,-0.5246,-0.5277,-0.5467,0.0,0.0,0.0,0.0,0.0,0.0,0.0,0.0,0.0,0.0,0.0,0.0,0.0,0.0,0.0,0.0,0.0,0.0,0.0,0.0,0.0,0.0,0.0,0.0,0.0,0.0,0.0,0.0,0.0,0.0,0.0,0.0,0.0,0.0,0.0,0.0,0.0,0.0,0.0,0.0,0.0,0.0,0.0,0.0,0.0,0.0,0.0,0.0,0.0,0.0,0.0,0.0,0.0,0.0,0.0,0.0,0.0,0.0,0.0,0.0,0.0,0.0,0.0,0.0,0.0,0.0,0.0,0.0,0.0,0.0,0.0,0.0,0.0,0.0,0.0,0.0,0.0,0.0,0.0,0.0,0.0,0.0,0.0,0.0,0.0,0.0,0.0,0.0,0.0,0.0,0.0,0.0,0.0,0.0,0.0,0.0,0.0,0.0,0.0,0.0,0.0,0.0,0.0,0.0,0.0,0.0,0.0,0.0,0.0,-0.4746,-0.4998,-0.5207,-0.5347,-0.5529,-0.5686,0.0,0.0,0.0,0.0,0.0,0.0,0.0,0.0,0.0,0.0,0.0,0.0,0.0,0.0,0.0,0.0,0.0,0.0,0.0,0.0,0.0,0.0,0.0,0.0,0.0,0.0,0.0,0.0,0.0,0.0,0.0,0.0,0.0,0.0,0.0,0.0,0.0,0.0,0.0,0.0,0.0,0.0,0.0,0.0,0.0,0.0,0.0,0.0,0.0,0.0,0.0,0.0,0.0,0.0,0.0,0.0,0.0,0.0,0.0,0.0,0.0,0.0,0.0,0.0,0.0,0.0,0.0,0.0,0.0,0.0,0.0,0.0,0.0,0.0,0.0,0.0,0.0,0.0,0.0,0.0,0.0,0.0,0.0,0.0,0.0,0.0,0.0,0.0,0.0,0.0,0.0,0.0,0.0,0.0,0.0,0.0,0.0,0.0,0.0,0.0,0.0,0.0,0.0,0.0,0.0,0.0,0.0,0.0,0.0,-0.5215,0.0,-0.5557,-0.569,-0.5877,-0.5953,0.0,0.0,0.0,0.0,0.0,0.0,0.0,0.0,0.0,0.0,0.0,0.0,0.0,0.0,0.0,0.0,0.0,0.0,0.0,0.0,0.0,0.0,0.0,0.0,0.0,0.0,0.0,0.0,0.0,0.0,0.0,0.0,0.0,0.0,0.0,0.0,0.0,0.0,0.0,0.0,0.0,0.0,0.0,0.0,0.0,0.0,0.0,0.0,0.0,0.0,0.0,0.0,0.0,0.0,0.0,0.0,0.0,0.0,0.0,0.0,0.0,0.0,0.0,0.0,0.0,0.0,0.0,0.0,0.0,0.0,0.0,0.0,0.0,0.0,0.0,0.0,0.0,0.0,0.0,0.0,0.0,0.0,0.0,0.0,0.0,0.0,0.0,0.0,0.0,0.0,0.0,0.0,0.0,0.0,0.0,0.0,0.0,0.0,0.0,0.0,0.0,0.0,0.0,0.0,0.0,0.0,0.0,0.0,-0.53,-0.5869,-0.5974,-0.6123,-0.6292,-0.6297,-0.6248,0.0,0.0,0.0,0.0,0.0,0.0,0.0,0.0,0.0,0.0,0.0,0.0,0.0,0.0,0.0,0.0,0.0,0.0,0.0,0.0,0.0,0.0,0.0,0.0,0.0,0.0,0.0,0.0,0.0,0.0,0.0,0.0,0.0,0.0,0.0,0.0,0.0,0.0,0.0,0.0,0.0,0.0,0.0,0.0,0.0,0.0,0.0,0.0,0.0,0.0,0.0,0.0,0.0,0.0,0.0,0.0,0.0,0.0,0.0,0.0,0.0,0.0,0.0,0.0,0.0,0.0,0.0,0.0,0.0,0.0,0.0,0.0,0.0,0.0,0.0,0.0,0.0,0.0,0.0,0.0,0.0,0.0,0.0,0.0,0.0,0.0,0.0,0.0,0.0,0.0,0.0,0.0,0.0,0.0,0.0,0.0,0.0,0.0,0.0,0.0,0.0,0.0,0.0,0.0,0.0,0.0,0.0,0.0,0.0,-0.6585,-0.6695,-0.6811,-0.687,-0.6689,-0.6576,0.0,0.0,0.0,0.0,0.0,0.0,0.0,0.0,0.0,0.0,0.0,0.0,0.0,0.0,0.0,0.0,0.0,0.0,0.0,0.0,0.0,0.0,0.0,0.0,0.0,0.0,0.0,0.0,0.0,0.0,0.0,0.0,0.0,0.0,0.0,0.0,0.0,0.0,0.0,0.0,0.0,0.0,0.0,0.0,0.0,0.0,0.0,0.0,0.0,0.0,0.0,0.0,0.0,0.0,0.0,0.0,0.0,0.0,0.0,0.0,0.0,0.0,0.0,0.0,0.0,0.0,0.0,0.0,0.0,0.0,0.0,0.0,0.0,0.0,0.0,0.0,0.0,0.0,0.0,0.0,0.0,0.0,0.0,0.0,0.0,0.0,0.0,0.0,0.0,0.0,0.0,0.0,0.0,0.0,0.0,0.0,0.0,0.0,0.0,0.0,0.0,0.0,0.0,0.0,0.0,0.0,0.0,0.0,0.0,-0.7743,-0.7548,-0.7402,-0.7334,-0.722,-0.7017,-0.6846,0.0,0.0,0.0,0.0,0.0,0.0,0.0,0.0,0.0,0.0,0.0,0.0,0.0,0.0,0.0,0.0,0.0,0.0,0.0,0.0,0.0,0.0,0.0,0.0,0.0,0.0,0.0,0.0,0.0,0.0,0.0,0.0,0.0,0.0,0.0,0.0,0.0,0.0,0.0,0.0,0.0,0.0,0.0,0.0,0.0,0.0,0.0,0.0,0.0,0.0,0.0,0.0,0.0,0.0,0.0,0.0,0.0,0.0,0.0,0.0,0.0,0.0,0.0,0.0,0.0,0.0,0.0,0.0,0.0,0.0,0.0,0.0,0.0,0.0,0.0,0.0,0.0,0.0,0.0,0.0,0.0,0.0,0.0,0.0,0.0,0.0,0.0,0.0,0.0,0.0,0.0,0.0,0.0,0.0,0.0,0.0,0.0,0.0,0.0,0.0,0.0,0.0,0.0,0.0,0.0,0.0,0.0,0.0,-0.9257,-0.8529,-0.8039,-0.7873,-0.7833,-0.7552,0.0,0.0,0.0,0.0,0.0,0.0,0.0,0.0,0.0,0.0,0.0,0.0,0.0,0.0,0.0,0.0,0.0,0.0,0.0,0.0,0.0,0.0,0.0,0.0,0.0,0.0,0.0,0.0,0.0,0.0,0.0,0.0,0.0,0.0,0.0,0.0,0.0,0.0,0.0,0.0,0.0,0.0,0.0,0.0,0.0,0.0,0.0,0.0,0.0,0.0,0.0,0.0,0.0,0.0,0.0,0.0,0.0,0.0,0.0,0.0,0.0,0.0,0.0,0.0,0.0,0.0,0.0,0.0,0.0,0.0,0.0,0.0,0.0,0.0,0.0,0.0,0.0,0.0,0.0,0.0,0.0,0.0,0.0,0.0,0.0,0.0,0.0,0.0,0.0,0.0,0.0,0.0,0.0,0.0,0.0,0.0,0.0,0.0,0.0,0.0,0.0,0.0,0.0,0.0,0.0,0.0,0.0,0.0,0.0,-0.9765,-0.9558,-0.9187,-0.8631,-0.8334,-0.8169,0.0,0.0,0.0,0.0,0.0,0.0,0.0,0.0,0.0,0.0,0.0,0.0,0.0,0.0,0.0,0.0,0.0,0.0,0.0,0.0,0.0,0.0,0.0,0.0,0.0,0.0,0.0,0.0,0.0,0.0,0.0,0.0,0.0,0.0,0.0,0.0,0.0,0.0,0.0,0.0,0.0,0.0,0.0,0.0,0.0,0.0,0.0,0.0,0.0,0.0,0.0,0.0,0.0,0.0,0.0,0.0,0.0,0.0,0.0,0.0,0.0,0.0,0.0,0.0,0.0,0.0,0.0,0.0,0.0,0.0,0.0,0.0,0.0,0.0,0.0,0.0,0.0,0.0,0.0,0.0,0.0,0.0,0.0,0.0,0.0,0.0,0.0,0.0,0.0,0.0,0.0,0.0,0.0,0.0,0.0,0.0,0.0,0.0,0.0,0.0,0.0,0.0,0.0,0.0,0.0,0.0,0.0,0.0,-1.0411,-1.0666,-1.0488,-1.0088,-0.9506,-0.8998,-0.8682,0.0,0.0,0.0,0.0,0.0,0.0,0.0,0.0,0.0,0.0,0.0,0.0,0.0,0.0,0.0,0.0,0.0,0.0,0.0,0.0,0.0,0.0,0.0,0.0,0.0,0.0,0.0,0.0,0.0,0.0,0.0,0.0,0.0,0.0,0.0,0.0,0.0,0.0,0.0,0.0,0.0,0.0,0.0,0.0,0.0,0.0,0.0,0.0,0.0,0.0,0.0,0.0,0.0,0.0,0.0,0.0,0.0,0.0,0.0,0.0,0.0,0.0,0.0,0.0,0.0,0.0,0.0,0.0,0.0,0.0,0.0,0.0,0.0,0.0,0.0,0.0,0.0,0.0,0.0,0.0,0.0,0.0,0.0,0.0,0.0,0.0,0.0,0.0,0.0,0.0,0.0,0.0,0.0,0.0,0.0,0.0,0.0,0.0,0.0,0.0,0.0,0.0,0.0,0.0,0.0,0.0,0.0,0.0,-1.1382,-1.1627,-1.1211,-1.0802,-1.0438,-0.9755,-0.9277,0.0,0.0,0.0,0.0,0.0,0.0,0.0,0.0,0.0,0.0,0.0,0.0,0.0,0.0,0.0,0.0,0.0,0.0,0.0,0.0,0.0,0.0,0.0,0.0,0.0,0.0,0.0,0.0,0.0,0.0,0.0,0.0,0.0,0.0,0.0,0.0,0.0,0.0,0.0,0.0,0.0,0.0,0.0,0.0,0.0,0.0,0.0,0.0,0.0,0.0,0.0,0.0,0.0,0.0,0.0,0.0,0.0,0.0,0.0,0.0,0.0,0.0,0.0,0.0,0.0,0.0,0.0,0.0,0.0,0.0,0.0,0.0,0.0,0.0,0.0,0.0,0.0,0.0,0.0,0.0,0.0,0.0,0.0,0.0,0.0,0.0,0.0,0.0,0.0,0.0,0.0,0.0,0.0,0.0,0.0,0.0,0.0,0.0,0.0,0.0,0.0,0.0,0.0,0.0,0.0,0.0,0.0,0.0,-1.1918,-1.1834,-1.1671,-1.1516,-1.1255,-1.038,-0.9884,0.0,0.0,0.0,0.0,0.0,0.0,0.0,0.0,0.0,0.0,0.0,0.0,0.0,0.0,0.0,0.0,0.0,0.0,0.0,0.0,0.0,0.0,0.0,0.0,0.0,0.0,0.0,0.0,0.0,0.0,0.0,0.0,0.0,0.0,0.0,0.0,0.0,0.0,0.0,0.0,0.0,0.0,0.0,0.0,0.0,0.0,0.0,0.0,-1.6335,0.0,0.0,0.0,0.0,0.0,0.0,0.0,0.0,0.0,0.0,0.0,0.0,0.0,0.0,0.0,0.0,0.0,0.0,0.0,0.0,0.0,0.0,0.0,0.0,0.0,0.0,0.0,0.0,0.0,0.0,0.0,0.0,0.0,0.0,0.0,0.0,0.0,0.0,0.0,0.0,0.0,0.0,0.0,0.0,0.0,0.0,0.0,0.0,0.0,0.0,0.0,0.0,0.0,0.0,0.0,0.0,0.0,0.0,0.0,-1.318,-1.3186,-1.2898,-1.2593,-1.2298,-1.1508,-1.0905,0.0,0.0,0.0,0.0,0.0,0.0,0.0,0.0,0.0,0.0,0.0,0.0,0.0,0.0,0.0,0.0,0.0,0.0,0.0,0.0,0.0,0.0,0.0,0.0,0.0,0.0,0.0,0.0,0.0,0.0,0.0,0.0,0.0,0.0,0.0,0.0,0.0,0.0,0.0,0.0,0.0,0.0,0.0,0.0,0.0,0.0,0.0,0.0,0.0,0.0,0.0,0.0,0.0,0.0,0.0,0.0,0.0,0.0,0.0,0.0,0.0,0.0,0.0,0.0,0.0,0.0,0.0,0.0,0.0,0.0,0.0,0.0,0.0,0.0,0.0,0.0,0.0,0.0,0.0,0.0,0.0,0.0,0.0,0.0,0.0,0.0,0.0,0.0,0.0,0.0,0.0,0.0,0.0,0.0,0.0,0.0,0.0,0.0,0.0,0.0,0.0,0.0,0.0,0.0,0.0,0.0,0.0,-1.4508,-1.467,-1.4866,-1.4387,-1.3889,-1.3403,-1.291,-1.2205,-1.1324,0.0,0.0,0.0,0.0,0.0,0.0,0.0,0.0,0.0,0.0,0.0,0.0,0.0,0.0,0.0,0.0,0.0,0.0,0.0,0.0,0.0,0.0,0.0,0.0,0.0,0.0,0.0,0.0,0.0,0.0,0.0,0.0,0.0,0.0,0.0,0.0,0.0,0.0,-1.5193,-1.615,0.0,0.0,0.0,0.0,0.0,0.0,0.0,0.0,-2.0168,0.0,0.0,0.0,0.0,0.0,0.0,0.0,0.0,0.0,0.0,0.0,0.0,0.0,0.0,0.0,0.0,0.0,0.0,0.0,0.0,0.0,0.0,0.0,0.0,0.0,0.0,0.0,0.0,0.0,0.0,0.0,0.0,0.0,0.0,0.0,0.0,0.0,0.0,0.0,0.0,0.0,0.0,0.0,0.0,0.0,0.0,0.0,0.0,0.0,0.0,0.0,0.0,0.0,0.0,0.0,0.0,-1.5452,-1.5965,-1.608,-1.5791,-1.5628,-1.5136,-1.4262,-1.4486,-1.4009,-1.2706,0.0,0.0,0.0,0.0,0.0,0.0,0.0,0.0,0.0,0.0,0.0,0.0,0.0,0.0,0.0,0.0,0.0,0.0,0.0,0.0,0.0,0.0,0.0,0.0,0.0,0.0,0.0,0.0,0.0,0.0,0.0,0.0,0.0,0.0,0.0,0.0,0.0,0.0,0.0,-1.8573,-1.9648,0.0,0.0,0.0,0.0,0.0,0.0,0.0,0.0,-2.0676,0.0,0.0,0.0,0.0,0.0,0.0,0.0,0.0,0.0,0.0,0.0,0.0,0.0,0.0,0.0,0.0,0.0,0.0,0.0,0.0,0.0,0.0,0.0,0.0,0.0,0.0,0.0,0.0,0.0,0.0,0.0,0.0,0.0,0.0,0.0,0.0,0.0,0.0,0.0,0.0,0.0,0.0,0.0,0.0,0.0,0.0,0.0,0.0,0.0,0.0,0.0,0.0,0.0,0.0,0.0,-1.631,-1.6789,-1.7027,-1.7078,-1.6962,-1.661,-1.5918,-1.5485,-1.4893,0.0,0.0,0.0,0.0,0.0,0.0,0.0,0.0,0.0,0.0,0.0,0.0,0.0,0.0,0.0,0.0,0.0,0.0,0.0,0.0,0.0,0.0,0.0,0.0,0.0,0.0,0.0,0.0,0.0,0.0,0.0,0.0,0.0,0.0,0.0,0.0,0.0,0.0,0.0,0.0,-1.9809,-2.0581,-2.1117,0.0,0.0,0.0,0.0,0.0,0.0,-2.2329,-2.2053,0.0,0.0,0.0,0.0,0.0,0.0,0.0,0.0,0.0,0.0,0.0,0.0,0.0,0.0,0.0,0.0,0.0,0.0,0.0,0.0,0.0,0.0,0.0,0.0,0.0,0.0,0.0,0.0,0.0,0.0,0.0,0.0,0.0,0.0,0.0,0.0,0.0,0.0,0.0,0.0,0.0,0.0,0.0,0.0,0.0,0.0,0.0,0.0,0.0,0.0,0.0,0.0,0.0,0.0,0.0,-1.7302,-1.7646,-1.806,-1.8529,-1.8381,-1.8081,-1.7596,-1.6545,-1.5799,0.0,0.0,0.0,0.0,0.0,0.0,0.0,0.0,0.0,0.0,0.0,0.0,0.0,0.0,0.0,0.0,0.0,0.0,0.0,0.0,0.0,0.0,0.0,0.0,0.0,0.0,0.0,0.0,0.0,0.0,0.0,0.0,0.0,0.0,0.0,0.0,0.0,0.0,0.0,0.0,0.0,-2.12,-2.2163,-2.2368,0.0,0.0,0.0,0.0,-2.3106,-2.3436,0.0,0.0,0.0,0.0,0.0,0.0,0.0,0.0,0.0,0.0,0.0,0.0,0.0,0.0,0.0,0.0,0.0,0.0,0.0,0.0,0.0,0.0,0.0,0.0,0.0,0.0,0.0,0.0,0.0,0.0,0.0,0.0,0.0,0.0,0.0,0.0,0.0,0.0,0.0,0.0,0.0,0.0,0.0,0.0,0.0,0.0,0.0,0.0,0.0,0.0,0.0,0.0,0.0,0.0,0.0,0.0,-1.8654,-1.9045,-1.9524,-2.0008,-1.9797,-1.9301,-1.8555,-1.8086,-1.7397,0.0,0.0,0.0,0.0,0.0,0.0,0.0,0.0,0.0,0.0,0.0,0.0,0.0,0.0,0.0,0.0,0.0,0.0,0.0,0.0,0.0,0.0,0.0,0.0,0.0,0.0,0.0,0.0,0.0,0.0,0.0,0.0,0.0,0.0,0.0,0.0,0.0,0.0,0.0,0.0,0.0,-2.2264,-2.3211,-2.3439,-2.379,0.0,0.0,-2.4102,-2.471,-2.4286,0.0,0.0,0.0,0.0,0.0,0.0,0.0,0.0,0.0,0.0,0.0,0.0,0.0,0.0,0.0,0.0,0.0,0.0,0.0,0.0,0.0,0.0,0.0,0.0,0.0,0.0,0.0,0.0,0.0,0.0,0.0,0.0,0.0,0.0,0.0,0.0,0.0,0.0,0.0,0.0,0.0,0.0,0.0,0.0,0.0,0.0,0.0,0.0,0.0,0.0,0.0,0.0,0.0,0.0,0.0,-1.8677,-1.9389,-1.9835,-2.0333,-2.0879,-2.0667,-2.0296,-1.9863,-1.9243,-1.8532,0.0,0.0,0.0,0.0,0.0,0.0,0.0,0.0,0.0,0.0,0.0,0.0,0.0,0.0,0.0,0.0,0.0,0.0,0.0,0.0,0.0,0.0,0.0,0.0,0.0,0.0,0.0,0.0,0.0,0.0,0.0,0.0,0.0,0.0,0.0,0.0,0.0,0.0,0.0,0.0,0.0,0.0,-2.416,-2.4448,0.0,0.0,0.0,-2.4777,-2.5143,0.0,0.0,0.0,0.0,0.0,0.0,0.0,0.0,0.0,0.0,0.0,0.0,0.0,0.0,0.0,0.0,0.0,0.0,0.0,0.0,0.0,0.0,0.0,0.0,0.0,0.0,0.0,0.0,0.0,0.0,0.0,0.0,0.0,0.0,0.0,0.0,0.0,0.0,0.0,0.0,0.0,0.0,0.0,0.0,0.0,0.0,0.0,0.0,0.0,0.0,0.0,0.0,0.0,0.0,0.0,0.0,0.0,-2.0212,-2.0555,-2.1007,-2.1598,-2.1415,-2.1215,-2.1043,-2.0258,0.0,0.0,0.0,0.0,0.0,0.0,0.0,0.0,0.0,0.0,0.0,0.0,0.0,0.0,0.0,0.0,0.0,0.0,0.0,0.0,0.0,0.0,0.0,0.0,0.0,0.0,0.0,-1.6477,0.0,0.0,0.0,0.0,0.0,0.0,0.0,0.0,0.0,0.0,0.0,0.0,0.0,0.0,-2.3232,-2.4829,-2.5082,-2.5141,0.0,0.0,-2.5273,-2.5312,-2.5273,-2.4955,0.0,0.0,0.0,0.0,0.0,0.0,0.0,0.0,0.0,0.0,0.0,0.0,0.0,0.0,0.0,0.0,0.0,0.0,0.0,0.0,0.0,0.0,0.0,0.0,0.0,0.0,0.0,0.0,0.0,0.0,0.0,0.0,0.0,0.0,0.0,0.0,0.0,0.0,0.0,0.0,0.0,0.0,0.0,0.0,0.0,0.0,0.0,0.0,0.0,0.0,0.0,0.0,0.0,0.0,0.0,-2.1436,-2.131,-2.1569,-2.2202,-2.2106,-2.2003,-2.2001,-2.116,-2.0401,0.0,0.0,0.0,0.0,0.0,0.0,0.0,0.0,0.0,0.0,0.0,0.0,0.0,0.0,0.0,0.0,0.0,0.0,0.0,0.0,0.0,0.0,0.0,0.0,0.0,0.0,0.0,0.0,0.0,0.0,0.0,0.0,0.0,0.0,0.0,0.0,0.0,0.0,0.0,0.0,0.0,-2.3999,-2.5034,-2.5206,-2.5212,0.0,0.0,-2.5389,-2.5389,-2.5389,-2.51,-2.4233,0.0,0.0,0.0,0.0,0.0,0.0,0.0,0.0,0.0,0.0,0.0,0.0,0.0,0.0,0.0,0.0,0.0,0.0,0.0,0.0,0.0,0.0,0.0,0.0,0.0,0.0,0.0,0.0,0.0,0.0,0.0,0.0,0.0,0.0,0.0,0.0,0.0,0.0,0.0,0.0,0.0,0.0,0.0,0.0,0.0,0.0,0.0,0.0,0.0,0.0,0.0,0.0,0.0,-2.1033,-2.2,-2.2364,-2.2648,-2.2842,-2.2677,-2.261,-2.2593,-2.2228,-2.1737,0.0,0.0,0.0,0.0,0.0,0.0,0.0,0.0,0.0,0.0,0.0,0.0,0.0,0.0,0.0,0.0,0.0,0.0,0.0,0.0,0.0,0.0,0.0,0.0,0.0,0.0,0.0,0.0,-2.0546,-2.1003,-2.1329,0.0,0.0,0.0,0.0,0.0,0.0,0.0,0.0,0.0,0.0,-2.419,-2.5113,-2.5252,0.0,0.0,-2.5398,-2.5397,-2.5397,-2.5387,-2.5481,-2.5674,-2.4816,0.0,0.0,0.0,0.0,0.0,0.0,0.0,0.0,0.0,0.0,0.0,0.0,0.0,0.0,0.0,0.0,0.0,0.0,0.0,0.0,0.0,0.0,0.0,0.0,0.0,0.0,0.0,0.0,0.0,0.0,0.0,0.0,0.0,0.0,0.0,0.0,0.0,0.0,0.0,0.0,0.0,0.0,0.0,0.0,0.0,0.0,0.0,0.0,0.0,0.0,0.0,0.0,-2.2066,-2.2797,-2.3245,-2.3453,-2.3383,-2.3236,-2.3175,-2.3187,-2.3126,-2.2792,0.0,0.0,0.0,0.0,0.0,0.0,0.0,0.0,0.0,0.0,0.0,0.0,0.0,0.0,0.0,0.0,0.0,0.0,0.0,0.0,0.0,0.0,0.0,0.0,0.0,0.0,0.0,0.0,-2.1359,-2.1732,-2.1464,0.0,0.0,0.0,0.0,0.0,0.0,0.0,0.0,0.0,0.0,-2.4933,-2.56,-2.5707,-2.564,-2.5436,-2.5423,-2.5412,-2.544,-2.5638,-2.6022,-2.6629,0.0,0.0,0.0,0.0,0.0,0.0,0.0,0.0,0.0,0.0,0.0,0.0,0.0,0.0,0.0,0.0,0.0,0.0,0.0,0.0,0.0,0.0,0.0,0.0,0.0,0.0,0.0,0.0,0.0,0.0,-1.8943,0.0,0.0,0.0,0.0,0.0,0.0,0.0,0.0,0.0,0.0,0.0,0.0,0.0,0.0,0.0,0.0,0.0,0.0,0.0,0.0,0.0,0.0,-2.3198,-2.3959,-2.3899,-2.3855,-2.3795,-2.3795,-2.3767,-2.3763,-2.3787,-2.3462,-2.2795,0.0,0.0,0.0,0.0,0.0,0.0,0.0,0.0,0.0,0.0,0.0,0.0,0.0,0.0,0.0,0.0,0.0,0.0,0.0,0.0,0.0,0.0,0.0,0.0,0.0,0.0,-2.1867,-2.2453,-2.2472,0.0,0.0,0.0,0.0,0.0,0.0,0.0,0.0,0.0,0.0,-2.6004,-2.6564,-2.6564,-2.663,-2.6406,-2.5595,-2.5492,-2.5515,-2.5553,-2.6236,-2.6767,0.0,0.0,0.0,0.0,0.0,0.0,0.0,0.0,0.0,0.0,0.0,0.0,0.0,0.0,0.0,0.0,0.0,0.0,0.0,0.0,0.0,0.0,0.0,0.0,0.0,0.0,0.0,-2.2142,-2.2094,0.0,0.0,0.0,0.0,0.0,0.0,0.0,0.0,0.0,0.0,0.0,-2.4651,-2.4671,0.0,0.0,0.0,0.0,0.0,0.0,0.0,0.0,0.0,0.0,0.0,0.0,-2.3574,-2.4229,-2.4248,-2.4192,-2.4136,-2.4135,-2.4137,-2.4143,-2.4136,-2.3842,-2.3235,0.0,0.0,0.0,0.0,0.0,0.0,0.0,0.0,0.0,0.0,0.0,0.0,0.0,0.0,0.0,0.0,0.0,0.0,0.0,0.0,0.0,0.0,0.0,0.0,0.0,-2.1765,0.0,0.0,0.0,0.0,0.0,0.0,0.0,0.0,0.0,0.0,0.0,-2.5447,-2.6901,-2.7364,-2.7565,-2.7589,-2.7605,-2.7513,0.0,0.0,0.0,0.0,0.0,0.0,0.0,0.0,0.0,0.0,0.0,0.0,0.0,0.0,-2.5592,-2.3287,-2.2847,-2.2878,-2.2931,0.0,0.0,0.0,0.0,0.0,0.0,0.0,0.0,0.0,0.0,0.0,0.0,0.0,0.0,-2.411,0.0,-2.3745,0.0,0.0,0.0,0.0,0.0,0.0,0.0,0.0,-2.5539,-2.5983,-2.6495,-2.6539,-2.6505,0.0,-2.5851,-2.526,0.0,0.0,0.0,0.0,0.0,0.0,0.0,0.0,-2.4723,-2.541,-2.5433,-2.525,-2.4939,-2.4923,-2.4785,-2.4479,-2.4503,-2.4352,-2.4007,-2.3804,-2.3231,0.0,0.0,0.0,0.0,0.0,0.0,0.0,0.0,0.0,0.0,0.0,0.0,0.0,0.0,0.0,0.0,0.0,0.0,0.0,0.0,0.0,0.0,0.0,-2.345,0.0,0.0,0.0,0.0,0.0,0.0,0.0,0.0,0.0,-2.5886,-2.6177,-2.6881,-2.8302,-2.8485,-2.8509,-2.8546,0.0,0.0,0.0,0.0,0.0,0.0,0.0,-2.8851,-2.9401,-2.9289,-2.9206,-2.9448,-2.9054,-2.8578,-2.8305,0.0,0.0,-2.4742,-2.4258,-2.4193,-2.3934,-2.3894,-2.3911,-2.3917,-2.3908,-2.3898,0.0,0.0,0.0,0.0,0.0,0.0,0.0,0.0,-2.541,-2.623,0.0,-2.5286,0.0,0.0,0.0,0.0,0.0,-2.6259,0.0,0.0,-2.7842,-2.8252,-2.8168,-2.8207,-2.8239,-2.8201,-2.8139,-2.8126,-2.794,-2.467,0.0,0.0,0.0,0.0,0.0,0.0,-2.6636,-2.7338,-2.7282,-2.6915,-2.6178,-2.614,-2.5725,-2.4917,-2.4934,-2.5014,-2.5067,-2.4362,-2.3978,-2.3999,-2.3311,0.0,0.0,0.0,0.0,0.0,0.0,0.0,0.0,0.0,0.0,0.0,0.0,0.0,0.0,0.0,0.0,0.0,0.0,0.0,0.0,-2.4286,0.0,0.0,0.0,0.0,0.0,0.0,0.0,0.0,0.0,0.0,-2.6922,-2.7602,-2.8463,-2.9317,0.0,0.0,0.0,0.0,-2.9171,-2.8437,-2.829,-2.8314,-2.8314,-2.8989,-2.9558,-2.9546,0.0,0.0,-2.9692,-2.9598,-2.9383,-2.8561,-2.8411,-2.8002,-2.7043,-2.6773,-2.652,-2.5832,-2.5678,-2.5668,-2.5688,-2.5673,-2.5673,-2.8713,0.0,0.0,0.0,0.0,-2.7227,-2.7312,-2.7131,-2.7381,-2.7622,-2.7819,-2.7377,0.0,0.0,0.0,0.0,0.0,0.0,-2.792,-2.7922,-2.8188,-2.8298,-2.8259,-2.8298,-2.8293,-2.8281,-2.8259,-2.8232,-2.8158,-2.7162,-2.6605,-2.6536,0.0,0.0,0.0,0.0,-2.7427,-2.7599,-2.7565,-2.739,-2.7186,-2.7167,-2.6773,-2.5967,-2.6066,-2.5836,-2.5272,-2.5072,-2.4723,-2.4166,-2.3994,0.0,0.0,0.0,0.0,0.0,0.0,0.0,0.0,0.0,0.0,0.0,0.0,0.0,0.0,0.0,0.0,0.0,0.0,0.0,-2.3673,-2.4892,-2.5628,0.0,0.0,0.0,0.0,0.0,0.0,0.0,0.0,0.0,-2.8723,-2.8933,-2.9435,0.0,0.0,-3.0397,-3.0414,-3.0399,-3.0312,-3.0104,0.0,0.0,0.0,-3.0297,-3.0501,-3.0498,-3.071,-3.0774,-3.0545,-3.0465,-3.0387,-3.0094,-3.0082,-2.9757,-2.8907,-2.8208,-2.7751,-2.7522,-2.7448,-2.7457,-2.7457,-2.7484,-2.7491,-2.9921,-2.9024,-2.9043,-2.8669,-2.8113,-2.8463,-2.8468,-2.8179,-2.8193,-2.8381,-2.8681,-2.8385,-2.8437,-2.8756,-2.8768,0.0,0.0,0.0,-2.914,-2.8828,-2.9176,-2.9329,-2.9345,-2.9326,-2.932,-2.9291,-2.9288,-2.9263,-2.9234,-2.9219,-2.9187,-2.9091,0.0,0.0,-2.8367,-2.8354,-2.8503,-2.8763,-2.8727,-2.8549,-2.8192,-2.7898,-2.7508,-2.706,-2.7105,-2.6916,-2.6427,-2.6132,-2.5766,-2.5286,-2.5001,-2.4479,0.0,0.0,0.0,0.0,0.0,0.0,0.0,0.0,0.0,0.0,0.0,-1.951,0.0,0.0,0.0,0.0,-2.4252,-2.4882,-2.5372,-2.6162,0.0,0.0,0.0,0.0,0.0,0.0,0.0,-2.8661,-2.9214,-2.9673,-3.0021,-3.0046,-3.0244,-3.0739,-3.0789,-3.0789,-3.0786,0.0,-3.0817,-3.0816,-3.0838,-3.0858,-3.0838,-3.0862,-3.0923,-3.0919,-3.0914,-3.0918,-3.0894,-3.087,-3.0845,-3.0821,-3.0833,-3.0671,-3.0147,-2.9611,-2.9,-2.8388,-2.8236,-2.8236,-2.8236,-2.8259,-2.8281,-3.0482,-3.0494,-3.0471,-2.9602,-2.8285,-2.9046,-2.8982,-2.8313,-2.8353,-2.8835,-2.9528,-2.8747,-2.8856,-2.9592,-2.9599,0.0,-2.8574,-3.0175,-3.0448,-2.9723,-3.0507,-3.0879,-3.0897,-3.0896,-3.0871,-3.0823,-3.0804,-3.0799,-3.0791,-3.0785,-3.0798,-3.0743,-2.9142,-2.8671,-2.9378,-2.9342,-2.9669,-3.0389,-3.0394,-2.9998,-2.9239,-2.8501,-2.8126,-2.8092,-2.8106,-2.8092,-2.8073,-2.74,-2.7016,-2.6981,-2.6295,-2.5548,-2.4772,0.0,0.0,0.0,0.0,0.0,0.0,0.0,0.0,0.0,0.0,0.0,0.0,0.0,0.0,0.0,-2.6178,0.0,-2.7108,-2.783,0.0,0.0,0.0,-2.8313,-2.8391,-2.8408,-2.8739,-2.9617,0.0,0.0,-3.0806,0.0,-3.088,-3.0827,-3.0804,-3.0804,-3.0799,-3.0821,-3.0827,-3.0874,-3.0914,-3.0914,-3.0895,-3.0895,-3.0913,-3.0905,-3.0914,-3.0918,-3.0918,-3.0897,-3.0892,-3.0905,-3.0921,-3.0899,-3.0899,-3.0801,-3.0409,-2.8856,-2.8564,-2.8561,-2.8639,-2.8636,-2.8672,-3.1164,-3.1106,-3.0515,-3.0093,-2.9858,-3.0085,-3.0115,-2.9941,-3.0001,-3.0156,-3.0319,-3.0172,-3.0244,-3.0481,-3.0485,-3.0381,-3.0233,-3.064,-3.0721,-3.0533,-3.073,-3.0852,-3.0897,-3.0918,-3.0879,-3.0878,-3.0874,-3.0888,-3.0877,-3.0816,-3.0794,-3.0771,-3.0377,-3.0214,-3.0353,-3.03,-3.0373,-3.0568,-3.0492,-3.0414,-3.025,-3.0062,-2.9679,-2.9082,-2.9055,-2.8793,-2.8204,-2.7998,-2.7913,-2.7947,-2.7771,-2.7577,-2.7383,-2.611,0.0,0.0,0.0,0.0,0.0,0.0,0.0,0.0,0.0,-2.3138,-2.4644,0.0,-2.5726,0.0,-2.7741,-2.7988,-2.7986,-2.819,0.0,0.0,-2.8294,-2.8548,-2.9212,-2.929,-2.9619,-3.0506,-3.0599,-3.0664,-3.0874,-3.0916,-3.0879,-3.0879,-3.087,-3.0875,-3.088,-3.0873,-3.0878,-3.0898,-3.0918,-3.0918,-3.0918,-3.0918,-3.0918,-3.0917,-3.0918,-3.0918,-3.0918,-3.0918,-3.0918,-3.0917,-3.0914,-3.0912,-3.0912,-3.0911,-3.0793,-3.0382,-3.0279,-3.0289,-3.027,-3.027,-3.0272,-3.1822,-3.18,-3.1362,-3.1219,-3.125,-3.065,-3.0402,-3.0414,-3.0501,-3.0549,-3.0549,-3.0642,-3.0698,-3.0753,-3.0755,-3.0769,-3.0782,-3.079,-3.0798,-3.0785,-3.0794,-3.0821,-3.085,-3.0853,-3.0876,-3.0898,-3.0918,-3.0917,-3.0912,-3.085,-3.0849,-3.0849,-3.0823,-3.0791,-3.0743,-3.0665,-3.0649,-3.0634,-3.0607,-3.0607,-3.0649,-3.0639,-3.0445,-3.003,-3.001,-2.9808,-2.9372,-2.899,-2.8807,-2.8852,-2.8467,-2.8252,-2.8252,-2.7339,-2.6809,0.0,0.0,0.0,0.0,0.0,0.0,0.0,0.0,0.0,0.0,0.0,-2.6836,-2.8184,-2.8651,-2.8882,-2.8882,-2.9217,-2.9452,-2.9453,-2.9453,-2.9648,-3.0137,-3.0176,-3.0371,-3.0838,-3.0918,-3.0914,-3.0921,-3.0923,-3.0909,-3.0909,-3.0917,-3.0917,-3.0916,-3.0918,-3.0917,-3.0917,-3.0917,-3.0917,-3.0917,-3.0917,-3.0917,-3.0917,-3.0917,-3.0917,-3.0917,-3.0917,-3.0917,-3.0917,-3.0918,-3.0918,-3.0918,-3.0918,-3.0918,-3.0918,-3.0917,-3.0915,-3.0913,-3.0912,-3.0913,-3.2449,-3.2486,-3.2391,-3.2353,-3.2295,-3.1077,-3.0565,-3.0592,-3.0729,-3.0739,-3.0664,-3.0607,-3.0626,-3.0678,-3.0685,-3.0742,-3.0778,-3.0784,-3.0793,-3.0798,-3.0794,-3.0788,-3.0796,-3.0799,-3.0825,-3.0892,-3.0894,-3.0876,-3.0918,-3.0918,-3.0916,-3.0896,-3.0857,-3.0818,-3.0797,-3.0743,-3.0703,-3.0717,-3.0704,-3.071,-3.0709,-3.0706,-3.074,-3.0784,-3.0804,-3.0784,-3.0774,-3.0058,-2.9679,-2.9718,-2.8954,-2.8525,-2.8529,-2.8423,-2.8333,0.0,-2.7504,0.0,0.0,0.0,0.0,0.0,0.0,0.0,0.0,-2.6919,-2.7798,-2.857,-2.9315,-2.9765,-2.9765,-3.0448,-3.0917,-3.0913,-3.0913,-3.0912,-3.0912,-3.0913,-3.0912,-3.0912,-3.0892,-3.0889,-3.0899,-3.0877,-3.0877,-3.0877,-3.0877,-3.0903,-3.0889,-3.0892,-3.0912,-3.0912,-3.0912,-3.0912,-3.0912,-3.0913,-3.0913,-3.0912,-3.0912,-3.0912,-3.0912,-3.0913,-3.0913,-3.0913,-3.0913,-3.0913,-3.0913,-3.0892,-3.0892,-3.0892,-3.0871,-3.0894,-3.0917,-3.0918,-3.0898,-3.3081,-3.3066,-3.2426,-3.2183,-3.2222,-3.2014,-3.1986,-3.2114,-3.2283,-3.2032,-3.1433,-3.079,-3.0559,-3.0602,-3.0607,-3.0637,-3.0711,-3.0724,-3.0748,-3.0794,-3.0784,-3.0798,-3.079,-3.0785,-3.0816,-3.0823,-3.0823,-3.0845,-3.0886,-3.0913,-3.0916,-3.0897,-3.0877,-3.0878,-3.0878,0.0,0.0,0.0,-3.0803,-3.0789,-3.0794,-3.0778,-3.079,-3.079,-3.0793,0.0,-3.0794,-3.0654,-3.0568,-3.0555,-3.0354,0.0,0.0,0.0,0.0,0.0,0.0,0.0,0.0,0.0,0.0,0.0,-2.7448,-2.7582,-2.7822,-2.9262,-3.0235,-3.0394,-3.0552,-3.0652,-3.0669,-3.0808,-3.0923,-3.0921,-3.0901,-3.0921,-3.0923,-3.0901,-3.0921,-3.0901,-3.0858,-3.0833,-3.081,-3.0807,-3.0824,-3.0824,-3.0824,-3.0824,-3.0827,-3.0858,-3.0901,-3.0921,-3.0901,-3.0901,-3.0921,-3.0903,-3.0901,-3.0921,-3.0921,-3.0901,-3.0903,-3.0901,-3.0903,-3.0901,-3.0921,-3.0901,-3.0901,-3.0855,-3.081,-3.0827,-3.0824,-3.0827,-3.0882,-3.0905,-3.0884,-3.3682,0.0,-3.334,-3.3194,0.0,-3.3302,-3.3426,-3.3507,-3.2901,-3.2493,-3.2225,-3.1821,-3.1688,-3.1777,-3.1777,-3.1825,-3.1887,-3.1922,-3.1953,-3.1975,-3.2007,-3.2024,-3.2046,-3.2026,-3.2062,-3.2088,-3.2076,-3.2098,-3.214,-3.2148,-3.2131,-3.2148,-3.2133,-3.1923,-3.1495,-3.1073,-3.0814,-3.0798,-3.0788,-3.0794,-3.0794,-3.0786,-3.0792,-3.0795,0.0,0.0,0.0,0.0,0.0,0.0,0.0,0.0,0.0,0.0,0.0,-2.9973,-2.9569,-2.9143,-2.8745,-2.8691,-2.8519,-2.8152,-2.8554,-2.8872,-2.8901,-3.0091,-3.0849,-3.0849,-3.0849,-3.0849,-3.0849,-3.0849,-3.0849,-3.0849,-3.0849,-3.0849,-3.0849,-3.0849,-3.0849,-3.0849,-3.0827,-3.0785,-3.0785,-3.0801,-3.0798,-3.0798,-3.0798,-3.0798,-3.0798,-3.0843,-3.0869,-3.0849,-3.0846,-3.0866,-3.0849,-3.0869,-3.0849,-3.0849,-3.0849,-3.0849,-3.0869,-3.0869,-3.0849,-3.0849,-3.0849,-3.083,-3.0849,-3.0824,-3.0798,-3.0798,-3.0794,-3.0817,-3.0846,-3.0849,-3.0846,-3.4074,-3.4124,-3.4148,-3.4173,-3.4245,-3.4335,-3.4409,-3.4489,0.0,0.0,0.0,-3.2838,-3.2845,-3.296,-3.2972,-3.3029,-3.3083,-3.3151,-3.3169,-3.318,-3.3254,-3.3283,-3.3278,-3.329,-3.3331,-3.3385,-3.3395,-3.3384,-3.3395,-3.3395,-3.3392,-3.3392,-3.3386,-3.306,-3.2343,-3.1669,-3.1307,-3.1249,-3.0956,-3.08,-3.0801,-3.08,-3.0798,-3.0795,-3.08,-3.0798,-3.0794,-3.0789,-3.0756,-3.0707,-3.07,-3.0661,-3.0621,-3.0604,-3.0597,-3.0617,-3.0617,-3.0297,-2.958,-2.9522,-2.9245,-2.8598,-2.9271,-2.9718,-2.973,-3.04,-3.0794,-3.0794,-3.0794,-3.0794,-3.0798,-3.0798,-3.0798,-3.0798,-3.0798,-3.0798,-3.0798,-3.0798,-3.0798,-3.0794,-3.0794,-3.079,-3.079,-3.0786,-3.0786,-3.0767,-3.0763,-3.0786,-3.079,-3.081,-3.081,-3.081,-3.0806,-3.0806,-3.0794,-3.0798,-3.0798,-3.0801,-3.0801,-3.0798,-3.0798,-3.0798,-3.0798,-3.0798,-3.0794,-3.0794,-3.0794,-3.079,-3.079,-3.079,-3.079,-3.0786,-3.0786,-3.0786,-3.0786,-3.3807,-3.3887,-3.3921,-3.3972,-3.4049,-3.4124,-3.4264,-3.4375,-3.379,-3.3577,-3.3625,-3.2981,-3.2766,-3.2837,-3.2897,-3.296,-3.3018,-3.3021,-3.3073,0.0,-3.3179,-3.3214,-3.3223,-3.3257,-3.3304,-3.3315,-3.334,-3.3351,-3.3395,-3.3414,-3.3379,-3.3407,-3.3392,-3.3337,-3.3227,-3.3113,-3.3032,-3.3009,-3.155,-3.079,-3.0791,-3.0791,-3.0788,-3.0788,-3.0794,-3.0802,-3.0793,-3.0743,-3.0696,-3.0707,-3.0632,-3.0623,-3.0607,-3.0607,-3.0598,-3.0617,-3.0617,-3.054,-3.0424,-3.0412,-3.038,-3.0362,-3.0477,-3.0549,-3.0608,-3.0721,-3.0784,-3.0789,-3.0798,-3.0786,-3.0782,-3.079,-3.0798,-3.0798,-3.0798,-3.0798,-3.0798,-3.0798,-3.0813,-3.086,-3.0793,-3.0843,-3.0935,-3.0881,-3.0876,-3.0773,-3.0992,-3.0792,-3.0895,-3.0755,-3.0784,-3.0789,-3.0784,-3.0789,-3.0778,-3.079,-3.0794,-3.0798,-3.0798,-3.0794,-3.0774,-3.0794,-3.079,-3.0786,-3.0782,-3.0798,-3.0789,-3.0799,-3.0799,-3.0794,-3.0769,-3.072,-3.072,-3.072,-3.0725,-3.4196,-3.4217,-3.3853,-3.3753,-3.386,-3.3998,-3.4148,-3.4279,-3.4127,-3.4165,-3.4321,-3.4014,-3.3946,-3.4047,-3.4125,-3.4175,-3.4263,-3.4334,-3.4376,-3.4395,-3.4476,-3.4517,-3.4554,-3.4628,-3.4661,-3.4664,-3.4665,-3.4679,-3.4742,-3.4742,-3.4748,-3.4714,-3.4291,-3.4048,-3.4018,-3.3589,-3.3351,-3.3327,-3.2592,-3.1994,-3.1531,-3.1492,-3.1289,-3.0813,-3.0798,-3.0769,-3.0739,-3.0722,-3.0671,-3.0645,-3.0615,-3.0577,-3.0559,-3.055,-3.055,-3.054,-3.054,-3.054,-3.053,-3.0577,-3.0604,-3.064,-3.0665,-3.0668,-3.069,-3.0716,-3.0739,-3.0739,-3.0745,-3.073,-3.073,-3.076,-3.074,-3.074,-3.074,-3.0745,-3.0745,-3.0745,-3.0935,-3.1359,-3.1446,-3.1635,-3.209,-3.2123,-3.2117,-3.2117,-3.2091,-3.2078,-3.1999,-3.1656,-3.1216,-3.0831,-3.0739,-3.0745,-3.075,-3.0735,-3.074,-3.076,-3.074,-3.076,-3.074,-3.0779,-3.0799,-3.0755,-3.075,-3.075,-3.0739,-3.0739,-3.0753,-3.0753,-3.0736,-3.071,-3.0704,-3.0691,-3.0711,-3.4744,-3.4769,-3.4202,-3.3957,-3.3945,-3.4118,-3.4164,-3.4124,-3.4227,-3.445,-3.4666,-3.4811,-3.4927,-3.5075,-3.5162,-3.5207,-3.527,-3.5383,-3.5468,-3.5457,-3.5538,-3.5604,-3.5648,-3.5737,-3.5747,-3.5773,-3.5779,-3.5803,-3.5857,-3.5884,-3.5884,-3.5806,-3.5217,-3.4873,-3.4847,-3.4205,-3.3854,-3.388,-3.393,-3.3434,-3.2406,-3.2362,-3.204,-3.144,-3.1354,-3.1315,-3.1254,-3.1076,-3.0944,-3.0868,-3.0684,-3.054,-3.051,-3.0491,-3.0481,-3.049,-3.049,-3.049,-3.0491,-3.055,-3.0577,-3.0558,-3.0585,-3.0613,-3.0602,-3.0644,-3.0678,-3.0678,-3.0698,-3.0704,-3.071,-3.0697,-3.0697,-3.0703,-3.0703,-3.0826,-3.0953,-3.1001,-3.132,-3.2098,-3.2266,-3.2525,-3.3089,-3.3276,-3.3199,-3.3153,-3.3289,-3.3239,-3.3137,-3.2585,-3.195,-3.1423,-3.0976,-3.0724,-3.0704,-3.0697,-3.0697,-3.0697,-3.0703,-3.0703,-3.0722,-3.0755,-3.0769,-3.071,-3.0685,-3.0685,-3.0659,-3.0678,-3.0678,-3.0672,-3.0658,-3.0671,-3.0683,-3.0668,-3.068,-3.5247,-3.528,-3.5303,-3.5082,-3.4666,-3.4757,-3.4467,-3.3952,-3.3991,-3.4142,-3.4386,-3.4626,-3.4868,-3.4927,-3.5038,-3.5108,-3.5122,-3.5261,-3.5304,-3.5326,-3.5455,-3.5522,-3.5507,-3.5577,-3.5629,-3.5698,-3.5728,-3.5747,-3.5812,-3.5812,-3.5801,-3.5799,-3.5721,-3.5671,-3.5652,-3.5574,-3.5554,-3.5574,-3.5574,-3.4788,-3.329,-3.3187,-3.3147,-3.3089,-3.3005,-3.2964,-3.283,-3.2233,-3.1748,-3.1641,-3.0945,-3.053,-3.0509,-3.049,-3.0479,-3.0479,-3.0479,-3.049,-3.049,-3.0509,-3.051,-3.052,-3.0569,-3.0597,-3.0595,-3.0602,-3.0618,-3.0618,-3.0653,-3.0695,-3.0697,-3.0704,-3.0717,-3.0827,-3.0794,-3.1001,-3.1707,-3.1884,-3.2188,-3.3009,-3.3103,-3.3156,-3.3369,-3.3438,-3.3361,-3.3477,-3.3535,-3.3527,-3.3479,-3.3266,-3.3052,-3.2693,-3.1778,-3.0882,-3.0792,-3.0697,-3.0691,-3.0691,-3.071,-3.0685,-3.0691,-3.0691,-3.0711,-3.0683,-3.0649,-3.063,-3.0634,-3.0618,-3.0626,-3.0626,-3.0626,-3.0629,-3.0613,-3.0604,-3.0632,-3.5794,-3.5793,-3.5502,-3.531,-3.5245,-3.5333,-3.5289,-3.5133,-3.5266,-3.5385,-3.5525,-3.5807,-3.5477,-3.473,-3.4868,-3.4965,-3.4982,-3.5108,-3.5212,-3.5239,-3.5335,-3.5422,-3.5509,-3.5521,-3.557,-3.5635,-3.5637,-3.5678,-3.5737,-3.5737,-3.5747,-3.5756,-3.5756,-3.5736,-3.5736,-3.5756,-3.5736,-3.5736,-3.5756,-3.5415,-3.4764,-3.4248,-3.3763,-3.3308,-3.3161,-3.313,-3.3103,-3.2735,-3.2535,-3.2458,-3.1686,-3.1212,-3.121,-3.0728,-3.0447,-3.0444,-3.0447,-3.0439,-3.0439,-3.0488,-3.049,-3.0481,-3.053,-3.054,-3.053,-3.053,-3.054,-3.0549,-3.0613,-3.0645,-3.0653,-3.0642,-3.0843,-3.1278,-3.1394,-3.1759,-3.2608,-3.2703,-3.304,-3.3798,-3.3992,-3.4157,-3.4565,-3.472,-3.471,-3.4681,-3.4672,-3.4594,-3.4642,-3.4265,-3.3916,-3.3761,-3.2861,-3.1988,-3.151,-3.0925,-3.0739,-3.0668,-3.063,-3.063,-3.0649,-3.0642,-3.0634,-3.0637,-3.0618,-3.0591,-3.061,-3.0602,-3.0602,-3.0613,-3.0577,-3.0559,-3.0559,-3.055,-3.055,-3.6355,-3.636,-3.599,-3.5808,-3.5813,-3.5894,-3.5897,-3.5921,-3.6006,-3.6164,-3.6353,-3.65,-3.6055,-3.5217,-3.5096,-3.5016,-3.4869,-3.4983,-3.5073,-3.5124,-3.5203,-3.532,-3.5417,-3.5435,-3.547,-3.5521,-3.5565,-3.5612,-3.5676,-3.5678,-3.5658,-3.5669,-3.5669,-3.5669,-3.5688,-3.5669,-3.5669,-3.5688,-3.5688,-3.5678,-3.557,-3.5098,-3.4488,-3.3916,-3.381,-3.379,-3.3781,-3.35,-3.3345,-3.3326,-3.2509,-3.2047,-3.2004,-3.1291,-3.0722,-3.0429,-3.0383,-3.0406,-3.0406,-3.0447,-3.0458,-3.0488,-3.0469,-3.0469,-3.0479,-3.0481,-3.0597,-3.0858,-3.0859,-3.0935,-3.0942,-3.0961,-3.1338,-3.2122,-3.2258,-3.2596,-3.3419,-3.3537,-3.3868,-3.4652,-3.4836,-3.502,-3.5524,-3.5649,-3.5581,-3.5579,-3.5588,-3.5665,-3.5635,-3.5102,-3.4734,-3.4696,-3.3981,-3.3121,-3.2367,-3.1853,-3.1291,-3.097,-3.1017,-3.0939,-3.0699,-3.0621,-3.0585,-3.0595,-3.0576,-3.0567,-3.0568,-3.0577,-3.0586,-3.0568,-3.053,-3.049,-3.0488,-3.0477,-3.0436,-3.6956,-3.6978,-3.721,-3.6879,-3.6381,-3.6433,-3.6191,-3.5878,-3.5802,-3.5951,-3.6292,-3.6303,-3.6353,-3.6441,-3.5997,-3.5393,-3.4821,-3.4963,-3.5078,-3.5097,-3.5167,-3.5196,-3.5226,-3.5285,-3.5403,-3.5523,-3.5592,-3.5586,-3.5604,-3.5604,-3.5623,-3.5584,-3.5596,-3.5616,-3.5616,-3.5616,-3.5616,-3.5616,-3.5616,-3.5616,-3.5604,-3.5558,-3.5473,-3.535,-3.5446,-3.5357,-3.5326,-3.4653,-3.4199,-3.4139,-3.3365,-3.2909,-3.2814,-3.2275,-3.1468,-3.059,-3.0429,-3.041,-3.039,-3.039,-3.0402,-3.0386,-3.0417,-3.0447,-3.0604,-3.0614,-3.0923,-3.1587,-3.1675,-3.1718,-3.1893,-3.1883,-3.2203,-3.2976,-3.314,-3.3538,-3.4333,-3.4371,-3.4738,-3.5366,-3.551,-3.553,-3.5593,-3.5612,-3.562,-3.5608,-3.5616,-3.5616,-3.5616,-3.5526,-3.5449,-3.5314,-3.4755,-3.3963,-3.3256,-3.2677,-3.2397,-3.2096,-3.1729,-3.1581,-3.1011,-3.0595,-3.0588,-3.055,-3.0521,-3.0511,-3.0519,-3.0509,-3.0519,-3.0479,-3.0439,-3.0425,-3.0421,-3.0348,-3.0304,-3.6886,-3.7027,-3.7087,-3.7082,-3.7001,-3.7166,-3.7077,-3.6931,-3.7084,-3.725,-3.7412,-3.7539,-3.7436,-3.7098,-3.7007,-3.6621,-3.6082,-3.6224,-3.6333,-3.6377,-3.6519,-3.6616,-3.669,-3.6778,-3.6539,-3.6166,-3.6166,-3.594,-3.552,-3.5522,-3.5547,-3.5547,-3.5591,-3.5623,-3.5623,-3.5623,-3.5623,-3.5623,-3.5623,-3.5591,-3.5528,-3.5541,-3.5495,-3.5405,-3.5496,-3.5553,-3.5534,-3.5175,-3.4974,-3.4889,-3.4131,-3.3703,-3.3536,-3.2461,-3.1597,-3.1181,-3.0643,-3.0348,-3.0398,-3.0398,-3.039,-3.0402,-3.0402,-3.0702,-3.1137,-3.1284,-3.1623,-3.2316,-3.2521,-3.2748,-3.3183,-3.2974,-3.2954,-3.3699,-3.3912,-3.4251,-3.4955,-3.5187,-3.5311,-3.555,-3.5628,-3.5628,-3.5596,-3.5577,-3.5565,-3.5584,-3.5565,-3.5553,-3.5604,-3.5623,-3.5591,-3.5584,-3.5341,-3.5044,-3.4805,-3.3619,-3.2905,-3.275,-3.2529,-3.2269,-3.1815,-3.0945,-3.0721,-3.0858,-3.0751,-3.0576,-3.0604,-3.0455,-3.0455,-3.0433,-3.039,-3.0355,-3.033,-3.0273,-3.0247,-3.7073,-3.7201,-3.7013,-3.7044,-3.722,-3.7354,-3.7466,-3.754,-3.7774,-3.7933,-3.8052,-3.8219,-3.8072,-3.776,-3.7886,-3.7765,-3.7384,-3.715,-3.7057,-3.7171,-3.7244,-3.7368,-3.747,-3.7566,-3.7355,-3.6929,-3.6903,-3.653,-3.5848,-3.5825,-3.5699,-3.5449,-3.5476,-3.5509,-3.5489,-3.5489,-3.5509,-3.5509,-3.5509,-3.5489,-3.5457,-3.5455,-3.5393,-3.5326,-3.5383,-3.5438,-3.5438,-3.5391,-3.536,-3.5228,-3.4768,-3.4476,-3.4352,-3.3168,-3.2357,-3.2173,-3.1309,-3.0746,-3.0732,-3.0521,-3.0494,-3.0794,-3.0821,-3.1179,-3.1968,-3.2088,-3.2524,-3.314,-3.3383,-3.3742,-3.434,-3.4147,-3.407,-3.4615,-3.4723,-3.4955,-3.5495,-3.5604,-3.5604,-3.5604,-3.5623,-3.5591,-3.5579,-3.554,-3.554,-3.5566,-3.5515,-3.5515,-3.5547,-3.5566,-3.5566,-3.5554,-3.5554,-3.5477,-3.5323,-3.4532,-3.3805,-3.3604,-3.3431,-3.3111,-3.2579,-3.1642,-3.1149,-3.1191,-3.1056,-3.0813,-3.0617,-3.0467,-3.0386,-3.0374,-3.0318,-3.0266,-3.024,-3.0213,-3.0171,-3.7671,-3.7728,-3.705,-3.6946,-3.7093,-3.7132,-3.72,-3.7392,-3.754,-3.7703,-3.7881,-3.8036,-3.8117,-3.8249,-3.84,-3.8597,-3.8368,-3.7495,-3.715,-3.7296,-3.7314,-3.7426,-3.7595,-3.7694,-3.7659,-3.7604,-3.764,-3.7254,-3.6539,-3.653,-3.6217,-3.5507,-3.545,-3.5445,-3.5315,-3.533,-3.5315,-3.535,-3.533,-3.5311,-3.5307,-3.5296,-3.5304,-3.5289,-3.5304,-3.5307,-3.5287,-3.5316,-3.53,-3.5299,-3.5258,-3.5281,-3.5081,-3.4352,-3.3873,-3.3336,-3.2305,-3.1667,-3.154,-3.0919,-3.0989,-3.1513,-3.1698,-3.2064,-3.2756,-3.2929,-3.3269,-3.4039,-3.425,-3.4545,-3.5218,-3.5295,-3.5303,-3.556,-3.5444,-3.5463,-3.5572,-3.5611,-3.5591,-3.5591,-3.5579,-3.556,-3.5515,-3.5502,-3.5509,-3.5501,-3.552,-3.5501,-3.5501,-3.552,-3.5507,-3.5488,-3.5501,-3.5534,-3.552,-3.5411,-3.495,-3.4532,-3.4352,-3.4082,-3.3511,-3.2716,-3.2415,-3.2338,-3.1961,-3.1667,-3.0912,-3.0721,-3.0478,-3.0414,-3.0303,-3.0204,-3.0157,-3.0128,-3.0068,-3.8294,-3.8469,-3.8244,-3.7895,-3.7609,-3.7679,-3.7558,-3.7161,-3.7317,-3.7521,-3.7667,-3.7721,-3.7915,-3.8119,-3.8271,-3.8451,-3.8652,-3.8269,-3.8248,-3.8436,-3.864,-3.8724,-3.8813,-3.8965,-3.8812,-3.8326,-3.7852,-3.7509,-3.7317,-3.7276,-3.6854,-3.6205,-3.6105,-3.5832,-3.535,-3.5308,-3.5308,-3.5308,-3.5308,-3.5254,-3.5181,-3.5168,-3.5176,-3.5164,-3.5162,-3.5155,-3.5159,-3.5262,-3.5285,-3.5248,-3.5226,-3.5223,-3.5085,-3.4454,-3.3976,-3.3815,-3.2972,-3.2431,-3.2382,-3.2185,-3.2102,-3.2455,-3.2526,-3.2942,-3.3641,-3.3795,-3.416,-3.493,-3.5103,-3.5257,-3.543,-3.5507,-3.552,-3.5515,-3.5534,-3.5528,-3.5547,-3.5547,-3.5534,-3.5534,-3.5534,-3.5534,-3.5501,-3.5482,-3.5501,-3.5507,-3.5493,-3.5493,-3.5493,-3.5474,-3.5507,-3.5507,-3.5507,-3.5474,-3.546,-3.5446,-3.521,-3.4949,-3.4866,-3.4783,-3.427,-3.3904,-3.3609,-3.3231,-3.2839,-3.2294,-3.1525,-3.1096,-3.0915,-3.0486,-3.0309,-3.0208,-3.0087,-3.0022,-2.9975,-3.8889,-3.9053,-3.8777,-3.8486,-3.8165,-3.8318,-3.8163,-3.7825,-3.7968,-3.7984,-3.7889,-3.7986,-3.7936,-3.7951,-3.8034,-3.8252,-3.8483,-3.8645,-3.881,-3.8979,-3.9219,-3.9357,-3.9477,-3.9665,-3.9535,-3.9113,-3.8626,-3.8268,-3.8022,-3.7966,-3.7604,-3.6975,-3.6897,-3.6495,-3.5747,-3.5651,-3.5575,-3.5288,-3.5212,-3.5196,-3.5105,-3.5107,-3.5091,-3.5094,-3.5111,-3.5107,-3.5098,-3.5168,-3.5209,-3.5176,-3.516,-3.516,-3.5122,-3.4683,-3.4413,-3.4292,-3.3735,-3.3215,-3.3221,-3.291,-3.3015,-3.3234,-3.3344,-3.3722,-3.4422,-3.4647,-3.4974,-3.5359,-3.5468,-3.5507,-3.5507,-3.5507,-3.5507,-3.5507,-3.5507,-3.5507,-3.5507,-3.5507,-3.5507,-3.5507,-3.5507,-3.5507,-3.5507,-3.5507,-3.5474,-3.546,-3.546,-3.5446,-3.5446,-3.5412,-3.5427,-3.5427,-3.5412,-3.5412,-3.5412,-3.5379,-3.5364,-3.5302,-3.5259,-3.5182,-3.4932,-3.4702,-3.4438,-3.3853,-3.3403,-3.2938,-3.2225,-3.197,-3.173,-3.1127,-3.0521,-3.0345,-3.0278,-2.9983,-2.9876,-3.9457,-3.9448,-3.8843,-3.8722,-3.8814,-3.8859,-3.8868,-3.8988,-3.914,-3.8837,-3.8505,-3.8617,-3.8413,-3.799,-3.8293,-3.8411,-3.8277,-3.8615,-3.8768,-3.8799,-3.8979,-3.9183,-3.9395,-3.9551,-3.9566,-3.9557,-3.9611,-3.9334,-3.8772,-3.8738,-3.8382,-3.7699,-3.7585,-3.7205,-3.6482,-3.6311,-3.5874,-3.536,-3.5151,-3.5075,-3.5058,-3.5076,-3.5075,-3.5057,-3.5057,-3.5054,-3.5066,-3.5053,-3.5075,-3.5094,-3.5111,-3.511,-3.5092,-3.5092,-3.5051,-3.5047,-3.438,-3.4088,-3.3888,-3.3559,-3.3451,-3.4069,-3.4184,-3.4486,-3.5129,-3.5225,-3.5278,-3.5441,-3.546,-3.5474,-3.5493,-3.546,-3.546,-3.5493,-3.5493,-3.5507,-3.5507,-3.5507,-3.5493,-3.5493,-3.5493,-3.5474,-3.5474,-3.546,-3.5427,-3.5412,-3.5379,-3.5364,-3.535,-3.533,-3.5315,-3.5335,-3.535,-3.535,-3.5364,-3.5354,-3.5339,-3.5339,-3.532,-3.532,-3.532,-3.5147,-3.5002,-3.4435,-3.3964,-3.3494,-3.3083,-3.2768,-3.2298,-3.1618,-3.1149,-3.0779,-3.0425,-3.0127,-2.9792,-4.0146,-4.0209,-4.0134,-3.9817,-3.9365,-3.9531,-3.9354,-3.8955,-3.9111,-3.9168,-3.9048,-3.9211,-3.9292,-3.9289,-3.9312,-3.9283,-3.9081,-3.9109,-3.8944,-3.8713,-3.8732,-3.9026,-3.9354,-3.9477,-3.9526,-3.9575,-3.9647,-3.9641,-3.9452,-3.9362,-3.9009,-3.8291,-3.8256,-3.7839,-3.7103,-3.6518,-3.6062,-3.574,-3.5154,-3.4907,-3.4907,-3.4907,-3.4888,-3.487,-3.4869,-3.4889,-3.4869,-3.4889,-3.4965,-3.5078,-3.5095,-3.5092,-3.5092,-3.5092,-3.5092,-3.5053,-3.492,-3.4802,-3.4797,-3.4642,-3.4674,-3.491,-3.4887,-3.5094,-3.5277,-3.533,-3.535,-3.5364,-3.5345,-3.5383,-3.5403,-3.5383,-3.5364,-3.5364,-3.5427,-3.5474,-3.5474,-3.5507,-3.5493,-3.5446,-3.5427,-3.5412,-3.5379,-3.5364,-3.5364,-3.535,-3.535,-3.5335,-3.53,-3.53,-3.5285,-3.53,-3.5335,-3.5315,-3.53,-3.5324,-3.5308,-3.5293,-3.5277,-3.5245,-3.5245,-3.5187,-3.5098,-3.4876,-3.4611,-3.4196,-3.38,-3.3462,-3.28,-3.2236,-3.1672,-3.1241,-3.0696,-3.0321,-2.9852,-4.0305,-4.0436,-4.0502,-4.0295,-3.998,-4.0169,-4.002,-3.9766,-3.9877,-3.9844,-3.9764,-3.9838,-3.9794,-3.9753,-3.9818,-3.9779,-3.9589,-3.9733,-3.9672,-3.9458,-3.9342,-3.9298,-3.9314,-3.9298,-3.9376,-3.9464,-3.9558,-3.9588,-3.958,-3.9599,-3.9383,-3.9109,-3.9014,-3.8603,-3.7832,-3.7379,-3.6717,-3.6113,-3.5528,-3.5167,-3.4826,-3.4788,-3.4809,-3.4791,-3.479,-3.4792,-3.4775,-3.479,-3.4864,-3.4925,-3.4965,-3.4965,-3.4983,-3.5002,-3.5001,-3.5001,-3.5057,-3.5073,-3.5147,-3.5166,-3.5181,-3.5231,-3.5248,-3.528,-3.5308,-3.5304,-3.5304,-3.53,-3.5315,-3.5335,-3.5335,-3.5335,-3.5315,-3.5315,-3.5364,-3.5412,-3.5412,-3.5412,-3.5379,-3.5364,-3.5364,-3.535,-3.5315,-3.53,-3.53,-3.5304,-3.5324,-3.5289,-3.5254,-3.5254,-3.5254,-3.5254,-3.5258,-3.5261,-3.5242,-3.5229,-3.5212,-3.5196,-3.5196,-3.5162,-3.5164,-3.5162,-3.5126,-3.5054,-3.5038,-3.4887,-3.4433,-3.4036,-3.3677,-3.3072,-3.2373,-3.1676,-3.1128,-3.0713,-3.0206,-4.0171,-4.0305,-4.0288,-4.0387,-4.0451,-4.0648,-4.0625,-4.0836,-4.0891,-4.0718,-4.0472,-4.0438,-4.0313,-3.9717,-4.0268,-4.0143,-4.0078,-4.0381,-4.0456,-4.0307,-4.009,-3.9786,-3.9303,-3.9184,-3.9229,-3.9346,-3.9373,-3.9458,-3.9489,-3.9496,-3.9545,-3.9481,-3.9566,-3.9289,-3.8606,-3.838,-3.7612,-3.6572,-3.5985,-3.5555,-3.5047,-3.484,-3.4689,-3.4711,-3.4693,-3.4714,-3.4734,-3.4727,-3.4757,-3.4766,-3.4788,-3.4809,-3.4809,-3.4868,-3.4888,-3.4908,-3.4946,-3.5001,-3.5075,-3.5075,-3.5129,-3.5183,-3.52,-3.5198,-3.5264,-3.5261,-3.5277,-3.527,-3.5266,-3.5285,-3.5285,-3.5285,-3.5285,-3.5285,-3.53,-3.53,-3.5285,-3.53,-3.5315,-3.53,-3.53,-3.53,-3.53,-3.5266,-3.527,-3.5245,-3.5245,-3.5209,-3.5193,-3.5193,-3.5193,-3.5193,-3.5196,-3.52,-3.5164,-3.5127,-3.511,-3.5073,-3.5073,-3.5057,-3.5039,-3.5039,-3.5057,-3.5039,-3.4983,-3.4946,-3.4794,-3.4509,-3.4221,-3.384,-3.3103,-3.231,-3.1611,-3.1271,-3.0816,-4.0138,-4.0138,-4.0238,-4.0305,-4.0337,-4.0485,-4.0648,-4.0745,-4.0888,-4.0926,-4.0943,-4.1073,-4.113,-4.1104,-4.1255,-4.1321,-4.0856,-4.1038,-4.0921,-4.0545,-4.0662,-4.0294,-3.9749,-3.9404,-3.9157,-3.9221,-3.9346,-3.9399,-3.9406,-3.9406,-3.9432,-3.9458,-3.9483,-3.9401,-3.9139,-3.8584,-3.8103,-3.7467,-3.6499,-3.5787,-3.5417,-3.4873,-3.4558,-3.4529,-3.4513,-3.4494,-3.4494,-3.448,-3.4491,-3.4536,-3.4685,-3.4768,-3.4788,-3.4788,-3.4809,-3.4829,-3.4888,-3.4927,-3.4946,-3.5001,-3.5038,-3.5111,-3.5129,-3.511,-3.5127,-3.5198,-3.5234,-3.5212,-3.5229,-3.5226,-3.5242,-3.5223,-3.5226,-3.5226,-3.5242,-3.5226,-3.5229,-3.5273,-3.5304,-3.5308,-3.5293,-3.5296,-3.5231,-3.5212,-3.5215,-3.5164,-3.5145,-3.5145,-3.5108,-3.5127,-3.5108,-3.5126,-3.5091,-3.5092,-3.5057,-3.502,-3.4983,-3.4964,-3.4964,-3.4946,-3.4946,-3.4927,-3.4927,-3.4927,-3.4887,-3.4849,-3.481,-3.4691,-3.4379,-3.4073,-3.3768,-3.3047,-3.2366,-3.193,-3.1365,-4.0087,-4.0121,-4.0188,-4.0188,-4.0255,-4.0337,-4.0436,-4.0551,-4.0745,-4.0888,-4.1029,-4.1215,-4.1353,-4.1515,-4.1692,-4.1644,-4.1647,-4.1783,-4.1605,-4.1252,-4.1267,-4.1003,-4.0496,-4.0062,-3.9771,-3.9211,-3.9138,-3.9221,-3.9248,-3.9301,-3.9328,-3.9391,-3.9391,-3.9399,-3.9418,-3.8906,-3.8514,-3.8028,-3.7318,-3.6515,-3.5731,-3.5282,-3.4703,-3.4487,-3.4394,-3.4409,-3.4386,-3.4396,-3.4409,-3.4437,-3.4532,-3.4623,-3.4666,-3.4687,-3.4727,-3.4768,-3.4809,-3.4849,-3.4869,-3.4888,-3.4927,-3.5001,-3.5001,-3.5057,-3.5075,-3.5129,-3.5147,-3.5147,-3.5164,-3.5162,-3.5143,-3.5143,-3.5162,-3.5162,-3.5162,-3.5145,-3.5164,-3.5231,-3.5245,-3.5212,-3.5196,-3.5198,-3.5164,-3.5147,-3.5147,-3.511,-3.511,-3.5092,-3.511,-3.511,-3.5092,-3.5075,-3.502,-3.4964,-3.4945,-3.4908,-3.4888,-3.4869,-3.4888,-3.4868,-3.4849,-3.481,-3.479,-3.4788,-3.4768,-3.4727,-3.4687,-3.458,-3.4517,-3.4285,-3.396,-3.3556,-3.3115,-3.2567,-3.1964,-4.0087,-4.0087,-4.0087,-4.0087,-4.0121,-4.0238,-4.0305,-4.0355,-4.0551,-4.0728,-4.0871,-4.1029,-4.1233,-4.1335,-4.156,-4.1754,-4.2037,-4.2274,-4.2088,-4.1902,-4.1978,-4.1649,-4.1204,-4.1009,-4.0519,-3.9312,-3.9283,-3.9295,-3.9129,-3.9129,-3.9175,-3.9293,-3.932,-3.9266,-3.9293,-3.9283,-3.8912,-3.8308,-3.7917,-3.7329,-3.623,-3.5783,-3.5094,-3.4442,-3.4288,-3.4301,-3.4301,-3.429,-3.4327,-3.4327,-3.4349,-3.4381,-3.445,-3.4517,-3.4583,-3.4645,-3.4708,-3.4747,-3.4749,-3.4809,-3.4849,-3.487,-3.4889,-3.4946,-3.502,-3.5057,-3.5057,-3.5075,-3.5092,-3.511,-3.5092,-3.511,-3.511,-3.511,-3.5092,-3.5092,-3.5075,-3.5129,-3.511,-3.5127,-3.5127,-3.5129,-3.5092,-3.5038,-3.5057,-3.5057,-3.5057,-3.5057,-3.5057,-3.5039,-3.5002,-3.4983,-3.4927,-3.4908,-3.4888,-3.4811,-3.479,-3.4749,-3.4768,-3.4728,-3.4708,-3.4647,-3.4626,-3.4687,-3.4666,-3.4623,-3.4539,-3.4473,-3.4409,-3.4363,-3.4204,-3.3812,-3.3467,-3.3141,-3.2551,-4.0087,-4.0087,-4.0087,-4.0087,-4.0087,-4.0138,-4.0188,-4.0305,-4.0436,-4.0583,-4.0745,-4.1,-4.1093,-4.1215,-4.1471,-4.178,-4.2037,-4.2269,-4.2382,-4.2361,-4.2517,-4.225,-4.1886,-4.1792,-4.1348,-4.0675,-4.0191,-3.9704,-3.9124,-3.895,-3.9007,-3.8979,-3.9026,-3.9026,-3.9007,-3.8979,-3.8952,-3.8646,-3.8211,-3.7618,-3.7081,-3.6007,-3.5062,-3.429,-3.4185,-3.4099,-3.4074,-3.408,-3.4042,-3.4086,-3.4049,-3.4148,-3.4245,-3.4363,-3.4427,-3.4495,-3.458,-3.4645,-3.4645,-3.4728,-3.4788,-3.4809,-3.4829,-3.4829,-3.4849,-3.4908,-3.4946,-3.4964,-3.502,-3.5075,-3.5092,-3.5075,-3.5111,-3.5092,-3.5075,-3.5039,-3.4964,-3.4945,-3.502,-3.5039,-3.5057,-3.5057,-3.4983,-3.4946,-3.4946,-3.4927,-3.4907,-3.4907,-3.4907,-3.4888,-3.4849,-3.4829,-3.481,-3.4829,-3.4809,-3.4728,-3.4687,-3.4626,-3.4583,-3.4539,-3.4517,-3.4454,-3.4454,-3.4517,-3.4517,-3.4473,-3.4386,-3.434,-3.4293,-3.4227,-3.4136,-3.4068,-3.3778,-3.3469,-3.3278,-4.0087,-4.0087,-4.0087,-4.0087,-4.0087,-4.0087,-4.0121,-4.0238,-4.0337,-4.0485,-4.0648,-4.0793,-4.0953,-4.1123,-4.129,-4.1587,-4.1934,-4.2187,-4.2328,-4.249,-4.2595,-4.268,-4.2413,-4.245,-4.2049,-4.1553,-4.1174,-4.0459,-3.9485,-3.9047,-3.8936,-3.891,-3.891,-3.891,-3.891,-3.891,-3.891,-3.8781,-3.8504,-3.8079,-3.7599,-3.6131,-3.5124,-3.4726,-3.4215,-3.4,-3.4,-3.4009,-3.3987,-3.4013,-3.4009,-3.4042,-3.4099,-3.4173,-3.4269,-3.4381,-3.4473,-3.4495,-3.4495,-3.4561,-3.4623,-3.4687,-3.4687,-3.4747,-3.4788,-3.4849,-3.4849,-3.4869,-3.4869,-3.4927,-3.4908,-3.4946,-3.4946,-3.4946,-3.4946,-3.4927,-3.4869,-3.4849,-3.4869,-3.4927,-3.4907,-3.4888,-3.4888,-3.4849,-3.483,-3.4809,-3.4768,-3.4747,-3.4728,-3.4708,-3.4687,-3.4666,-3.4666,-3.4645,-3.4645,-3.4602,-3.4558,-3.4495,-3.4431,-3.4386,-3.4363,-3.4316,-3.4316,-3.434,-3.4316,-3.4316,-3.4293,-3.4245,-3.4154,-3.4105,-3.4037,-3.3986,-3.3954,-3.3836,-3.3582,-4.0087,-4.0087,-4.0087,-4.0087,-4.0087,-4.0087,-4.0087,-4.0138,-4.0238,-4.0337,-4.0485,-4.0648,-4.0858,-4.1029,-4.118,-4.1391,-4.178,-4.2079,-4.2205,-4.2328,-4.245,-4.2613,-4.2768,-4.2846,-4.2613,-4.2214,-4.183,-4.1259,-3.9955,-3.9369,-3.9024,-3.884,-3.8851,-3.8851,-3.887,-3.884,-3.8851,-3.8833,-3.8815,-3.8379,-3.7458,-3.6398,-3.5441,-3.521,-3.45,-3.412,-3.391,-3.387,-3.3899,-3.3907,-3.3931,-3.3947,-3.3954,-3.3954,-3.4099,-3.4288,-3.434,-3.4363,-3.4381,-3.4427,-3.4473,-3.4539,-3.4561,-3.4623,-3.4666,-3.4687,-3.4747,-3.4747,-3.4749,-3.4749,-3.4768,-3.4768,-3.4768,-3.4768,-3.4768,-3.4768,-3.4747,-3.4708,-3.4687,-3.4708,-3.4708,-3.4727,-3.4745,-3.4708,-3.4687,-3.4645,-3.4602,-3.4583,-3.4583,-3.4561,-3.4539,-3.4495,-3.4473,-3.445,-3.445,-3.4427,-3.4404,-3.4381,-3.4293,-3.4227,-3.4221,-3.4221,-3.4197,-3.4197,-3.4197,-3.4197,-3.4148,-3.4124,-3.4055,-3.4005,-3.3979,-3.3928,-3.3895,-3.3868,-3.3732,-4.0087,-4.0087,-4.0087,-4.0087,-4.0087,-4.0087,-4.0087,-4.0121,-4.0238,-4.0305,-4.0337,-4.06,-4.0697,-4.084,-4.1088,-4.1346,-4.1587,-4.178,-4.2037,-4.2205,-4.2328,-4.245,-4.2649,-4.2783,-4.2788,-4.2557,-4.2178,-4.1048,-4.0112,-3.9717,-3.9232,-3.881,-3.8726,-3.8738,-3.8719,-3.8719,-3.8738,-3.8689,-3.8621,-3.8175,-3.7454,-3.7034,-3.6193,-3.5345,-3.4743,-3.441,-3.3907,-3.379,-3.3725,-3.3734,-3.3753,-3.3807,-3.3887,-3.3895,-3.3947,-3.4049,-3.413,-3.4203,-3.4245,-3.4293,-3.4363,-3.4404,-3.4409,-3.4431,-3.4476,-3.4539,-3.458,-3.4623,-3.4604,-3.4604,-3.4623,-3.4623,-3.4623,-3.4623,-3.4623,-3.4602,-3.458,-3.458,-3.4517,-3.4473,-3.4473,-3.457,-3.4626,-3.457,-3.4536,-3.4473,-3.4469,-3.4469,-3.4409,-3.4386,-3.4386,-3.434,-3.4316,-3.4293,-3.4269,-3.4245,-3.4301,-3.4258,-3.4191,-3.4099,-3.4099,-3.4099,-3.4074,-3.4049,-3.4067,-3.4067,-3.3998,-3.3972,-3.3972,-3.3947,-3.3895,-3.3868,-3.3834,-3.3815,-3.3788,-4.0087,-4.0087,-4.0087,-4.0087,-4.0087,-4.0087,-4.0087,-4.0138,-4.0171,-4.0238,-4.0288,-4.0485,-4.0697,-4.0905,-4.1123,-4.1244,-4.1471,-4.1604,-4.178,-4.2037,-4.2121,-4.2287,-4.2409,-4.2548,-4.2667,-4.2619,-4.2407,-4.1884,-4.0835,-3.9956,-3.9414,-3.914,-3.8734,-3.8546,-3.8546,-3.8528,-3.8528,-3.8496,-3.8478,-3.825,-3.7854,-3.7416,-3.6869,-3.6109,-3.53,-3.4669,-3.4275,-3.3759,-3.3647,-3.366,-3.3642,-3.3643,-3.3726,-3.3726,-3.3734,-3.378,-3.3895,-3.3998,-3.4074,-3.4148,-3.4197,-3.4245,-3.4269,-3.4316,-3.4358,-3.4404,-3.445,-3.4495,-3.4495,-3.4495,-3.4454,-3.4495,-3.4495,-3.4514,-3.4604,-3.4618,-3.4554,-3.4404,-3.4363,-3.4293,-3.4338,-3.4636,-3.4809,-3.4721,-3.4708,-3.4694,-3.4609,-3.4506,-3.4351,-3.4179,-3.4154,-3.4148,-3.413,-3.4136,-3.4105,-3.4099,-3.4228,-3.4222,-3.4185,-3.4116,-3.4042,-3.4016,-3.4142,-3.4023,-3.3905,-3.3887,-3.3879,-3.3868,-3.3895,-3.3842,-3.3834,-3.378,-3.3753,-3.3698,-3.3671,-4.0087,-4.0087,-4.0087,-4.0087,-4.0087,-4.0087,-4.0087,-4.0087,-4.0138,-4.0138,-4.0288,-4.0436,-4.0697,-4.0953,-4.1047,-4.1169,-4.1335,-4.1471,-4.1604,-4.178,-4.1952,-4.2079,-4.2264,-4.2364,-4.2468,-4.253,-4.2537,-4.2237,-4.1538,-4.0564,-3.9724,-3.9553,-3.878,-3.8488,-3.8382,-3.8415,-3.8415,-3.8387,-3.8368,-3.83,-3.8122,-3.7703,-3.7326,-3.6726,-3.5988,-3.51,-3.4637,-3.4207,-3.3852,-3.3542,-3.3556,-3.3577,-3.3633,-3.3633,-3.3615,-3.3661,-3.3726,-3.3807,-3.3913,-3.3972,-3.4023,-3.4055,-3.4105,-3.4173,-3.4264,-3.4311,-3.4293,-3.4293,-3.4293,-3.4293,-3.4293,-3.4311,-3.4492,-3.4586,-3.4697,-3.471,-3.4797,-3.4922,-3.5089,-3.5243,-3.5258,-3.5188,-3.5269,-3.5018,-3.4939,-3.4922,-3.4779,-3.4648,-3.4585,-3.4522,-3.4715,-3.4874,-3.4869,-3.4877,-3.4811,-3.4674,-3.4555,-3.44,-3.4381,-3.4484,-3.4632,-3.4605,-3.4642,-3.4366,-3.4073,-3.4009,-3.4174,-3.3973,-3.3815,-3.3753,-3.3698,-3.3698,-3.3643,-3.3633,-3.3577,-3.9986,-4.0087,-4.0087,-4.0087,-4.0087,-4.0087,-4.0087,-4.0087,-4.0087,-4.0121,-4.0188,-4.037,-4.0583,-4.0745,-4.0953,-4.1111,-4.114,-4.1335,-4.1471,-4.1604,-4.1736,-4.1866,-4.2012,-4.2181,-4.2287,-4.2328,-4.2409,-4.2476,-4.2106,-4.0703,-3.9986,-3.9472,-3.8725,-3.8478,-3.835,-3.8285,-3.8303,-3.8256,-3.8274,-3.8189,-3.8104,-3.7853,-3.7566,-3.696,-3.6566,-3.5897,-3.4479,-3.4315,-3.4086,-3.3563,-3.3488,-3.3491,-3.3491,-3.352,-3.352,-3.3502,-3.3577,-3.3633,-3.3671,-3.3834,-3.3972,-3.3979,-3.3979,-3.4005,-3.4049,-3.4049,-3.4049,-3.4074,-3.408,-3.4148,-3.4129,-3.4141,-3.4574,-3.501,-3.5269,-3.5436,-3.5594,-3.5826,-3.6011,-3.6224,-3.6159,-3.5892,-3.6029,-3.5855,-3.5597,-3.5559,-3.5559,-3.5423,-3.5616,-3.5653,-3.5864,-3.6003,-3.5991,-3.5991,-3.6021,-3.5809,-3.5375,-3.5274,-3.5292,-3.5436,-3.5634,-3.5531,-3.5352,-3.513,-3.4929,-3.467,-3.4386,-3.4178,-3.397,-3.3724,-3.3587,-3.3605,-3.3577,-3.3538,-3.3509,-3.9986,-4.0087,-4.0087,-4.0087,-4.0087,-4.0087,-4.0087,-4.0087,-4.0087,-4.0138,-4.0238,-4.0337,-4.0502,-4.0697,-4.081,-4.097,-4.1111,-4.1186,-4.129,-4.1408,-4.1542,-4.1692,-4.1841,-4.197,-4.2097,-4.2157,-4.2222,-4.2246,-4.2091,-4.0814,-4.0213,-3.959,-3.8704,-3.8233,-3.807,-3.8122,-3.8088,-3.8054,-3.8072,-3.8003,-3.8003,-3.7951,-3.7772,-3.7503,-3.6844,-3.6485,-3.5759,-3.481,-3.4317,-3.3924,-3.3539,-3.3424,-3.3352,-3.3382,-3.3327,-3.3327,-3.3375,-3.3452,-3.3491,-3.3661,-3.3753,-3.3807,-3.3807,-3.3834,-3.3879,-3.3905,-3.3939,-3.3947,-3.4039,-3.426,-3.4639,-3.4731,-3.5008,-3.5579,-3.5937,-3.6103,-3.6332,-3.6589,-3.6597,-3.6688,-3.6465,-3.6223,-3.6486,-3.6778,-3.6472,-3.6237,-3.6208,-3.6263,-3.641,-3.6512,-3.6604,-3.663,-3.6602,-3.648,-3.6431,-3.6273,-3.6085,-3.6109,-3.6164,-3.6243,-3.6357,-3.6371,-3.6152,-3.5945,-3.5726,-3.5496,-3.509,-3.4485,-3.4117,-3.3855,-3.3647,-3.352,-3.3509,-3.3452,-3.3422,-3.9952,-4.0037,-4.007,-4.0087,-4.0087,-4.0087,-4.0087,-4.0087,-4.0087,-4.0138,-4.0238,-4.0288,-4.0387,-4.0551,-4.0714,-4.081,-4.0953,-4.1047,-4.1123,-4.1244,-4.1363,-4.1453,-4.156,-4.171,-4.1884,-4.1902,-4.1987,-4.2055,-4.2044,-4.0793,-4.0157,-3.9575,-3.8758,-3.8187,-3.7934,-3.7917,-3.7864,-3.7846,-3.7846,-3.7793,-3.7775,-3.7739,-3.7703,-3.7596,-3.713,-3.6702,-3.6238,-3.5453,-3.4896,-3.444,-3.3952,-3.3553,-3.3391,-3.3265,-3.3122,-3.3152,-3.3201,-3.328,-3.3334,-3.3491,-3.3623,-3.3679,-3.3671,-3.3707,-3.3762,-3.3973,-3.4257,-3.4284,-3.4421,-3.4798,-3.5349,-3.5375,-3.5695,-3.6289,-3.649,-3.6644,-3.6997,-3.7272,-3.7119,-3.7051,-3.6916,-3.6944,-3.7021,-3.7348,-3.7267,-3.7093,-3.7228,-3.7179,-3.713,-3.7148,-3.7025,-3.703,-3.6967,-3.6821,-3.664,-3.6789,-3.6939,-3.6961,-3.6961,-3.6834,-3.6884,-3.6939,-3.6994,-3.6834,-3.6606,-3.6317,-3.5833,-3.5245,-3.4568,-3.3948,-3.3701,-3.3436,-3.3298,-3.3286,-3.3256,-3.9781,-3.9901,-4.0037,-4.0087,-4.0087,-4.0087,-4.0087,-4.0087,-4.0087,-4.0138,-4.0121,-4.0238,-4.0305,-4.0404,-4.0568,-4.0714,-4.081,-4.0953,-4.1076,-4.1123,-4.1198,-4.1226,-4.13,-4.1453,-4.1604,-4.1666,-4.1754,-4.1858,-4.1945,-4.1014,-4.0324,-3.9532,-3.8649,-3.8055,-3.7918,-3.7864,-3.781,-3.7703,-3.7703,-3.7559,-3.7503,-3.7466,-3.7429,-3.7374,-3.7266,-3.693,-3.6451,-3.6078,-3.5545,-3.5066,-3.4472,-3.4163,-3.4074,-3.3602,-3.3382,-3.336,-3.3306,-3.3265,-3.3224,-3.3488,-3.3684,-3.3637,-3.3629,-3.3756,-3.3858,-3.4233,-3.4772,-3.479,-3.5246,-3.5702,-3.5927,-3.6018,-3.6455,-3.6875,-3.7044,-3.7189,-3.754,-3.7689,-3.7515,-3.741,-3.7706,-3.7928,-3.7875,-3.7877,-3.791,-3.7975,-3.8183,-3.8111,-3.7757,-3.7631,-3.7468,-3.7416,-3.7365,-3.7365,-3.7329,-3.7589,-3.7736,-3.7772,-3.7662,-3.7426,-3.7408,-3.7514,-3.7587,-3.7592,-3.7234,-3.6748,-3.6389,-3.5996,-3.522,-3.4379,-3.37,-3.3363,-3.3206,-3.3086,-3.3104,-3.9781,-3.9884,-4.0037,-4.0087,-4.0087,-4.0087,-4.0087,-4.0087,-4.0087,-4.0087,-4.0121,-4.0138,-4.0238,-4.0305,-4.0404,-4.0551,-4.0714,-4.0745,-4.084,-4.0982,-4.1059,-4.1123,-4.1198,-4.1272,-4.1346,-4.1363,-4.1453,-4.1498,-4.1436,-4.0928,-4.0179,-3.9359,-3.8329,-3.7691,-3.7518,-3.7502,-3.7447,-3.7447,-3.7429,-3.7392,-3.7317,-3.7317,-3.7279,-3.7259,-3.7279,-3.7084,-3.6728,-3.6425,-3.603,-3.5658,-3.5084,-3.4693,-3.4657,-3.4228,-3.4211,-3.4246,-3.4264,-3.4367,-3.4452,-3.4577,-3.4217,-3.3869,-3.381,-3.4093,-3.4171,-3.4852,-3.5191,-3.5385,-3.576,-3.6141,-3.6381,-3.6494,-3.6892,-3.7422,-3.7657,-3.7657,-3.7855,-3.7857,-3.7805,-3.7753,-3.7934,-3.7828,-3.7774,-3.7775,-3.7828,-3.7846,-3.7898,-3.7985,-3.7771,-3.7789,-3.7716,-3.7735,-3.7771,-3.7861,-3.7934,-3.7828,-3.7793,-3.7721,-3.7774,-3.779,-3.7845,-3.7846,-3.7792,-3.7596,-3.7363,-3.7131,-3.6809,-3.6399,-3.5651,-3.4869,-3.4363,-3.3924,-3.3817,-3.3426,-3.2948,-3.9729,-3.9849,-4.0037,-4.0087,-4.0087,-4.0087,-4.0087,-4.0087,-4.0087,-4.0087,-4.0087,-4.0087,-4.0138,-4.0238,-4.0288,-4.0337,-4.0551,-4.06,-4.0697,-4.084,-4.0888,-4.0982,-4.1029,-4.1123,-4.1198,-4.118,-4.1209,-4.1209,-4.1255,-4.0874,-4.0158,-3.9098,-3.7835,-3.7238,-3.7122,-3.7182,-3.7259,-3.7259,-3.722,-3.7143,-3.7105,-3.7066,-3.7066,-3.7083,-3.7048,-3.7017,-3.6929,-3.6675,-3.6326,-3.6081,-3.565,-3.5204,-3.5188,-3.503,-3.4924,-3.4889,-3.4907,-3.4942,-3.4993,-3.501,-3.4541,-3.4005,-3.4422,-3.4666,-3.4878,-3.5537,-3.5861,-3.6074,-3.6182,-3.6579,-3.6996,-3.7122,-3.7252,-3.7774,-3.7792,-3.7774,-3.7774,-3.7774,-3.7757,-3.7757,-3.7703,-3.7631,-3.7577,-3.7593,-3.7592,-3.7576,-3.754,-3.7631,-3.7721,-3.7703,-3.7739,-3.7739,-3.7703,-3.7667,-3.7667,-3.7631,-3.7649,-3.7685,-3.7721,-3.7757,-3.7685,-3.7576,-3.7594,-3.7577,-3.7361,-3.7198,-3.7179,-3.6767,-3.6254,-3.5811,-3.5403,-3.4975,-3.4563,-3.3977,-3.3359,-3.9627,-3.9696,-3.9969,-4.0087,-4.0087,-4.0087,-4.0087,-4.0087,-4.0087,-4.0087,-4.0087,-4.0087,-4.0121,-4.0121,-4.0238,-4.0288,-4.0355,-4.0436,-4.0583,-4.0631,-4.0728,-4.0776,-4.0888,-4.0982,-4.1029,-4.1076,-4.1105,-4.1134,-4.1146,-4.0617,-3.9931,-3.8868,-3.7446,-3.698,-3.6886,-3.7005,-3.7105,-3.7027,-3.6987,-3.6926,-3.6869,-3.6766,-3.6823,-3.6823,-3.6823,-3.6816,-3.6781,-3.6666,-3.6655,-3.6429,-3.6016,-3.5854,-3.558,-3.5199,-3.5028,-3.4995,-3.5083,-3.5171,-3.526,-3.5313,-3.5279,-3.5084,-3.5381,-3.5534,-3.5693,-3.6143,-3.6485,-3.6789,-3.6968,-3.7362,-3.7703,-3.7631,-3.7524,-3.7649,-3.7631,-3.7595,-3.7578,-3.7542,-3.7487,-3.7431,-3.7354,-3.7317,-3.7297,-3.7294,-3.7291,-3.7256,-3.7203,-3.7203,-3.7279,-3.7447,-3.7447,-3.7447,-3.741,-3.7372,-3.7372,-3.741,-3.7447,-3.7484,-3.7447,-3.7447,-3.7372,-3.7334,-3.7372,-3.7372,-3.7297,-3.7185,-3.7073,-3.7073,-3.7061,-3.664,-3.609,-3.5649,-3.5155,-3.473,-3.427,-3.8907,-3.9008,-3.975,-4.0087,-4.0087,-4.007,-4.0087,-4.0087,-4.0087,-4.0087,-4.0087,-4.0087,-4.0087,-4.0138,-4.0121,-4.0255,-4.0305,-4.0355,-4.0453,-4.0485,-4.0534,-4.0566,-4.0631,-4.0745,-4.081,-4.0858,-4.0935,-4.0948,-4.0718,-4.0245,-3.9234,-3.8042,-3.7148,-3.6765,-3.6702,-3.6823,-3.6806,-3.6806,-3.6748,-3.6748,-3.6708,-3.6684,-3.6661,-3.6696,-3.6678,-3.669,-3.6667,-3.6672,-3.6658,-3.6537,-3.6464,-3.6388,-3.6382,-3.6247,-3.6182,-3.6182,-3.6199,-3.6239,-3.6264,-3.6324,-3.6312,-3.6262,-3.6538,-3.6327,-3.6363,-3.6559,-3.7039,-3.7201,-3.7254,-3.7469,-3.7521,-3.7484,-3.7429,-3.7392,-3.7372,-3.7354,-3.7319,-3.7281,-3.7261,-3.7203,-3.7161,-3.7066,-3.7044,-3.6983,-3.7001,-3.6904,-3.6869,-3.6908,-3.6948,-3.7105,-3.7182,-3.7182,-3.7182,-3.7143,-3.722,-3.7297,-3.7297,-3.7297,-3.7259,-3.722,-3.7276,-3.7238,-3.722,-3.7143,-3.7066,-3.6965,-3.6846,-3.6886,-3.7005,-3.6926,-3.6466,-3.6106,-3.5706,-3.534,-3.5006,-3.8154,-3.8271,-3.8923,-3.9377,-3.9681,-3.9952,-4.0087,-4.0087,-4.0087,-4.0087,-4.0087,-4.0087,-4.0087,-4.0087,-4.0138,-4.0138,-4.0188,-4.0238,-4.0305,-4.0404,-4.0436,-4.0485,-4.0534,-4.0583,-4.0648,-4.0648,-4.0697,-4.071,-4.0328,-3.9342,-3.8321,-3.7638,-3.6842,-3.6565,-3.6478,-3.6419,-3.6437,-3.6461,-3.6502,-3.6568,-3.6568,-3.6527,-3.652,-3.6554,-3.6561,-3.6561,-3.6561,-3.654,-3.6558,-3.6515,-3.653,-3.6579,-3.6585,-3.6609,-3.665,-3.6638,-3.662,-3.6626,-3.6614,-3.6706,-3.6873,-3.693,-3.7027,-3.6763,-3.6738,-3.6885,-3.7137,-3.7281,-3.7243,-3.7241,-3.722,-3.7182,-3.7143,-3.7087,-3.7066,-3.7044,-3.7044,-3.7044,-3.7062,-3.704,-3.6961,-3.6846,-3.6823,-3.6795,-3.6737,-3.6742,-3.6766,-3.6748,-3.6788,-3.6886,-3.6926,-3.6965,-3.7005,-3.7005,-3.7083,-3.7122,-3.7083,-3.7044,-3.6987,-3.7005,-3.7083,-3.7044,-3.6965,-3.6886,-3.6788,-3.6725,-3.6702,-3.6742,-3.6783,-3.6719,-3.6661,-3.6394,-3.616,-3.602,-3.5723,-3.7401,-3.7466,-3.7776,-3.8362,-3.8954,-3.9546,-3.9817,-3.9968,-3.9766,-3.9969,-4.0037,-4.0087,-4.0087,-4.0087,-4.0087,-4.0087,-4.0138,-4.0138,-4.0188,-4.0305,-4.0288,-4.0337,-4.0387,-4.0485,-4.0485,-4.0485,-4.0449,-4.036,-3.985,-3.8883,-3.7762,-3.7195,-3.6586,-3.6225,-3.6208,-3.6165,-3.6165,-3.6148,-3.6276,-3.6402,-3.6301,-3.6301,-3.6259,-3.6276,-3.6301,-3.6266,-3.6266,-3.6284,-3.6301,-3.6301,-3.6318,-3.636,-3.6461,-3.6561,-3.662,-3.6661,-3.6602,-3.6602,-3.6643,-3.6684,-3.6684,-3.6684,-3.6684,-3.6713,-3.6799,-3.6882,-3.7048,-3.7105,-3.7066,-3.7009,-3.6987,-3.6965,-3.6926,-3.6908,-3.6886,-3.6886,-3.6886,-3.6986,-3.7207,-3.7295,-3.7498,-3.738,-3.7408,-3.7428,-3.7498,-3.7106,-3.7019,-3.7054,-3.7019,-3.7119,-3.6934,-3.6899,-3.6858,-3.6898,-3.6864,-3.6864,-3.6823,-3.6742,-3.6725,-3.6783,-3.6921,-3.6823,-3.6702,-3.6643,-3.6643,-3.6643,-3.662,-3.662,-3.6602,-3.6561,-3.6561,-3.6561,-3.6498,-3.6342,-3.622,-3.6582,-3.6745,-3.7573,-3.8024,-3.8176,-3.8345,-3.8464,-3.843,-3.843,-3.9073,-3.9918,-4.0054,-4.0037,-3.9986,-4.0054,-4.0087,-4.0087,-4.0087,-4.0138,-4.0138,-4.0188,-4.0188,-4.0221,-4.0337,-4.0337,-4.0387,-4.03,-3.9836,-3.8845,-3.7872,-3.7096,-3.6395,-3.6036,-3.6036,-3.6036,-3.5975,-3.5975,-3.5975,-3.6019,-3.6131,-3.6054,-3.6062,-3.6079,-3.6062,-3.6088,-3.6096,-3.6121,-3.6079,-3.6105,-3.6071,-3.6062,-3.6165,-3.6268,-3.631,-3.6353,-3.6377,-3.6402,-3.6402,-3.6419,-3.6461,-3.652,-3.6561,-3.6602,-3.6661,-3.6742,-3.6806,-3.6846,-3.6846,-3.6846,-3.6846,-3.6806,-3.6766,-3.6702,-3.6684,-3.6771,-3.6771,-3.6771,-3.7113,-3.7436,-3.7654,-3.7949,-3.801,-3.7975,-3.8044,-3.8148,-3.8165,-3.8182,-3.8165,-3.8044,-3.7958,-3.7351,-3.722,-3.6893,-3.6806,-3.6765,-3.6783,-3.6793,-3.6672,-3.6643,-3.6661,-3.6696,-3.6561,-3.6444,-3.652,-3.6537,-3.6478,-3.6419,-3.6402,-3.6402,-3.6419,-3.6377,-3.6335,-3.6293,-3.6172,-3.6249,-3.5783,-3.6025,-3.7,-3.7415,-3.7466,-3.7753,-3.7922,-3.7922,-3.7922,-3.8345,-3.9123,-3.9428,-3.9597,-3.9715,-3.9901,-4.0003,-4.0003,-4.0087,-4.0138,-4.0087,-3.9969,-4.0138,-4.0121,-4.0086,-4.0188,-4.0204,-3.9812,-3.9064,-3.7784,-3.7285,-3.6689,-3.6007,-3.5888,-3.5888,-3.5888,-3.5888,-3.5844,-3.5783,-3.5827,-3.581,-3.5881,-3.5932,-3.5983,-3.601,-3.6002,-3.6011,-3.602,-3.5994,-3.6027,-3.6,-3.6044,-3.6036,-3.6122,-3.6122,-3.6165,-3.6148,-3.6191,-3.6174,-3.6174,-3.6233,-3.6335,-3.6335,-3.6335,-3.6353,-3.6353,-3.6419,-3.6585,-3.6602,-3.6643,-3.6643,-3.6643,-3.662,-3.6502,-3.6485,-3.6928,-3.724,-3.7474,-3.7828,-3.7912,-3.7954,-3.8098,-3.8133,-3.8105,-3.8105,-3.8191,-3.8191,-3.8362,-3.8545,-3.8545,-3.8797,-3.8171,-3.7793,-3.762,-3.723,-3.7161,-3.7049,-3.697,-3.6797,-3.6606,-3.6437,-3.637,-3.6276,-3.6199,-3.6276,-3.6293,-3.6191,-3.6174,-3.6174,-3.6174,-3.6191,-3.6148,-3.6105,-3.6062,-3.6019,-3.6105,-3.5168,-3.5455,-3.6274,-3.6637,-3.6721,-3.7297,-3.7567,-3.7567,-3.7584,-3.755,-3.7702,-3.8362,-3.87,-3.9073,-3.9445,-3.9665,-3.9698,-3.9428,-3.9597,-3.9631,-3.9631,-3.9445,-3.9478,-3.9714,-3.9596,-3.9325,-3.8901,-3.8055,-3.6988,-3.6644,-3.6282,-3.5841,-3.5773,-3.5773,-3.5728,-3.5667,-3.5622,-3.5667,-3.5667,-3.5622,-3.5711,-3.58,-3.5895,-3.5939,-3.5922,-3.5932,-3.5939,-3.5936,-3.5949,-3.5943,-3.5929,-3.5922,-3.5949,-3.5993,-3.6036,-3.6019,-3.6062,-3.6062,-3.6019,-3.6062,-3.6079,-3.6036,-3.6036,-3.6053,-3.607,-3.6174,-3.6362,-3.6446,-3.6488,-3.6471,-3.6488,-3.6602,-3.6525,-3.6603,-3.7223,-3.7757,-3.8081,-3.842,-3.8459,-3.8384,-3.8487,-3.8521,-3.8538,-3.8521,-3.8487,-3.8452,-3.8452,-3.8487,-3.8657,-3.9127,-3.9071,-3.8912,-3.8883,-3.8446,-3.7774,-3.7499,-3.7378,-3.693,-3.6698,-3.6311,-3.6079,-3.6088,-3.6071,-3.6045,-3.6002,-3.6019,-3.6019,-3.6062,-3.6019,-3.6019,-3.5975,-3.5975,-3.5932,-3.5949,-3.5932,-3.5105,-3.5354,-3.5717,-3.5859,-3.5893,-3.6028,-3.6062,-3.6062,-3.6113,-3.6062,-3.6349,-3.6891,-3.7483,-3.8091,-3.821,-3.843,-3.8684,-3.8582,-3.8396,-3.8311,-3.8616,-3.8481,-3.8481,-3.8768,-3.8413,-3.8125,-3.7787,-3.711,-3.6535,-3.6096,-3.5853,-3.5684,-3.5667,-3.5684,-3.5639,-3.5639,-3.5639,-3.5639,-3.5639,-3.5639,-3.5639,-3.5667,-3.5667,-3.5667,-3.5667,-3.565,-3.5667,-3.5639,-3.5656,-3.5656,-3.5701,-3.5773,-3.58,-3.5844,-3.5888,-3.5932,-3.5932,-3.5932,-3.5932,-3.5932,-3.5932,-3.612,-3.6137,-3.6154,-3.6232,-3.6266,-3.6353,-3.6353,-3.6397,-3.6345,-3.6431,-3.6911,-3.7004,-3.7278,-3.774,-3.81,-3.843,-3.8892,-3.9153,-3.9341,-3.9515,-3.96,-3.9737,-3.972,-3.9703,-3.9668,-3.9634,-3.9668,-3.9583,-3.9754,-3.9887,-3.9819,-3.9799,-3.9166,-3.8374,-3.8134,-3.7957,-3.7364,-3.6789,-3.6437,-3.618,-3.6036,-3.5958,-3.5915,-3.5932,-3.5975,-3.5975,-3.5932,-3.5932,-3.5932,-3.5844,-3.5817,-3.5817,-3.5817,-3.58]}]]